ftp/pub/palmer/observations_modified/2019/January/AR190104_BASE.txt

Download

Sample DateTime	Unit Id	WS Avg 2min	WD Avg 2min	WGS 10min	WGD 10min	Air Temp	Rel Humidity	Dew Point	Pyranometer	Quantum	Air Pressure	Snow Level	Rainfall	PW Current	Visibility	CBase 1	CBase 2	CBase 3	Vert Vis
2019/01/04 00:00:00	BASE	0.37	205	2.16	162	-1.2	99	-1.3	37	93	984.2	NA	0.0000	UP	9000	1180	0	0	0
2019/01/04 00:01:00	BASE	0.00	212	2.16	162	-1.2	99	-1.3	37	91	984.2	NA	0.0000	UP	9000	1150	0	0	0
2019/01/04 00:02:00	BASE	0.00	209	2.16	162	-1.1	99	-1.3	36	89	984.2	NA	0.0000	UP	9999	1180	0	0	0
2019/01/04 00:03:00	BASE	0.00	210	2.06	166	-1.1	99	-1.3	36	89	984.2	NA	0.0000	UP	9999	1150	0	0	0
2019/01/04 00:04:00	BASE	0.00	214	2.06	166	-1.1	99	-1.2	36	88	984.2	NA	0.0000	UP	9999	1250	0	0	0
2019/01/04 00:05:00	BASE	0.15	216	1.95	183	-1.1	99	-1.2	35	87	984.2	NA	0.0000	UP	9999	1210	0	0	0
2019/01/04 00:06:00	BASE	0.45	221	1.90	177	-1.1	99	-1.2	34	85	984.2	NA	0.0000	UP	9999	1210	0	0	0
2019/01/04 00:07:00	BASE	1.16	219	2.06	196	-1.1	99	-1.2	33	83	984.2	NA	0.0000	UP	9999	1250	0	0	0
2019/01/04 00:08:00	BASE	1.97	208	2.52	200	-1.1	99	-1.2	33	82	984.2	NA	0.0000	UP	9999	1210	0	0	0
2019/01/04 00:09:00	BASE	2.34	203	2.68	219	-1.1	99	-1.1	32	82	984.2	NA	0.0000	UP	9999	1250	0	0	0
2019/01/04 00:10:00	BASE	2.45	217	2.93	226	-1.0	100	-1.1	31	80	984.2	NA	0.0000	UP	9999	1250	0	0	0
2019/01/04 00:11:00	BASE	2.62	224	3.24	215	-1.0	100	-1.1	30	77	984.2	NA	0.0000		9999	1280	0	0	0
2019/01/04 00:12:00	BASE	2.67	213	3.24	215	-1.0	100	-1.0	29	75	984.2	NA	0.0000		9999	1250	0	0	0
2019/01/04 00:13:00	BASE	2.31	208	3.24	215	-1.1	100	-1.1	29	73	984.2	NA	0.0000		9999	1280	0	0	0
2019/01/04 00:14:00	BASE	2.36	221	3.24	215	-1.1	100	-1.1	28	71	984.2	NA	0.0000		9999	1310	0	0	0
2019/01/04 00:15:00	BASE	2.32	231	3.24	215	-1.1	100	-1.1	26	69	984.2	NA	0.0000		9999	1310	0	0	0
2019/01/04 00:16:00	BASE	1.80	225	3.24	215	-1.1	99	-1.2	25	67	984.2	NA	0.0000		9999	1310	0	0	0
2019/01/04 00:17:00	BASE	1.15	221	3.24	215	-1.1	99	-1.2	25	66	984.2	NA	0.0000		9999	1180	0	0	0
2019/01/04 00:18:00	BASE	0.34	204	3.24	215	-1.1	99	-1.2	24	64	984.2	NA	0.0000		9999	1180	0	0	0
2019/01/04 00:19:00	BASE	0.05	176	3.24	215	-1.1	99	-1.3	23	63	984.1	NA	0.0000		9999	1210	0	0	0
2019/01/04 00:20:00	BASE	0.05	160	3.24	215	-1.2	99	-1.3	21	60	984.1	NA	0.0000		9999	1210	0	0	0
2019/01/04 00:21:00	BASE	0.00	151	3.09	227	-1.2	99	-1.3	20	58	984.1	NA	0.0000		9999	1250	0	0	0
2019/01/04 00:22:00	BASE	0.00	144	3.09	227	-1.1	99	-1.3	21	58	984.1	NA	0.0000		9999	1250	0	0	0
2019/01/04 00:23:00	BASE	0.00	153	3.09	227	-1.1	99	-1.3	21	58	984.1	NA	0.0000		9999	1250	0	0	0
2019/01/04 00:24:00	BASE	0.00	165	2.47	221	-1.1	99	-1.3	21	59	984.1	NA	0.0000		9999	1250	0	0	0
2019/01/04 00:25:00	BASE	0.00	155	2.06	231	-1.1	99	-1.2	21	57	984.1	NA	0.0000		9999	1250	0	0	0
2019/01/04 00:26:00	BASE	0.00	141	1.59	208	-1.0	99	-1.2	20	56	984.1	NA	0.0000		9999	1210	0	0	0
2019/01/04 00:27:00	BASE	0.00	169	1.08	157	-1.0	99	-1.2	20	56	984.1	NA	0.0000		9999	1180	0	0	0
2019/01/04 00:28:00	BASE	0.28	206	1.18	211	-1.0	99	-1.2	22	58	984.1	NA	0.0000		9999	1150	0	0	0
2019/01/04 00:29:00	BASE	0.87	210	1.39	202	-1.1	99	-1.2	22	59	984.1	NA	0.0000		9999	1180	0	0	0
2019/01/04 00:30:00	BASE	0.85	203	1.39	202	-1.1	99	-1.2	24	61	984.1	NA	0.0000		9999	1180	0	0	0
2019/01/04 00:31:00	BASE	0.40	195	1.39	202	-1.1	99	-1.2	23	60	984.1	NA	0.0000		9999	1180	0	0	0
2019/01/04 00:32:00	BASE	0.64	196	1.75	209	-1.1	99	-1.2	21	56	984.1	NA	0.0000		9999	1150	0	0	0
2019/01/04 00:33:00	BASE	1.34	204	1.80	207	-1.1	100	-1.2	20	54	984.1	NA	0.0000		9999	1150	0	0	0
2019/01/04 00:34:00	BASE	1.68	207	1.85	210	-1.2	100	-1.2	20	54	984.0	NA	0.0000		9999	1150	0	0	0
2019/01/04 00:35:00	BASE	1.45	201	1.85	210	-1.2	100	-1.2	21	55	984.0	NA	0.0000		9999	1180	0	0	0
2019/01/04 00:36:00	BASE	0.87	200	1.85	210	-1.1	100	-1.1	21	54	984.0	NA	0.0000		9999	1150	0	0	0
2019/01/04 00:37:00	BASE	0.83	208	1.85	210	-1.1	100	-1.1	19	52	984.0	NA	0.0000		9999	1150	0	0	0
2019/01/04 00:38:00	BASE	1.18	197	1.85	210	-1.1	100	-1.1	19	52	984.0	NA	0.0000		9999	1150	0	0	0
2019/01/04 00:39:00	BASE	1.26	181	1.85	210	-1.1	100	-1.1	21	54	984.0	NA	0.0000		9999	1150	0	0	0
2019/01/04 00:40:00	BASE	1.44	192	2.16	211	-1.1	100	-1.1	19	51	984.0	NA	0.0000		9999	1180	0	0	0
2019/01/04 00:41:00	BASE	1.57	196	2.16	211	-1.1	100	-1.1	18	49	984.0	NA	0.0000		9999	1150	0	0	0
2019/01/04 00:42:00	BASE	1.08	175	2.16	211	-1.1	100	-1.1	17	47	984.0	NA	0.0000		9999	1150	0	0	0
2019/01/04 00:43:00	BASE	0.93	162	2.16	211	-1.1	100	-1.1	15	44	984.0	NA	0.0000		9999	1180	0	0	0
2019/01/04 00:44:00	BASE	0.98	161	2.16	211	-1.0	100	-1.0	14	42	984.0	NA	0.0000		9999	1180	0	0	0
2019/01/04 00:45:00	BASE	1.30	177	2.21	210	-1.0	100	-1.0	14	40	984.0	NA	0.0000		9999	1150	0	0	0
2019/01/04 00:46:00	BASE	2.07	208	2.62	206	-1.1	100	-1.1	14	40	984.0	NA	0.0000		9999	1150	0	0	0
2019/01/04 00:47:00	BASE	2.26	212	2.62	206	-1.1	100	-1.1	14	39	984.0	NA	0.0000		9999	1150	0	0	0
2019/01/04 00:48:00	BASE	1.99	210	2.62	206	-1.1	100	-1.1	14	39	984.0	NA	0.0000		9999	1150	0	0	0
2019/01/04 00:49:00	BASE	1.55	216	2.62	206	-1.2	100	-1.2	14	39	984.0	NA	0.0000		9999	1180	0	0	0
2019/01/04 00:50:00	BASE	1.56	223	2.62	206	-1.2	100	-1.2	14	39	984.0	NA	0.0000		9999	1150	0	0	0
2019/01/04 00:51:00	BASE	1.62	225	2.62	206	-1.2	100	-1.2	14	39	983.9	NA	0.0000		9999	1150	0	0	0
2019/01/04 00:52:00	BASE	1.63	229	2.62	206	-1.2	100	-1.2	14	38	983.9	NA	0.0000		9999	1150	0	0	0
2019/01/04 00:53:00	BASE	1.80	234	2.62	206	-1.2	100	-1.2	13	37	983.9	NA	0.0000		9999	1150	0	0	0
2019/01/04 00:54:00	BASE	1.82	234	2.62	206	-1.2	100	-1.2	13	37	983.9	NA	0.0000		9999	1150	0	0	0
2019/01/04 00:55:00	BASE	1.58	250	2.62	206	-1.2	100	-1.2	13	36	983.9	NA	0.0000		9999	1150	0	0	0
2019/01/04 00:56:00	BASE	1.42	272	2.52	209	-1.1	100	-1.1	12	35	983.9	NA	0.0000		9999	1150	0	0	0
2019/01/04 00:57:00	BASE	1.58	274	2.06	229	-1.1	100	-1.1	12	34	983.9	NA	0.0000		9999	1180	0	0	0
2019/01/04 00:58:00	BASE	1.90	269	3.14	278	-1.0	100	-1.0	12	34	983.9	NA	0.0000		9999	1150	0	0	0
2019/01/04 00:59:00	BASE	2.24	266	3.14	278	-1.0	100	-1.0	12	33	983.9	NA	0.0000		9999	1150	0	0	0
2019/01/04 01:00:00	BASE	2.01	254	3.14	278	-1.0	100	-1.0	12	33	983.9	NA	0.0000		9999	1150	0	0	0
2019/01/04 01:01:00	BASE	1.62	257	3.14	278	-1.0	100	-1.0	12	33	983.8	NA	0.0000		9999	1120	0	0	0
2019/01/04 01:02:00	BASE	1.26	261	3.14	278	-1.0	100	-1.0	12	33	983.7	NA	0.0000		9999	1150	0	0	0
2019/01/04 01:03:00	BASE	0.79	226	3.14	278	-1.0	100	-1.0	12	32	983.7	NA	0.0000		9999	1120	0	0	0
2019/01/04 01:04:00	BASE	0.33	232	3.14	278	-1.1	100	-1.1	11	31	983.8	NA	0.0000		9999	1150	0	0	0
2019/01/04 01:05:00	BASE	0.00	265	3.14	278	-1.1	100	-1.1	11	30	983.8	NA	0.0000		9999	1120	0	0	0
2019/01/04 01:06:00	BASE	0.00	318	3.14	278	-1.2	100	-1.2	10	29	983.7	NA	0.0000		9999	1120	0	0	0
2019/01/04 01:07:00	BASE	0.00	134	3.14	278	-1.2	100	-1.2	10	29	983.7	NA	0.0000		9999	1150	0	0	0
2019/01/04 01:08:00	BASE	0.00	185	2.68	272	-1.2	100	-1.2	10	29	983.7	NA	0.0000		9999	1150	0	0	0
2019/01/04 01:09:00	BASE	0.00	192	2.42	236	-1.2	100	-1.2	10	29	983.7	NA	0.0000		9999	1150	0	0	0
2019/01/04 01:10:00	BASE	0.30	196	1.85	268	-1.2	100	-1.2	10	29	983.7	NA	0.0000		9999	1150	0	0	0
2019/01/04 01:11:00	BASE	1.10	211	1.75	211	-1.2	100	-1.2	10	29	983.7	NA	0.0000		9999	1150	0	0	0
2019/01/04 01:12:00	BASE	1.54	210	1.75	211	-1.2	100	-1.2	10	28	983.7	NA	0.0000		9999	1150	0	0	0
2019/01/04 01:13:00	BASE	1.48	208	1.95	230	-1.1	100	-1.1	10	28	983.7	NA	0.0000		9999	1150	0	0	0
2019/01/04 01:14:00	BASE	2.05	225	3.09	238	-1.2	100	-1.2	10	28	983.7	NA	0.0000		9999	1150	0	0	0
2019/01/04 01:15:00	BASE	2.50	242	3.09	238	-1.2	100	-1.2	10	28	983.7	NA	0.0000		9999	1150	0	0	0
2019/01/04 01:16:00	BASE	2.35	239	3.09	238	-1.2	100	-1.2	11	28	983.7	NA	0.0000		9999	1120	0	0	0
2019/01/04 01:17:00	BASE	1.80	232	3.09	238	-1.2	100	-1.2	12	29	983.7	NA	0.0000		9999	1120	0	0	0
2019/01/04 01:18:00	BASE	1.16	229	3.09	238	-1.3	100	-1.3	12	30	983.7	NA	0.0000		9999	1120	0	0	0
2019/01/04 01:19:00	BASE	1.38	221	3.09	238	-1.3	100	-1.3	13	31	983.7	NA	0.0000		9999	1080	0	0	0
2019/01/04 01:20:00	BASE	1.82	227	3.09	238	-1.3	100	-1.3	12	30	983.7	NA	0.0000		9999	1120	0	0	0
2019/01/04 01:21:00	BASE	1.74	233	3.09	238	-1.3	100	-1.3	12	29	983.7	NA	0.0000		9999	1120	0	0	0
2019/01/04 01:22:00	BASE	1.21	235	3.09	238	-1.3	100	-1.3	12	29	983.7	NA	0.0000		9999	1080	0	0	0
2019/01/04 01:23:00	BASE	0.51	244	3.09	238	-1.3	100	-1.3	11	28	983.7	NA	0.0000		9999	1080	0	0	0
2019/01/04 01:24:00	BASE	0.09	241	2.62	231	-1.3	100	-1.3	11	28	983.7	NA	0.0000		9999	1120	0	0	0
2019/01/04 01:25:00	BASE	0.00	139	2.62	231	-1.3	100	-1.3	11	28	983.7	NA	0.0000		9999	1120	0	0	0
2019/01/04 01:26:00	BASE	0.00	82	2.47	243	-1.3	100	-1.3	11	28	983.6	NA	0.0000		9999	1120	0	0	0
2019/01/04 01:27:00	BASE	0.00	64	2.47	243	-1.3	100	-1.3	12	28	983.6	NA	0.0000		9999	1080	0	0	0
2019/01/04 01:28:00	BASE	0.00	51	2.47	243	-1.3	100	-1.3	12	29	983.5	NA	0.0000		9999	1080	0	0	0
2019/01/04 01:29:00	BASE	0.00	66	2.47	243	-1.3	100	-1.3	13	29	983.5	NA	0.0000		9999	1120	0	0	0
2019/01/04 01:30:00	BASE	0.00	162	2.37	234	-1.3	100	-1.3	13	29	983.5	NA	0.0000		9999	1120	0	0	0
2019/01/04 01:31:00	BASE	0.00	173	1.39	234	-1.3	100	-1.3	13	29	983.5	NA	0.0000		9999	1120	0	0	0
2019/01/04 01:32:00	BASE	0.00	203	1.08	249	-1.2	100	-1.2	12	28	983.5	NA	0.0000		9999	1150	0	0	0
2019/01/04 01:33:00	BASE	0.04	273	1.03	268	-1.2	100	-1.2	12	28	983.5	NA	0.0000		9999	1150	0	0	0
2019/01/04 01:34:00	BASE	0.77	280	1.70	279	-1.2	100	-1.2	12	27	983.5	NA	0.0000		9999	1150	0	0	0
2019/01/04 01:35:00	BASE	0.77	277	1.70	279	-1.1	100	-1.1	11	27	983.5	NA	0.0000		9999	1150	0	0	0
2019/01/04 01:36:00	BASE	0.05	273	1.70	279	-1.2	100	-1.2	11	26	983.5	NA	0.0000		9999	1150	0	0	0
2019/01/04 01:37:00	BASE	0.00	277	1.70	279	-1.2	100	-1.2	11	25	983.5	NA	0.0000		9999	1150	0	0	0
2019/01/04 01:38:00	BASE	0.05	283	1.70	279	-1.2	100	-1.2	11	25	983.5	NA	0.0000		9999	1150	0	0	0
2019/01/04 01:39:00	BASE	0.28	273	1.70	279	-1.2	100	-1.2	10	24	983.5	NA	0.0000		9999	1120	0	0	0
2019/01/04 01:40:00	BASE	0.54	270	1.70	279	-1.3	100	-1.3	9	23	983.5	NA	0.0000		9999	1080	0	0	0
2019/01/04 01:41:00	BASE	0.92	271	1.70	279	-1.2	100	-1.2	9	22	983.5	NA	0.0000		9999	1050	0	0	0
2019/01/04 01:42:00	BASE	1.20	252	2.01	258	-1.2	100	-1.2	8	22	983.5	NA	0.0000		9999	1050	0	0	0
2019/01/04 01:43:00	BASE	0.58	215	2.01	258	-1.3	100	-1.3	8	21	983.5	NA	0.0000		9999	1050	0	0	0
2019/01/04 01:44:00	BASE	0.00	225	2.01	258	-1.3	100	-1.3	8	21	983.4	NA	0.0000		9999	1050	0	0	0
2019/01/04 01:45:00	BASE	0.00	278	2.01	258	-1.3	100	-1.3	8	21	983.4	NA	0.0000		9999	1020	0	0	0
2019/01/04 01:46:00	BASE	0.00	289	2.01	258	-1.3	100	-1.3	8	20	983.4	NA	0.0000		9999	1050	0	0	0
2019/01/04 01:47:00	BASE	0.00	312	2.01	258	-1.4	100	-1.4	8	20	983.4	NA	0.0000		9999	1080	0	0	0
2019/01/04 01:48:00	BASE	0.00	31	2.01	258	-1.3	100	-1.3	8	19	983.4	NA	0.0000		9999	1120	0	0	0
2019/01/04 01:49:00	BASE	0.00	6	2.01	258	-1.3	100	-1.3	8	19	983.4	NA	0.0000		9999	1120	0	0	0
2019/01/04 01:50:00	BASE	0.00	313	2.01	258	-1.3	100	-1.3	7	18	983.4	NA	0.0000		9999	1120	0	0	0
2019/01/04 01:51:00	BASE	0.00	280	2.01	258	-1.3	100	-1.3	7	18	983.4	NA	0.0000		9999	1120	0	0	0
2019/01/04 01:52:00	BASE	0.00	267	M	M	-1.3	100	-1.3	7	18	983.4	NA	0.0000		9999	1120	0	0	0
2019/01/04 01:53:00	BASE	0.00	272	M	M	-1.3	100	-1.3	7	17	983.3	NA	0.0000		9999	1150	0	0	0
2019/01/04 01:54:00	BASE	0.00	278	M	M	-1.3	100	-1.3	7	17	983.3	NA	0.0000		9999	1120	0	0	0
2019/01/04 01:55:00	BASE	0.00	271	M	M	-1.4	100	-1.4	7	17	983.3	NA	0.0000		9999	1120	0	0	0
2019/01/04 01:56:00	BASE	0.00	243	M	M	-1.4	100	-1.4	6	16	983.3	NA	0.0000		9999	1120	0	0	0
2019/01/04 01:57:00	BASE	0.00	221	M	M	-1.3	100	-1.3	6	16	983.3	NA	0.0000		9999	1150	0	0	0
2019/01/04 01:58:00	BASE	0.00	237	M	M	-1.3	100	-1.3	6	15	983.3	NA	0.0000		9999	1150	0	0	0
2019/01/04 01:59:00	BASE	0.00	279	M	M	-1.2	100	-1.2	6	15	983.3	NA	0.0000		9999	1150	0	0	0
2019/01/04 02:00:00	BASE	0.00	296	M	M	-1.2	100	-1.2	5	14	983.3	NA	0.0000		9999	1150	0	0	0
2019/01/04 02:01:00	BASE	0.00	283	M	M	-1.2	100	-1.2	5	14	983.3	NA	0.0000		9999	1150	0	0	0
2019/01/04 02:02:00	BASE	0.00	280	M	M	-1.3	100	-1.3	5	13	983.3	NA	0.0000		9999	1150	0	0	0
2019/01/04 02:03:00	BASE	0.00	290	M	M	-1.3	100	-1.3	5	13	983.3	NA	0.0000		9999	1150	0	0	0
2019/01/04 02:04:00	BASE	0.00	317	M	M	-1.3	100	-1.3	5	13	983.2	NA	0.0000		9999	1120	0	0	0
2019/01/04 02:05:00	BASE	0.00	339	M	M	-1.2	100	-1.2	4	13	983.2	NA	0.0000		9999	1120	0	0	0
2019/01/04 02:06:00	BASE	0.00	321	M	M	-1.2	100	-1.2	4	12	983.2	NA	0.0000		9999	1120	0	0	0
2019/01/04 02:07:00	BASE	0.34	2	1.39	69	-1.2	100	-1.2	4	12	983.2	NA	0.0000		9999	1120	0	0	0
2019/01/04 02:08:00	BASE	1.00	69	1.49	41	-1.1	100	-1.1	4	12	983.2	NA	0.0000		9999	1120	0	0	0
2019/01/04 02:09:00	BASE	1.14	37	1.49	24	-1.2	100	-1.2	4	11	983.2	NA	0.0000		9999	1120	0	0	0
2019/01/04 02:10:00	BASE	1.02	24	1.54	24	-1.2	100	-1.2	3	11	983.2	NA	0.0000		9999	1120	0	0	0
2019/01/04 02:11:00	BASE	1.09	22	1.54	24	-1.2	100	-1.2	3	10	983.2	NA	0.0000		9999	1150	0	0	0
2019/01/04 02:12:00	BASE	1.01	18	1.54	24	-1.2	100	-1.2	3	10	983.2	NA	0.0000		9999	1120	0	0	0
2019/01/04 02:13:00	BASE	0.46	15	1.54	24	-1.2	100	-1.2	3	10	983.2	NA	0.0000		9999	1120	0	0	0
2019/01/04 02:14:00	BASE	0.04	1	1.54	24	-1.2	100	-1.2	3	10	983.1	NA	0.0000		9999	1120	0	0	0
2019/01/04 02:15:00	BASE	0.14	5	1.54	24	-1.2	100	-1.2	3	10	983.1	NA	0.0000		9999	1120	0	0	0
2019/01/04 02:16:00	BASE	0.68	56	1.95	83	-1.2	100	-1.2	3	10	983.1	NA	0.0000		9999	1120	0	0	0
2019/01/04 02:17:00	BASE	1.00	76	1.95	83	-1.2	100	-1.2	3	9	983.1	NA	0.0000		9999	1120	0	0	0
2019/01/04 02:18:00	BASE	1.16	65	1.95	83	-1.2	100	-1.2	3	9	983.1	NA	0.0000		9999	1120	0	0	0
2019/01/04 02:19:00	BASE	1.36	55	1.95	83	-1.2	100	-1.2	3	9	983.1	NA	0.0000		9999	1120	0	0	0
2019/01/04 02:20:00	BASE	1.40	45	1.95	83	-1.2	100	-1.2	3	9	983.1	NA	0.0000		9999	1120	0	0	0
2019/01/04 02:21:00	BASE	1.33	32	1.95	83	-1.2	100	-1.2	3	8	983.1	NA	0.0000		9999	1120	0	0	0
2019/01/04 02:22:00	BASE	1.35	22	2.11	18	-1.2	100	-1.2	3	8	983.0	NA	0.0000		9999	1120	0	0	0
2019/01/04 02:23:00	BASE	1.52	22	2.11	18	-1.2	100	-1.2	3	8	982.9	NA	0.0000		9999	1120	0	0	0
2019/01/04 02:24:00	BASE	1.08	35	2.11	18	-1.2	100	-1.2	3	8	982.9	NA	0.0000		9999	1120	0	0	0
2019/01/04 02:25:00	BASE	1.12	42	2.11	18	-1.1	100	-1.1	3	7	982.9	NA	0.0000		9999	1120	0	0	0
2019/01/04 02:26:00	BASE	1.66	45	2.11	18	-1.1	100	-1.1	3	7	982.9	NA	0.0000		9999	1120	0	0	0
2019/01/04 02:27:00	BASE	1.67	44	2.11	18	-1.1	100	-1.1	2	7	982.9	NA	0.0000		9999	1120	0	0	0
2019/01/04 02:28:00	BASE	1.46	35	2.11	18	-1.1	100	-1.1	2	7	982.9	NA	0.0000		9999	1120	0	0	0
2019/01/04 02:29:00	BASE	1.39	31	2.11	18	-1.2	100	-1.2	2	6	982.9	NA	0.0000		9999	1120	0	0	0
2019/01/04 02:30:00	BASE	1.30	40	2.11	18	-1.2	100	-1.2	2	6	982.9	NA	0.0000		9999	1120	0	0	0
2019/01/04 02:31:00	BASE	1.56	44	2.31	43	-1.2	100	-1.2	2	6	982.9	NA	0.0000		9999	1120	0	0	0
2019/01/04 02:32:00	BASE	1.93	40	2.31	43	-1.2	100	-1.2	2	6	982.9	NA	0.0000		9999	1120	0	0	0
2019/01/04 02:33:00	BASE	1.92	39	2.31	43	-1.2	100	-1.2	2	6	982.9	NA	0.0000		9999	1120	0	0	0
2019/01/04 02:34:00	BASE	1.92	41	2.31	43	-1.2	100	-1.2	2	6	982.9	NA	0.0000		9999	1120	0	0	0
2019/01/04 02:35:00	BASE	1.90	38	2.31	43	-1.2	100	-1.2	2	5	982.9	NA	0.0000		9999	1080	0	0	0
2019/01/04 02:36:00	BASE	1.75	33	2.31	43	-1.2	100	-1.3	2	5	982.9	NA	0.0000		9999	1080	0	0	0
2019/01/04 02:37:00	BASE	1.47	31	2.31	43	-1.2	99	-1.3	2	5	982.9	NA	0.0000		9999	1120	0	0	0
2019/01/04 02:38:00	BASE	1.46	19	2.31	43	-1.3	99	-1.3	2	5	982.9	NA	0.0000		9999	1120	0	0	0
2019/01/04 02:39:00	BASE	1.50	4	2.31	43	-1.2	100	-1.3	2	5	982.9	NA	0.0000		9999	1120	0	0	0
2019/01/04 02:40:00	BASE	1.30	4	2.31	43	-1.3	100	-1.3	2	5	982.9	NA	0.0000		9999	1120	0	0	0
2019/01/04 02:41:00	BASE	0.78	5	2.26	49	-1.3	100	-1.4	2	5	982.9	NA	0.0000		9999	1150	0	0	0
2019/01/04 02:42:00	BASE	0.17	3	2.26	49	-1.3	100	-1.3	2	5	982.9	NA	0.0000		9999	1150	0	0	0
2019/01/04 02:43:00	BASE	0.00	8	2.26	49	-1.3	100	-1.3	2	5	982.9	NA	0.0000		9999	1150	0	0	0
2019/01/04 02:44:00	BASE	0.34	5	2.21	36	-1.3	100	-1.3	2	5	982.9	NA	0.0000		9999	1150	0	0	0
2019/01/04 02:45:00	BASE	0.93	12	1.85	355	-1.3	100	-1.3	2	5	982.8	NA	0.0000		9999	1120	0	0	0
2019/01/04 02:46:00	BASE	1.25	38	2.06	41	-1.2	100	-1.2	2	5	982.8	NA	0.0000		9999	1080	0	0	0
2019/01/04 02:47:00	BASE	1.35	39	2.06	41	-1.2	100	-1.2	1	4	982.8	NA	0.0000		9999	1120	0	0	0
2019/01/04 02:48:00	BASE	1.31	34	2.06	41	-1.2	100	-1.2	1	4	982.8	NA	0.0000		9999	1080	0	0	0
2019/01/04 02:49:00	BASE	1.32	36	2.06	41	-1.2	100	-1.2	1	4	982.8	NA	0.0000		9999	1120	0	0	0
2019/01/04 02:50:00	BASE	1.32	28	2.06	41	-1.3	100	-1.3	1	4	982.8	NA	0.0000		9999	1120	0	0	0
2019/01/04 02:51:00	BASE	0.94	22	2.06	41	-1.3	100	-1.3	1	4	982.7	NA	0.0000		9999	1120	0	0	0
2019/01/04 02:52:00	BASE	0.60	27	2.06	41	-1.3	100	-1.3	1	4	982.8	NA	0.0000		9999	1120	0	0	0
2019/01/04 02:53:00	BASE	0.99	27	2.06	41	-1.3	100	-1.3	1	4	982.7	NA	0.0000		9999	1150	0	0	0
2019/01/04 02:54:00	BASE	1.34	20	2.06	41	-1.3	100	-1.3	1	4	982.7	NA	0.0000		9999	1150	0	0	0
2019/01/04 02:55:00	BASE	1.29	13	2.06	41	-1.3	100	-1.3	1	4	982.7	NA	0.0000		9999	1150	0	0	0
2019/01/04 02:56:00	BASE	1.17	13	1.70	7	-1.3	100	-1.3	1	4	982.7	NA	0.0000		9999	1150	0	0	0
2019/01/04 02:57:00	BASE	1.19	10	1.75	13	-1.3	100	-1.3	1	4	982.7	NA	0.0000		9999	1120	0	0	0
2019/01/04 02:58:00	BASE	1.03	10	1.75	13	-1.3	100	-1.3	1	4	982.7	NA	0.0000		9999	1120	0	0	0
2019/01/04 02:59:00	BASE	1.10	14	1.75	13	-1.4	100	-1.4	1	4	982.7	NA	0.0000		9999	1120	0	0	0
2019/01/04 03:00:00	BASE	1.40	14	1.75	13	-1.4	100	-1.4	1	4	982.7	NA	0.0000		9999	1120	0	0	0
2019/01/04 03:01:00	BASE	1.52	9	1.85	6	-1.4	100	-1.4	1	3	982.7	NA	0.0000		9999	1120	0	0	0
2019/01/04 03:02:00	BASE	1.81	18	2.37	32	-1.4	100	-1.4	1	3	982.6	NA	0.0000		9999	1120	0	0	0
2019/01/04 03:03:00	BASE	1.66	37	2.37	32	-1.3	100	-1.3	1	3	982.6	NA	0.0000		9999	1120	0	0	0
2019/01/04 03:04:00	BASE	1.28	43	2.37	32	-1.3	100	-1.3	1	3	982.6	NA	0.0000		9999	1120	0	0	0
2019/01/04 03:05:00	BASE	1.48	41	2.37	32	-1.3	100	-1.3	1	3	982.6	NA	0.0000		9999	1120	0	0	0
2019/01/04 03:06:00	BASE	1.83	37	2.37	32	-1.3	100	-1.3	1	3	982.6	NA	0.0000		9999	1150	0	0	0
2019/01/04 03:07:00	BASE	1.72	36	2.37	32	-1.3	100	-1.3	1	3	982.6	NA	0.0000		9999	1150	0	0	0
2019/01/04 03:08:00	BASE	1.31	37	2.37	32	-1.4	100	-1.4	1	3	982.6	NA	0.0000		9999	1150	0	0	0
2019/01/04 03:09:00	BASE	1.57	29	2.52	30	-1.4	100	-1.4	1	3	982.6	NA	0.0000		9999	1150	0	0	0
2019/01/04 03:10:00	BASE	1.98	25	2.52	30	-1.4	100	-1.4	1	3	982.6	NA	0.0000		9999	1120	0	0	0
2019/01/04 03:11:00	BASE	1.85	27	2.52	30	-1.4	100	-1.4	1	3	982.6	NA	0.0000		9999	1150	0	0	0
2019/01/04 03:12:00	BASE	1.68	27	2.52	30	-1.4	100	-1.4	1	3	982.5	NA	0.0000		9999	1150	0	0	0
2019/01/04 03:13:00	BASE	1.59	35	2.52	30	-1.4	100	-1.4	1	3	982.4	NA	0.0000		9999	1150	0	0	0
2019/01/04 03:14:00	BASE	1.80	36	2.52	30	-1.4	100	-1.4	1	3	982.4	NA	0.0000		9999	1150	0	0	0
2019/01/04 03:15:00	BASE	2.24	27	2.78	27	-1.4	100	-1.4	1	3	982.4	NA	0.0000		9999	1150	0	0	0
2019/01/04 03:16:00	BASE	2.52	26	2.83	26	-1.4	100	-1.4	1	2	982.4	NA	0.0000		9999	1150	0	0	0
2019/01/04 03:17:00	BASE	2.45	26	2.83	26	-1.4	100	-1.4	1	2	982.4	NA	0.0000		9999	1150	0	0	0
2019/01/04 03:18:00	BASE	2.42	30	2.83	26	-1.3	100	-1.3	1	2	982.4	NA	0.0000		9999	1120	0	0	0
2019/01/04 03:19:00	BASE	2.42	32	2.83	26	-1.4	100	-1.4	1	2	982.3	NA	0.0000		9999	1120	0	0	0
2019/01/04 03:20:00	BASE	2.08	29	2.83	26	-1.4	100	-1.4	1	2	982.3	NA	0.0000		9999	1150	0	0	0
2019/01/04 03:21:00	BASE	1.93	26	2.83	26	-1.4	100	-1.4	1	2	982.3	NA	0.0000		9999	1120	0	0	0
2019/01/04 03:22:00	BASE	2.09	26	2.83	26	-1.4	100	-1.5	1	2	982.3	NA	0.0000		9999	1150	0	0	0
2019/01/04 03:23:00	BASE	2.01	27	2.83	26	-1.5	99	-1.5	1	2	982.3	NA	0.0000		9999	1150	0	0	0
2019/01/04 03:24:00	BASE	1.92	27	2.83	26	-1.5	99	-1.6	1	2	982.3	NA	0.0000		9999	1150	0	0	0
2019/01/04 03:25:00	BASE	1.73	28	2.83	26	-1.5	99	-1.6	1	2	982.3	NA	0.0000		9999	1150	0	0	0
2019/01/04 03:26:00	BASE	1.62	30	2.68	40	-1.5	99	-1.6	1	2	982.3	NA	0.0000		9999	1150	0	0	0
2019/01/04 03:27:00	BASE	1.66	29	2.68	40	-1.5	99	-1.6	1	2	982.3	NA	0.0000		9999	1150	0	0	0
2019/01/04 03:28:00	BASE	1.57	27	2.62	29	-1.5	99	-1.6	1	2	982.3	NA	0.0000		9999	1150	0	0	0
2019/01/04 03:29:00	BASE	1.51	32	2.47	32	-1.5	100	-1.5	1	2	982.3	NA	0.0000		9999	1150	0	0	0
2019/01/04 03:30:00	BASE	1.36	35	2.47	32	-1.5	100	-1.5	1	2	982.3	NA	0.0000		9999	1150	0	0	0
2019/01/04 03:31:00	BASE	1.52	38	2.47	32	-1.4	100	-1.4	1	2	982.3	NA	0.0000		9999	1150	0	0	0
2019/01/04 03:32:00	BASE	1.52	43	2.37	30	-1.4	100	-1.4	1	2	982.3	NA	0.0000		9999	1120	0	0	0
2019/01/04 03:33:00	BASE	1.26	41	2.26	26	-1.4	100	-1.4	1	2	982.3	NA	0.0000		9999	1120	0	0	0
2019/01/04 03:34:00	BASE	1.38	37	2.11	44	-1.4	100	-1.5	1	2	982.3	NA	0.0000		9999	1150	0	0	0
2019/01/04 03:35:00	BASE	1.45	30	2.11	44	-1.4	100	-1.5	1	2	982.3	NA	0.0000		9999	1150	0	0	0
2019/01/04 03:36:00	BASE	1.48	30	2.11	44	-1.5	100	-1.5	1	2	982.3	NA	0.0000		9999	1150	0	0	0
2019/01/04 03:37:00	BASE	2.07	39	2.98	50	-1.4	100	-1.5	1	2	982.2	NA	0.0000		9999	1150	0	0	0
2019/01/04 03:38:00	BASE	2.70	48	3.09	55	-1.4	100	-1.4	1	2	982.2	NA	0.0000		9999	1150	0	0	0
2019/01/04 03:39:00	BASE	2.96	49	3.45	51	-1.4	100	-1.4	1	2	982.2	NA	0.0000		9999	1150	0	0	0
2019/01/04 03:40:00	BASE	3.23	47	3.60	49	-1.5	100	-1.5	1	2	982.2	NA	0.0000		9999	1150	0	0	0
2019/01/04 03:41:00	BASE	3.43	50	3.86	58	-1.5	100	-1.6	1	2	982.2	NA	0.0000		9999	1150	0	0	0
2019/01/04 03:42:00	BASE	3.59	53	3.91	60	-1.6	99	-1.6	1	2	982.1	NA	0.0000		9999	1150	0	0	0
2019/01/04 03:43:00	BASE	3.69	54	3.91	60	-1.6	99	-1.7	1	2	982.2	NA	0.0000		9999	1150	0	0	0
2019/01/04 03:44:00	BASE	3.68	54	3.91	53	-1.6	99	-1.8	1	2	982.2	NA	0.0000		9999	1180	0	0	0
2019/01/04 03:45:00	BASE	3.43	52	3.91	53	-1.7	99	-1.7	1	2	982.1	NA	0.0000		9999	1210	0	0	0
2019/01/04 03:46:00	BASE	3.29	50	3.91	53	-1.7	99	-1.8	1	2	982.1	NA	0.0000		9999	1180	0	0	0
2019/01/04 03:47:00	BASE	3.48	47	4.01	45	-1.7	99	-1.8	1	2	982.1	NA	0.0000		9999	1180	0	0	0
2019/01/04 03:48:00	BASE	3.42	46	4.01	45	-1.7	99	-1.8	1	2	982.1	NA	0.0000		9999	1210	0	0	0
2019/01/04 03:49:00	BASE	3.45	44	4.12	44	-1.7	99	-1.8	1	2	982.1	NA	0.0000		9999	1210	0	0	0
2019/01/04 03:50:00	BASE	3.43	43	4.12	44	-1.7	99	-1.9	1	2	982.1	NA	0.0000		9999	1180	0	0	0
2019/01/04 03:51:00	BASE	3.27	43	4.12	44	-1.8	99	-1.9	1	2	982.0	NA	0.0000		9999	1180	0	0	0
2019/01/04 03:52:00	BASE	3.45	44	4.53	42	-1.8	99	-1.9	1	2	982.0	NA	0.0000		9999	1180	0	0	0
2019/01/04 03:53:00	BASE	3.87	45	5.09	47	-1.8	100	-1.8	1	2	982.0	NA	0.0000		9999	1180	0	0	0
2019/01/04 03:54:00	BASE	4.47	47	5.35	47	-1.8	100	-1.8	1	2	982.0	NA	0.0000		9999	1180	0	0	0
2019/01/04 03:55:00	BASE	4.78	48	5.35	47	-1.9	100	-1.9	1	2	982.0	NA	0.0000		9999	1180	0	0	0
2019/01/04 03:56:00	BASE	4.74	43	5.35	47	-2.0	100	-2.0	1	2	981.9	NA	0.0000		9999	1180	0	0	0
2019/01/04 03:57:00	BASE	4.56	41	5.35	47	-2.1	99	-2.2	1	2	981.8	NA	0.0000		9999	1210	0	0	0
2019/01/04 03:58:00	BASE	4.33	43	5.35	47	-2.2	99	-2.3	1	2	981.8	NA	0.0000		9999	1210	0	0	0
2019/01/04 03:59:00	BASE	4.00	50	5.35	47	-2.3	99	-2.4	1	2	981.8	NA	0.0000		9999	1180	0	0	0
2019/01/04 04:00:00	BASE	3.80	54	5.35	47	-2.3	99	-2.4	1	2	981.8	NA	0.0000		9999	1210	0	0	0
2019/01/04 04:01:00	BASE	3.98	47	5.35	47	-2.2	99	-2.4	1	2	981.8	NA	0.0000		9999	1210	0	0	0
2019/01/04 04:02:00	BASE	3.84	45	5.35	47	-2.3	99	-2.4	1	2	981.8	NA	0.0000		9999	1150	0	0	0
2019/01/04 04:03:00	BASE	3.66	53	5.35	47	-2.3	99	-2.4	1	2	981.7	NA	0.0000		9999	1150	0	0	0
2019/01/04 04:04:00	BASE	3.69	58	5.35	47	-2.3	99	-2.4	1	2	981.7	NA	0.0000		9999	1150	0	0	0
2019/01/04 04:05:00	BASE	3.62	55	5.04	37	-2.3	99	-2.4	1	3	981.7	NA	0.0000		9999	1120	0	0	0
2019/01/04 04:06:00	BASE	3.44	56	4.89	43	-2.3	99	-2.5	2	3	981.7	NA	0.0000		9999	0	0	0	0
2019/01/04 04:07:00	BASE	3.31	62	4.63	37	-2.3	99	-2.5	2	3	981.8	NA	0.0000		9999	0	0	0	0
2019/01/04 04:08:00	BASE	3.34	68	4.37	48	-2.4	99	-2.6	2	3	981.8	NA	0.0000		9999	0	0	0	0
2019/01/04 04:09:00	BASE	3.67	69	4.73	66	-2.4	99	-2.6	2	3	981.7	NA	0.0000		9999	0	0	0	0
2019/01/04 04:10:00	BASE	4.03	69	4.73	66	-2.5	99	-2.6	2	3	981.7	NA	0.0000		9999	1210	0	0	0
2019/01/04 04:11:00	BASE	4.18	67	4.73	66	-2.5	99	-2.7	2	3	981.7	NA	0.0000		9999	1180	0	0	0
2019/01/04 04:12:00	BASE	4.11	65	4.73	66	-2.5	99	-2.6	2	3	981.7	NA	0.0000		9999	1250	0	0	0
2019/01/04 04:13:00	BASE	4.15	65	4.73	66	-2.4	99	-2.5	2	3	981.7	NA	0.0000		9999	1310	0	0	0
2019/01/04 04:14:00	BASE	4.15	67	4.73	66	-2.4	100	-2.4	2	3	981.7	NA	0.0000		9999	0	0	0	0
2019/01/04 04:15:00	BASE	3.79	70	4.73	66	-2.4	100	-2.4	2	3	981.6	NA	0.0000		9999	0	0	0	0
2019/01/04 04:16:00	BASE	3.47	71	4.73	66	-2.4	100	-2.4	2	3	981.6	NA	0.0000		9999	0	0	0	0
2019/01/04 04:17:00	BASE	3.13	68	4.73	66	-2.4	100	-2.4	2	3	981.6	NA	0.0000		9999	0	0	0	0
2019/01/04 04:18:00	BASE	3.20	66	4.73	66	-2.4	100	-2.4	2	3	981.6	NA	0.0000		9999	0	0	0	0
2019/01/04 04:19:00	BASE	3.42	66	4.63	64	-2.4	100	-2.4	2	3	981.6	NA	0.0000		9999	0	0	0	0
2019/01/04 04:20:00	BASE	3.42	68	4.53	69	-2.4	100	-2.4	2	3	981.6	NA	0.0000		9999	1640	0	0	0
2019/01/04 04:21:00	BASE	3.26	67	4.48	65	-2.4	100	-2.4	2	3	981.5	NA	0.0000		9999	1640	0	0	0
2019/01/04 04:22:00	BASE	3.29	66	4.48	65	-2.4	100	-2.4	2	3	981.5	NA	0.0000		9999	0	0	0	0
2019/01/04 04:23:00	BASE	3.51	65	4.17	68	-2.4	100	-2.4	2	3	981.5	NA	0.0000		9999	0	0	0	0
2019/01/04 04:24:00	BASE	3.30	63	4.12	65	-2.4	100	-2.4	2	3	981.5	NA	0.0000		9999	0	0	0	0
2019/01/04 04:25:00	BASE	3.05	63	4.06	67	-2.4	100	-2.4	2	3	981.4	NA	0.0000		9999	0	0	0	0
2019/01/04 04:26:00	BASE	2.82	64	4.06	67	-2.4	100	-2.4	2	3	981.4	NA	0.0000		9999	0	0	0	0
2019/01/04 04:27:00	BASE	2.63	65	4.06	67	-2.5	100	-2.5	2	3	981.4	NA	0.0000		9999	0	0	0	0
2019/01/04 04:28:00	BASE	2.76	69	3.91	61	-2.5	100	-2.5	2	3	981.4	NA	0.0000		9999	0	0	0	0
2019/01/04 04:29:00	BASE	2.93	76	3.91	61	-2.5	100	-2.5	2	3	981.3	NA	0.0000		9999	0	0	0	0
2019/01/04 04:30:00	BASE	2.75	75	3.91	61	-2.6	100	-2.6	2	3	981.2	NA	0.0000		9999	0	0	0	0
2019/01/04 04:31:00	BASE	2.48	73	3.91	61	-2.7	100	-2.7	2	3	981.2	NA	0.0000		9999	0	0	0	0
2019/01/04 04:32:00	BASE	2.52	75	3.91	61	-2.8	100	-2.8	2	3	981.2	NA	0.0000		9999	0	0	0	0
2019/01/04 04:33:00	BASE	2.94	72	3.76	74	-3.0	100	-3.0	2	3	981.2	NA	0.0000		9999	0	0	0	0
2019/01/04 04:34:00	BASE	3.51	69	4.37	69	-3.0	100	-3.0	2	3	981.2	NA	0.0000		9999	0	0	0	0
2019/01/04 04:35:00	BASE	3.68	71	4.37	69	-3.1	100	-3.1	2	3	981.2	NA	0.0000		9999	0	0	0	0
2019/01/04 04:36:00	BASE	3.63	70	4.37	69	-3.1	100	-3.1	2	3	981.2	NA	0.0000		9999	0	0	0	0
2019/01/04 04:37:00	BASE	4.00	69	4.58	74	-3.2	100	-3.2	2	3	981.1	NA	0.0000		9999	0	0	0	0
2019/01/04 04:38:00	BASE	4.29	73	4.58	74	-3.2	100	-3.2	2	3	981.1	NA	0.0000		9999	0	0	0	0
2019/01/04 04:39:00	BASE	4.37	77	4.63	79	-3.1	100	-3.1	2	3	981.1	NA	0.0000		9999	0	0	0	0
2019/01/04 04:40:00	BASE	4.38	82	4.63	79	-3.1	100	-3.1	2	3	981.0	NA	0.0000		9999	0	0	0	0
2019/01/04 04:41:00	BASE	4.18	84	4.63	79	-3.1	100	-3.1	2	3	981.0	NA	0.0000		9999	0	0	0	0
2019/01/04 04:42:00	BASE	4.12	82	4.63	79	-3.0	100	-3.0	2	4	981.0	NA	0.0000		9999	0	0	0	0
2019/01/04 04:43:00	BASE	4.15	79	4.63	79	-3.0	100	-3.0	2	4	981.0	NA	0.0000		9999	0	0	0	0
2019/01/04 04:44:00	BASE	4.20	77	4.73	76	-3.0	100	-3.0	2	4	981.0	NA	0.0000		9999	0	0	0	0
2019/01/04 04:45:00	BASE	4.43	76	4.84	76	-3.0	100	-3.0	2	4	981.0	NA	0.0000		9999	0	0	0	0
2019/01/04 04:46:00	BASE	4.59	77	4.84	76	-3.1	100	-3.1	2	4	981.0	NA	0.0000		9999	0	0	0	0
2019/01/04 04:47:00	BASE	4.37	78	4.84	76	-3.2	100	-3.2	2	4	981.0	NA	0.0000		9999	0	0	0	0
2019/01/04 04:48:00	BASE	4.01	78	4.84	76	-3.2	100	-3.2	3	4	981.0	NA	0.0000		9999	0	0	0	0
2019/01/04 04:49:00	BASE	3.77	77	4.84	76	-3.2	100	-3.2	3	4	981.0	NA	0.0000		9999	0	0	0	0
2019/01/04 04:50:00	BASE	3.70	79	4.84	76	-3.1	100	-3.1	3	4	981.0	NA	0.0000		9999	0	0	0	0
2019/01/04 04:51:00	BASE	3.68	82	4.84	76	-3.1	100	-3.1	3	4	981.0	NA	0.0000		9999	0	0	0	0
2019/01/04 04:52:00	BASE	3.61	85	4.84	76	-3.1	100	-3.1	3	4	981.0	NA	0.0000		9999	0	0	0	0
2019/01/04 04:53:00	BASE	3.47	88	4.84	76	-3.0	100	-3.0	3	4	981.0	NA	0.0000		9999	0	0	0	0
2019/01/04 04:54:00	BASE	3.29	87	4.84	76	-3.0	100	-3.0	3	4	981.0	NA	0.0000		9999	0	0	0	0
2019/01/04 04:55:00	BASE	3.26	83	4.68	74	-3.0	100	-3.0	3	4	981.0	NA	0.0000		9999	0	0	0	0
2019/01/04 04:56:00	BASE	3.35	77	4.32	77	-2.9	100	-2.9	3	4	981.0	NA	0.0000		9999	0	0	0	0
2019/01/04 04:57:00	BASE	3.33	75	4.22	76	-2.9	100	-2.9	3	5	981.0	NA	0.0000		9999	0	0	0	0
2019/01/04 04:58:00	BASE	3.05	71	3.86	80	-2.9	100	-2.9	3	5	981.0	NA	0.0000		9999	0	0	0	0
2019/01/04 04:59:00	BASE	2.81	66	3.86	80	-2.9	100	-2.9	4	5	981.0	NA	0.0000		9999	0	0	0	0
2019/01/04 05:00:00	BASE	2.84	66	3.81	78	-2.9	100	-2.9	4	5	980.9	NA	0.0000		9999	0	0	0	0
2019/01/04 05:01:00	BASE	2.88	68	3.70	88	-2.9	100	-2.9	4	5	980.9	NA	0.0000		9999	0	0	0	0
2019/01/04 05:02:00	BASE	3.05	73	3.55	77	-2.9	100	-2.9	4	5	980.9	NA	0.0000		9999	0	0	0	0
2019/01/04 05:03:00	BASE	3.40	78	3.65	79	-2.9	100	-2.9	4	5	980.9	NA	0.0000		9999	0	0	0	0
2019/01/04 05:04:00	BASE	3.49	80	3.76	82	-2.8	100	-2.8	4	5	980.8	NA	0.0000		9999	0	0	0	0
2019/01/04 05:05:00	BASE	3.40	83	3.76	82	-2.8	100	-2.8	4	5	980.8	NA	0.0000		9999	0	0	0	0
2019/01/04 05:06:00	BASE	3.27	84	3.76	82	-2.8	100	-2.8	4	6	980.8	NA	0.0000		9999	0	0	0	0
2019/01/04 05:07:00	BASE	3.07	82	3.76	82	-2.8	100	-2.8	5	6	980.8	NA	0.0000		9999	0	0	0	0
2019/01/04 05:08:00	BASE	2.98	81	3.76	82	-2.8	100	-2.8	5	6	980.8	NA	0.0000		9999	0	0	0	0
2019/01/04 05:09:00	BASE	2.98	78	3.76	82	-2.8	100	-2.8	5	6	980.8	NA	0.0000		9999	0	0	0	0
2019/01/04 05:10:00	BASE	2.93	81	3.76	82	-2.7	100	-2.8	5	6	980.8	NA	0.0000		9999	0	0	0	0
2019/01/04 05:11:00	BASE	2.84	84	3.76	82	-2.7	99	-2.8	5	6	980.8	NA	0.0000		9999	0	0	0	0
2019/01/04 05:12:00	BASE	2.73	84	3.76	82	-2.7	99	-2.8	5	6	980.8	NA	0.0000		9999	0	0	0	0
2019/01/04 05:13:00	BASE	2.53	88	3.76	82	-2.7	99	-2.8	5	7	980.8	NA	0.0000		9999	0	0	0	0
2019/01/04 05:14:00	BASE	2.38	89	3.45	81	-2.7	99	-2.8	6	7	980.7	NA	0.0000		9999	0	0	0	0
2019/01/04 05:15:00	BASE	2.33	86	3.40	89	-2.7	99	-2.8	6	7	980.7	NA	0.0000		9999	0	0	0	0
2019/01/04 05:16:00	BASE	2.04	85	3.29	85	-2.6	99	-2.8	6	7	980.7	NA	0.0000		9999	0	0	0	0
2019/01/04 05:17:00	BASE	1.88	83	3.29	85	-2.6	99	-2.8	6	7	980.7	NA	0.0000		9999	0	0	0	0
2019/01/04 05:18:00	BASE	1.97	80	3.29	85	-2.6	99	-2.7	6	7	980.7	NA	0.0000		9999	0	0	0	0
2019/01/04 05:19:00	BASE	1.96	79	3.29	85	-2.6	99	-2.7	6	7	980.7	NA	0.0000		9999	0	0	0	0
2019/01/04 05:20:00	BASE	1.88	77	3.09	71	-2.5	99	-2.7	6	7	980.7	NA	0.0000		9999	0	0	0	0
2019/01/04 05:21:00	BASE	1.90	75	2.98	81	-2.5	99	-2.6	6	8	980.7	NA	0.0000		9999	0	0	0	0
2019/01/04 05:22:00	BASE	1.91	66	2.68	88	-2.4	99	-2.6	6	8	980.7	NA	0.0000		9999	0	0	0	0
2019/01/04 05:23:00	BASE	1.91	58	2.52	82	-2.4	99	-2.5	6	8	980.7	NA	0.0000		9999	0	0	0	0
2019/01/04 05:24:00	BASE	1.91	49	2.52	82	-2.3	99	-2.5	6	8	980.7	NA	0.0000		9999	0	0	0	0
2019/01/04 05:25:00	BASE	1.71	34	2.21	45	-2.3	99	-2.4	6	8	980.7	NA	0.0000		9999	0	0	0	0
2019/01/04 05:26:00	BASE	1.61	26	2.21	45	-2.3	99	-2.4	6	8	980.6	NA	0.0000		9999	0	0	0	0
2019/01/04 05:27:00	BASE	1.26	30	2.21	45	-2.2	99	-2.4	6	8	980.7	NA	0.0000		9999	0	0	0	0
2019/01/04 05:28:00	BASE	0.87	35	2.21	45	-2.2	99	-2.4	6	9	980.7	NA	0.0000		9999	0	0	0	0
2019/01/04 05:29:00	BASE	0.66	34	2.21	45	-2.1	98	-2.4	6	9	980.7	NA	0.0000		9999	0	0	0	0
2019/01/04 05:30:00	BASE	0.45	34	2.21	45	-2.1	98	-2.3	6	9	980.7	NA	0.0000		9999	0	0	0	0
2019/01/04 05:31:00	BASE	0.87	18	2.21	45	-2.1	98	-2.4	6	9	980.7	NA	0.0000		9999	0	0	0	0
2019/01/04 05:32:00	BASE	1.58	8	2.21	45	-2.1	98	-2.3	6	9	980.6	NA	0.0000		9999	0	0	0	0
2019/01/04 05:33:00	BASE	1.65	15	2.21	45	-2.1	98	-2.4	6	9	980.6	NA	0.0000		9999	0	0	0	0
2019/01/04 05:34:00	BASE	1.48	21	2.06	10	-2.1	97	-2.4	6	9	980.6	NA	0.0000		9999	0	0	0	0
2019/01/04 05:35:00	BASE	1.72	15	2.21	6	-2.1	97	-2.5	6	9	980.6	NA	0.0000		9999	0	0	0	0
2019/01/04 05:36:00	BASE	1.76	8	2.21	6	-2.1	96	-2.6	6	10	980.6	NA	0.0000		9999	0	0	0	0
2019/01/04 05:37:00	BASE	1.55	3	2.21	6	-2.1	96	-2.7	5	10	980.6	NA	0.0000		9999	0	0	0	0
2019/01/04 05:38:00	BASE	1.48	354	2.21	6	-2.1	95	-2.7	5	10	980.6	NA	0.0000		9999	0	0	0	0
2019/01/04 05:39:00	BASE	1.59	354	2.31	4	-2.1	95	-2.8	5	10	980.6	NA	0.0000		9999	0	0	0	0
2019/01/04 05:40:00	BASE	1.71	2	2.31	4	-2.2	95	-2.9	5	10	980.5	NA	0.0000		9999	0	0	0	0
2019/01/04 05:41:00	BASE	1.55	9	2.31	4	-2.2	95	-2.9	5	10	980.5	NA	0.0000		9999	0	0	0	0
2019/01/04 05:42:00	BASE	1.05	8	2.31	4	-2.2	95	-2.9	5	10	980.6	NA	0.0000		9999	0	0	0	0
2019/01/04 05:43:00	BASE	0.95	5	2.31	4	-2.1	95	-2.9	5	10	980.6	NA	0.0000		9999	0	0	0	0
2019/01/04 05:44:00	BASE	1.11	6	2.31	4	-2.1	95	-2.9	5	10	980.6	NA	0.0000		9999	0	0	0	0
2019/01/04 05:45:00	BASE	1.20	355	2.31	4	-2.1	95	-2.9	4	10	980.6	NA	0.0000		9999	0	0	0	0
2019/01/04 05:46:00	BASE	1.37	335	2.31	4	-2.2	95	-2.9	4	10	980.5	NA	0.0000		9999	0	0	0	0
2019/01/04 05:47:00	BASE	1.13	326	2.31	4	-2.2	94	-2.9	4	11	980.5	NA	0.0000		9999	0	0	0	0
2019/01/04 05:48:00	BASE	1.20	322	2.31	4	-2.2	94	-3.0	4	11	980.4	NA	0.0000		9999	0	0	0	0
2019/01/04 05:49:00	BASE	1.52	314	1.95	10	-2.2	94	-3.0	4	11	980.4	NA	0.0000		9999	0	0	0	0
2019/01/04 05:50:00	BASE	1.75	314	2.26	322	-2.2	95	-3.0	4	11	980.4	NA	0.0000		9999	0	0	0	0
2019/01/04 05:51:00	BASE	2.04	321	2.26	322	-2.3	95	-3.0	4	11	980.4	NA	0.0000		9999	0	0	0	0
2019/01/04 05:52:00	BASE	2.07	323	2.26	322	-2.3	95	-3.0	4	11	980.4	NA	0.0000		9999	0	0	0	0
2019/01/04 05:53:00	BASE	1.95	326	2.26	322	-2.4	95	-3.0	4	11	980.4	NA	0.0000		9999	0	0	0	0
2019/01/04 05:54:00	BASE	1.83	328	2.26	322	-2.4	95	-3.1	4	12	980.4	NA	0.0000		9999	0	0	0	0
2019/01/04 05:55:00	BASE	1.81	329	2.26	322	-2.4	95	-3.1	5	12	980.4	NA	0.0000		9999	0	0	0	0
2019/01/04 05:56:00	BASE	1.92	331	2.26	322	-2.3	95	-3.0	5	12	980.4	NA	0.0000		9999	0	0	0	0
2019/01/04 05:57:00	BASE	1.93	326	2.26	322	-2.3	95	-3.0	5	12	980.4	NA	0.0000		9999	0	0	0	0
2019/01/04 05:58:00	BASE	1.79	321	2.26	322	-2.3	95	-3.0	5	12	980.4	NA	0.0000		9999	0	0	0	0
2019/01/04 05:59:00	BASE	1.71	320	2.26	322	-2.3	95	-3.0	5	13	980.4	NA	0.0000		9999	0	0	0	0
2019/01/04 06:00:00	BASE	1.62	320	2.26	322	-2.4	95	-3.0	5	13	980.4	NA	0.0000		9999	0	0	0	0
2019/01/04 06:01:00	BASE	1.53	317	2.21	328	-2.4	96	-3.0	5	13	980.3	NA	0.0000		9999	0	0	0	0
2019/01/04 06:02:00	BASE	1.45	314	2.11	333	-2.4	96	-3.0	5	13	980.3	NA	0.0000		9999	0	0	0	0
2019/01/04 06:03:00	BASE	1.45	313	2.11	333	-2.4	96	-3.0	5	13	980.3	NA	0.0000		9999	0	0	0	0
2019/01/04 06:04:00	BASE	1.26	311	2.11	333	-2.4	96	-2.9	5	14	980.3	NA	0.0000		9999	0	0	0	0
2019/01/04 06:05:00	BASE	0.51	314	2.11	333	-2.4	96	-3.0	5	14	980.3	NA	0.0000		9999	0	0	0	0
2019/01/04 06:06:00	BASE	0.64	319	2.06	325	-2.4	96	-3.0	5	14	980.3	NA	0.0000		9999	0	0	0	0
2019/01/04 06:07:00	BASE	1.38	322	1.85	324	-2.4	95	-3.0	5	14	980.3	NA	0.0000		9999	0	0	0	0
2019/01/04 06:08:00	BASE	1.47	322	1.75	318	-2.4	95	-3.1	5	15	980.3	NA	0.0000		9999	0	0	0	0
2019/01/04 06:09:00	BASE	1.61	319	2.06	314	-2.4	95	-3.1	5	15	980.3	NA	0.0000		9999	0	0	0	0
2019/01/04 06:10:00	BASE	1.95	316	2.31	319	-2.4	95	-3.1	6	15	980.3	NA	0.0000		9999	0	0	0	0
2019/01/04 06:11:00	BASE	2.02	310	2.31	319	-2.4	95	-3.0	6	16	980.3	NA	0.0000		9999	0	0	0	0
2019/01/04 06:12:00	BASE	1.93	309	2.31	319	-2.4	95	-3.0	6	16	980.3	NA	0.0000		9999	0	0	0	0
2019/01/04 06:13:00	BASE	1.98	311	2.31	319	-2.4	96	-2.9	6	16	980.3	NA	0.0000		9999	0	0	0	0
2019/01/04 06:14:00	BASE	1.97	311	2.31	319	-2.4	96	-2.9	6	17	980.3	NA	0.0000		9999	0	0	0	0
2019/01/04 06:15:00	BASE	1.87	309	2.31	319	-2.4	97	-2.9	6	17	980.3	NA	0.0000		9999	0	0	0	0
2019/01/04 06:16:00	BASE	1.88	306	2.31	319	-2.4	97	-2.8	6	18	980.3	NA	0.0000		9999	0	0	0	0
2019/01/04 06:17:00	BASE	2.07	304	2.31	303	-2.4	97	-2.8	7	18	980.3	NA	0.0000		9999	0	0	0	0
2019/01/04 06:18:00	BASE	2.09	305	2.31	303	-2.4	98	-2.7	7	18	980.3	NA	0.0000		9999	0	0	0	0
2019/01/04 06:19:00	BASE	2.02	309	2.31	303	-2.4	98	-2.7	7	19	980.3	NA	0.0000		9999	0	0	0	0
2019/01/04 06:20:00	BASE	2.00	313	2.31	303	-2.4	98	-2.6	7	19	980.3	NA	0.0000		9999	0	0	0	0
2019/01/04 06:21:00	BASE	1.97	318	2.31	303	-2.4	99	-2.6	7	20	980.3	NA	0.0000		9999	0	0	0	0
2019/01/04 06:22:00	BASE	1.94	320	2.31	303	-2.4	99	-2.6	8	20	980.3	NA	0.0000		9999	0	0	0	0
2019/01/04 06:23:00	BASE	1.88	319	2.31	303	-2.4	99	-2.5	8	21	980.3	NA	0.0000		9999	0	0	0	0
2019/01/04 06:24:00	BASE	1.88	319	2.31	303	-2.4	99	-2.5	8	21	980.3	NA	0.0000		9999	0	0	0	0
2019/01/04 06:25:00	BASE	1.87	320	2.31	303	-2.4	99	-2.5	9	22	980.3	NA	0.0000		9999	0	0	0	0
2019/01/04 06:26:00	BASE	1.76	322	2.31	303	-2.4	99	-2.5	9	22	980.3	NA	0.0000		9999	0	0	0	0
2019/01/04 06:27:00	BASE	1.69	322	2.16	319	-2.4	99	-2.5	9	23	980.3	NA	0.0000		9999	0	0	0	0
2019/01/04 06:28:00	BASE	1.68	323	2.16	319	-2.4	99	-2.5	10	24	980.3	NA	0.0000		9999	0	0	0	0
2019/01/04 06:29:00	BASE	1.72	327	2.06	319	-2.4	99	-2.5	10	24	980.3	NA	0.0000		9999	0	0	0	0
2019/01/04 06:30:00	BASE	1.76	333	2.06	319	-2.4	99	-2.5	10	25	980.3	NA	0.0000		9999	2330	0	0	0
2019/01/04 06:31:00	BASE	1.76	334	2.06	319	-2.4	100	-2.5	11	26	980.3	NA	0.0000		9999	2360	0	0	0
2019/01/04 06:32:00	BASE	1.69	335	2.06	319	-2.4	100	-2.4	11	27	980.3	NA	0.0000		9999	0	0	0	0
2019/01/04 06:33:00	BASE	1.66	338	2.06	319	-2.4	100	-2.4	12	27	980.3	NA	0.0000		9999	2360	0	0	0
2019/01/04 06:34:00	BASE	1.74	340	1.95	333	-2.4	100	-2.4	12	28	980.3	NA	0.0000		9999	2360	0	0	0
2019/01/04 06:35:00	BASE	1.75	346	1.95	333	-2.4	100	-2.4	13	29	980.3	NA	0.0000		9999	2400	0	0	0
2019/01/04 06:36:00	BASE	1.59	350	1.95	333	-2.3	100	-2.3	13	30	980.3	NA	0.0000		9999	2430	0	0	0
2019/01/04 06:37:00	BASE	1.44	344	1.95	333	-2.3	100	-2.4	14	30	980.3	NA	0.0000		9999	2490	0	0	0
2019/01/04 06:38:00	BASE	1.54	350	1.95	333	-2.3	100	-2.4	14	31	980.3	NA	0.0000		9999	0	0	0	0
2019/01/04 06:39:00	BASE	1.72	358	1.95	333	-2.3	99	-2.4	14	31	980.3	NA	0.0000		9999	0	0	0	0
2019/01/04 06:40:00	BASE	1.73	353	1.95	333	-2.3	99	-2.5	15	32	980.3	NA	0.0000		9999	0	0	0	0
2019/01/04 06:41:00	BASE	1.68	351	1.95	333	-2.3	99	-2.5	15	33	980.3	NA	0.0000		9999	0	0	0	0
2019/01/04 06:42:00	BASE	1.64	352	1.95	333	-2.3	99	-2.5	16	34	980.3	NA	0.0000		9999	0	0	0	0
2019/01/04 06:43:00	BASE	1.57	351	1.95	333	-2.3	98	-2.6	17	35	980.3	NA	0.0000		9999	0	0	0	0
2019/01/04 06:44:00	BASE	1.47	345	1.85	345	-2.3	98	-2.6	18	36	980.3	NA	0.0000		9999	0	0	0	0
2019/01/04 06:45:00	BASE	1.37	342	1.85	345	-2.3	98	-2.6	19	38	980.3	NA	0.0000		9999	2530	0	0	0
2019/01/04 06:46:00	BASE	1.09	343	1.85	345	-2.3	98	-2.6	20	39	980.2	NA	0.0000		9999	2490	0	0	0
2019/01/04 06:47:00	BASE	0.48	343	1.85	345	-2.3	98	-2.6	21	41	980.2	NA	0.0000		9999	2430	0	0	0
2019/01/04 06:48:00	BASE	0.61	340	1.85	345	-2.3	98	-2.6	23	43	980.3	NA	0.0000		9999	2400	0	0	0
2019/01/04 06:49:00	BASE	1.03	337	1.85	345	-2.3	98	-2.6	23	44	980.3	NA	0.0000		9999	2430	0	0	0
2019/01/04 06:50:00	BASE	1.24	335	1.80	354	-2.3	98	-2.6	23	44	980.3	NA	0.0000		9999	2460	0	0	0
2019/01/04 06:51:00	BASE	1.57	334	1.80	334	-2.3	98	-2.6	23	44	980.3	NA	0.0000		9999	0	0	0	0
2019/01/04 06:52:00	BASE	1.56	335	1.80	334	-2.2	98	-2.6	23	44	980.2	NA	0.0000		9999	2530	0	0	0
2019/01/04 06:53:00	BASE	1.45	342	1.80	334	-2.2	98	-2.5	23	45	980.2	NA	0.0000		9999	2620	0	0	0
2019/01/04 06:54:00	BASE	1.40	343	1.80	334	-2.2	98	-2.4	23	45	980.2	NA	0.0000		9999	2690	0	0	0
2019/01/04 06:55:00	BASE	1.26	339	1.80	334	-2.2	99	-2.4	22	46	980.2	NA	0.0000		9999	2360	0	0	0
2019/01/04 06:56:00	BASE	1.06	342	1.80	334	-2.2	99	-2.4	22	46	980.2	NA	0.0000		9999	2360	0	0	0
2019/01/04 06:57:00	BASE	1.04	346	1.80	334	-2.2	99	-2.4	22	47	980.2	NA	0.0000		9999	0	0	0	0
2019/01/04 06:58:00	BASE	0.75	347	1.80	334	-2.2	99	-2.4	22	47	980.1	NA	0.0000		9999	2360	0	0	0
2019/01/04 06:59:00	BASE	0.22	344	1.80	334	-2.2	99	-2.4	23	48	980.1	NA	0.0000		9999	0	0	0	0
2019/01/04 07:00:00	BASE	0.00	339	1.80	334	-2.2	99	-2.3	23	49	980.1	NA	0.0000		9999	2400	0	0	0
2019/01/04 07:01:00	BASE	0.00	342	1.75	336	-2.2	99	-2.3	23	51	980.1	NA	0.0000		9999	2400	0	0	0
2019/01/04 07:02:00	BASE	0.00	1	1.54	336	-2.2	99	-2.3	24	52	980.0	NA	0.0000		9999	2460	0	0	0
2019/01/04 07:03:00	BASE	0.00	19	1.54	336	-2.2	99	-2.3	25	53	979.9	NA	0.0000		9999	0	0	0	0
2019/01/04 07:04:00	BASE	0.00	24	1.34	337	-2.2	99	-2.3	25	55	979.9	NA	0.0000		9999	0	0	0	0
2019/01/04 07:05:00	BASE	0.00	11	1.29	343	-2.2	99	-2.3	26	57	979.9	NA	0.0000		9999	2490	0	0	0
2019/01/04 07:06:00	BASE	0.00	351	1.18	347	-2.2	99	-2.3	27	58	979.9	NA	0.0000		9999	2460	0	0	0
2019/01/04 07:07:00	BASE	0.00	343	1.08	347	-2.2	99	-2.3	27	59	979.9	NA	0.0000		9999	2490	0	0	0
2019/01/04 07:08:00	BASE	0.00	12	M	M	-2.2	99	-2.4	28	60	979.9	NA	0.0000		9999	0	0	0	0
2019/01/04 07:09:00	BASE	0.00	63	M	M	-2.2	99	-2.4	29	62	979.8	NA	0.0000		9999	0	0	0	0
2019/01/04 07:10:00	BASE	0.00	91	M	M	-2.3	98	-2.5	29	64	979.8	NA	0.0000		9999	0	0	0	0
2019/01/04 07:11:00	BASE	0.00	103	M	M	-2.3	98	-2.6	30	65	979.8	NA	0.0000		9999	0	0	0	0
2019/01/04 07:12:00	BASE	0.00	112	M	M	-2.4	98	-2.7	31	67	979.8	NA	0.0000		9999	0	0	0	0
2019/01/04 07:13:00	BASE	0.09	125	1.03	130	-2.4	98	-2.7	32	69	979.8	NA	0.0000		9999	0	0	0	0
2019/01/04 07:14:00	BASE	0.54	130	1.13	131	-2.5	98	-2.8	33	71	979.8	NA	0.0000		9999	0	0	0	0
2019/01/04 07:15:00	BASE	0.72	131	1.13	131	-2.5	97	-2.8	34	73	979.8	NA	0.0000		9999	2720	0	0	0
2019/01/04 07:16:00	BASE	0.27	131	1.13	131	-2.5	97	-2.8	35	75	979.8	NA	0.0000		9999	2660	0	0	0
2019/01/04 07:17:00	BASE	0.00	131	1.13	131	-2.4	97	-2.9	36	77	979.8	NA	0.0000		9999	2660	0	0	0
2019/01/04 07:18:00	BASE	0.00	140	1.13	131	-2.4	97	-2.9	37	78	979.8	NA	0.0000		9999	2760	0	0	0
2019/01/04 07:19:00	BASE	0.65	150	1.54	153	-2.4	96	-2.9	37	80	979.8	NA	0.0000		9999	2760	0	0	0
2019/01/04 07:20:00	BASE	1.38	146	1.65	140	-2.4	96	-2.9	38	82	979.8	NA	0.0000		9999	0	0	0	0
2019/01/04 07:21:00	BASE	1.38	128	1.65	140	-2.3	96	-2.8	40	84	979.8	NA	0.0000		9999	0	0	0	0
2019/01/04 07:22:00	BASE	1.35	115	1.65	140	-2.2	96	-2.8	41	86	979.7	NA	0.0000		9999	0	0	0	0
2019/01/04 07:23:00	BASE	1.52	118	1.90	120	-2.2	96	-2.7	41	89	979.7	NA	0.0000		9999	0	0	0	0
2019/01/04 07:24:00	BASE	1.63	116	2.31	105	-2.1	96	-2.7	42	90	979.7	NA	0.0000		9999	0	0	0	0
2019/01/04 07:25:00	BASE	2.10	113	2.98	116	-2.1	95	-2.7	43	92	979.6	NA	0.0000		9999	0	0	0	0
2019/01/04 07:26:00	BASE	2.71	118	2.98	118	-2.1	95	-2.8	44	94	979.6	NA	0.0000		9999	0	0	0	0
2019/01/04 07:27:00	BASE	2.94	118	3.45	107	-2.1	95	-2.8	45	96	979.6	NA	0.0000		9999	0	0	0	0
2019/01/04 07:28:00	BASE	2.92	112	3.45	107	-2.1	96	-2.7	46	98	979.6	NA	0.0000		9999	0	0	0	0
2019/01/04 07:29:00	BASE	2.91	107	3.81	103	-2.0	96	-2.6	47	100	979.5	NA	0.0000		9999	0	0	0	0
2019/01/04 07:30:00	BASE	3.24	106	4.17	99	-2.0	95	-2.6	47	101	979.5	NA	0.0000		9999	0	0	0	0
2019/01/04 07:31:00	BASE	3.54	110	4.17	99	-1.9	95	-2.6	48	103	979.5	NA	0.0000		9999	2530	0	0	0
2019/01/04 07:32:00	BASE	3.96	108	4.78	105	-1.9	95	-2.6	50	106	979.5	NA	0.0000		9999	2560	0	0	0
2019/01/04 07:33:00	BASE	4.32	107	4.78	105	-1.9	94	-2.7	51	110	979.5	NA	0.0000		9999	2590	0	0	0
2019/01/04 07:34:00	BASE	4.37	111	4.94	115	-1.9	95	-2.6	52	112	979.5	NA	0.0000		9999	2560	0	0	0
2019/01/04 07:35:00	BASE	4.23	115	4.94	115	-1.9	95	-2.6	53	114	979.5	NA	0.0000		9999	2560	0	0	0
2019/01/04 07:36:00	BASE	3.90	115	4.94	115	-2.0	96	-2.6	54	116	979.4	NA	0.0000		9999	2590	0	0	0
2019/01/04 07:37:00	BASE	3.95	113	4.94	115	-2.0	96	-2.5	55	119	979.3	NA	0.0000		9999	2530	0	0	0
2019/01/04 07:38:00	BASE	4.06	114	4.94	115	-2.0	97	-2.5	57	123	979.3	NA	0.0000		9999	2590	0	0	0
2019/01/04 07:39:00	BASE	3.90	114	4.94	115	-2.0	97	-2.5	60	127	979.3	NA	0.0000		9999	2530	0	0	0
2019/01/04 07:40:00	BASE	3.75	113	4.94	115	-2.0	97	-2.5	62	131	979.3	NA	0.0000		9999	2620	0	0	0
2019/01/04 07:41:00	BASE	3.76	112	4.94	115	-2.0	97	-2.5	64	134	979.3	NA	0.0000		9999	2620	0	0	0
2019/01/04 07:42:00	BASE	3.83	111	4.94	115	-2.0	97	-2.5	66	138	979.3	NA	0.0000		9999	2590	0	0	0
2019/01/04 07:43:00	BASE	3.98	109	4.94	115	-2.0	97	-2.4	70	144	979.3	NA	0.0000		9999	2620	0	0	0
2019/01/04 07:44:00	BASE	4.12	110	4.53	105	-2.0	97	-2.4	72	147	979.3	NA	0.0000		9999	2660	0	0	0
2019/01/04 07:45:00	BASE	3.91	113	4.53	105	-2.0	97	-2.4	74	151	979.2	NA	0.0000		9999	2690	0	0	0
2019/01/04 07:46:00	BASE	3.98	115	4.53	119	-2.0	97	-2.4	76	156	979.2	NA	0.0000		9999	2690	0	0	0
2019/01/04 07:47:00	BASE	4.15	115	4.53	119	-2.0	97	-2.4	83	165	979.2	NA	0.0000		9999	2720	0	0	0
2019/01/04 07:48:00	BASE	4.24	115	4.53	113	-2.0	97	-2.4	92	178	979.2	NA	0.0000		9999	0	0	0	0
2019/01/04 07:49:00	BASE	4.18	118	4.53	113	-2.0	97	-2.4	95	184	979.2	NA	0.0000		9999	2660	0	0	0
2019/01/04 07:50:00	BASE	3.91	119	4.53	113	-2.0	98	-2.3	84	171	979.2	NA	0.0000		9999	2660	0	0	0
2019/01/04 07:51:00	BASE	4.01	119	4.53	113	-2.0	98	-2.3	82	169	979.2	NA	0.0000		9999	2720	0	0	0
2019/01/04 07:52:00	BASE	4.06	120	4.53	113	-2.0	99	-2.2	87	177	979.2	NA	0.0000		9999	2720	0	0	0
2019/01/04 07:53:00	BASE	3.81	121	4.53	113	-2.0	99	-2.2	110	208	979.2	NA	0.0000		9999	2720	0	0	0
2019/01/04 07:54:00	BASE	3.76	122	4.53	113	-2.0	99	-2.1	109	208	979.2	NA	0.0000		9999	2720	0	0	0
2019/01/04 07:55:00	BASE	3.92	121	4.53	113	-1.9	99	-2.0	107	207	979.2	NA	0.0000		9999	2720	0	0	0
2019/01/04 07:56:00	BASE	3.90	121	4.53	113	-1.9	99	-2.0	105	205	979.1	NA	0.0000		9999	2720	0	0	0
2019/01/04 07:57:00	BASE	3.66	122	4.53	113	-1.9	100	-2.0	105	206	979.1	NA	0.0000		9999	2720	0	0	0
2019/01/04 07:58:00	BASE	3.39	122	4.32	118	-1.9	100	-1.9	107	210	979.1	NA	0.0000		9999	2720	0	0	0
2019/01/04 07:59:00	BASE	3.35	121	4.32	118	-1.9	100	-1.9	111	217	979.1	NA	0.0000		9999	2690	0	0	0
2019/01/04 08:00:00	BASE	3.67	124	4.32	118	-1.9	100	-1.9	117	226	979.1	NA	0.0000		9999	2690	0	0	0
2019/01/04 08:01:00	BASE	3.93	128	4.22	132	-1.8	100	-1.8	126	240	979.1	NA	0.0000		9999	2690	0	0	0
2019/01/04 08:02:00	BASE	3.82	127	4.22	132	-1.8	100	-1.8	132	248	979.1	NA	0.0000		9999	2690	0	0	0
2019/01/04 08:03:00	BASE	3.79	124	4.32	132	-1.7	100	-1.7	129	246	979.0	NA	0.0000		9999	2690	0	0	0
2019/01/04 08:04:00	BASE	3.62	118	4.32	132	-1.7	100	-1.7	126	243	979.0	NA	0.0000		9999	2690	0	0	0
2019/01/04 08:05:00	BASE	3.35	113	4.32	132	-1.7	100	-1.7	126	244	979.0	NA	0.0000		9999	0	0	0	0
2019/01/04 08:06:00	BASE	3.48	111	4.32	132	-1.6	99	-1.7	125	244	979.0	NA	0.0000		9999	0	0	0	0
2019/01/04 08:07:00	BASE	3.30	108	4.32	132	-1.6	99	-1.8	119	236	979.0	NA	0.0000		9999	0	0	0	0
2019/01/04 08:08:00	BASE	2.79	104	4.32	132	-1.7	99	-1.8	110	225	979.0	NA	0.0000		9999	0	0	0	0
2019/01/04 08:09:00	BASE	2.81	106	4.32	132	-1.7	98	-1.9	103	216	979.0	NA	0.0000		9999	0	0	0	0
2019/01/04 08:10:00	BASE	2.95	106	4.32	132	-1.6	98	-2.0	104	219	979.0	NA	0.0000		9999	0	0	0	0
2019/01/04 08:11:00	BASE	3.14	110	4.32	132	-1.6	97	-2.0	103	219	978.9	NA	0.0000		9999	0	0	0	0
2019/01/04 08:12:00	BASE	3.71	117	4.32	116	-1.6	97	-2.1	104	222	978.9	NA	0.0000		9999	2660	0	0	0
2019/01/04 08:13:00	BASE	3.92	117	4.32	116	-1.6	96	-2.2	107	227	978.9	NA	0.0000		9999	2620	0	0	0
2019/01/04 08:14:00	BASE	3.72	117	4.32	116	-1.6	95	-2.3	113	238	978.9	NA	0.0000		9999	2660	0	0	0
2019/01/04 08:15:00	BASE	3.75	118	4.32	116	-1.6	94	-2.4	117	245	978.8	NA	0.0000		9999	2620	0	0	0
2019/01/04 08:16:00	BASE	3.98	117	4.37	120	-1.6	93	-2.5	131	269	978.7	NA	0.0000		9999	2620	0	0	0
2019/01/04 08:17:00	BASE	3.99	114	4.37	120	-1.6	93	-2.5	139	281	978.8	NA	0.0000		9999	2620	0	0	0
2019/01/04 08:18:00	BASE	3.77	112	4.37	120	-1.5	93	-2.5	151	300	978.8	NA	0.0000		9999	2660	0	0	0
2019/01/04 08:19:00	BASE	3.47	116	4.37	120	-1.5	93	-2.4	139	283	978.7	NA	0.0000		9999	2690	0	0	0
2019/01/04 08:20:00	BASE	2.77	119	4.37	120	-1.5	93	-2.4	134	276	978.7	NA	0.0000		9999	2690	0	0	0
2019/01/04 08:21:00	BASE	2.24	116	4.37	120	-1.5	93	-2.4	144	293	978.7	NA	0.0000		9999	0	0	0	0
2019/01/04 08:22:00	BASE	2.53	107	4.37	120	-1.4	93	-2.4	158	317	978.7	NA	0.0000		9999	0	0	0	0
2019/01/04 08:23:00	BASE	2.65	110	4.37	120	-1.4	93	-2.4	216	402	978.7	NA	0.0000		9999	2690	0	0	0
2019/01/04 08:24:00	BASE	2.27	127	4.37	120	-1.4	93	-2.4	225	415	978.7	NA	0.0000		9999	0	0	0	0
2019/01/04 08:25:00	BASE	1.76	134	4.37	120	-1.3	92	-2.4	207	391	978.7	NA	0.0000		9999	0	0	0	0
2019/01/04 08:26:00	BASE	0.74	119	4.17	110	-1.3	92	-2.5	191	370	978.7	NA	0.0000		9999	0	0	0	0
2019/01/04 08:27:00	BASE	0.09	105	3.81	112	-1.2	91	-2.6	197	381	978.7	NA	0.0000		9999	0	0	0	0
2019/01/04 08:28:00	BASE	0.13	95	3.65	117	-1.1	90	-2.6	186	366	978.6	NA	0.0000		9999	0	0	0	0
2019/01/04 08:29:00	BASE	0.75	63	3.19	92	-1.0	89	-2.6	192	377	978.6	NA	0.0000		9999	2660	0	0	0
2019/01/04 08:30:00	BASE	1.45	26	3.19	92	-0.9	88	-2.7	194	380	978.6	NA	0.0000		9999	0	0	0	0
2019/01/04 08:31:00	BASE	1.00	1	3.19	92	-0.8	87	-2.7	188	373	978.6	NA	0.0000		9999	0	0	0	0
2019/01/04 08:32:00	BASE	0.32	353	2.88	122	-0.7	86	-2.7	202	394	978.6	NA	0.0000		9999	0	0	0	0
2019/01/04 08:33:00	BASE	1.19	11	3.34	36	-0.6	85	-2.8	175	356	978.5	NA	0.0000		9999	0	0	0	0
2019/01/04 08:34:00	BASE	2.03	38	3.34	36	-0.5	85	-2.7	159	332	978.5	NA	0.0000		9999	0	0	0	0
2019/01/04 08:35:00	BASE	2.71	37	4.42	22	-0.4	85	-2.7	161	335	978.5	NA	0.0000		9999	0	0	0	0
2019/01/04 08:36:00	BASE	3.66	24	4.42	22	-0.4	85	-2.7	155	328	978.5	NA	0.0000		9999	0	0	0	0
2019/01/04 08:37:00	BASE	3.88	25	4.68	26	-0.4	85	-2.6	153	325	978.5	NA	0.0000		9999	0	0	0	0
2019/01/04 08:38:00	BASE	4.45	26	5.25	27	-0.4	85	-2.6	159	337	978.5	NA	0.0000		9999	0	0	0	0
2019/01/04 08:39:00	BASE	4.63	24	5.25	19	-0.4	85	-2.6	162	342	978.4	NA	0.0000		9999	0	0	0	0
2019/01/04 08:40:00	BASE	4.68	24	5.45	24	-0.4	85	-2.6	176	365	978.4	NA	0.0000		9999	0	0	0	0
2019/01/04 08:41:00	BASE	5.19	25	6.07	32	-0.3	85	-2.6	225	441	978.3	NA	0.0000		9999	0	0	0	0
2019/01/04 08:42:00	BASE	5.40	26	6.07	32	-0.3	84	-2.6	226	444	978.3	NA	0.0000		9999	0	0	0	0
2019/01/04 08:43:00	BASE	5.71	28	6.33	31	-0.2	84	-2.6	225	443	978.3	NA	0.0000		9999	0	0	0	0
2019/01/04 08:44:00	BASE	6.13	28	6.84	21	-0.2	83	-2.7	213	427	978.2	NA	0.0000		9999	0	0	0	0
2019/01/04 08:45:00	BASE	6.20	26	6.84	21	-0.2	83	-2.7	192	394	978.2	NA	0.0000		9999	0	0	0	0
2019/01/04 08:46:00	BASE	5.99	26	6.84	21	-0.2	83	-2.8	180	375	978.2	NA	0.0000		9999	0	0	0	0
2019/01/04 08:47:00	BASE	6.13	26	7.10	23	-0.2	82	-2.8	176	370	978.2	NA	0.0000		9999	0	0	0	0
2019/01/04 08:48:00	BASE	6.19	26	7.10	23	-0.2	82	-2.9	176	371	978.2	NA	0.0000		9999	20080	0	0	0
2019/01/04 08:49:00	BASE	5.87	27	7.10	23	-0.1	82	-2.8	181	380	978.2	NA	0.0000		9999	0	0	0	0
2019/01/04 08:50:00	BASE	5.89	27	7.10	23	-0.1	82	-2.8	183	384	978.2	NA	0.0000		9999	0	0	0	0
2019/01/04 08:51:00	BASE	5.97	27	7.10	23	-0.1	82	-2.8	184	385	978.2	NA	0.0000		9999	0	0	0	0
2019/01/04 08:52:00	BASE	6.27	27	7.10	23	-0.1	82	-2.8	190	397	978.2	NA	0.0000		9999	0	0	0	0
2019/01/04 08:53:00	BASE	6.27	24	7.10	23	-0.1	82	-2.8	202	417	978.2	NA	0.0000		9999	0	0	0	0
2019/01/04 08:54:00	BASE	6.03	23	7.10	23	-0.1	82	-2.8	212	433	978.2	NA	0.0000		9999	0	0	0	0
2019/01/04 08:55:00	BASE	5.81	25	7.10	23	-0.1	82	-2.8	214	437	978.2	NA	0.0000		9999	0	0	0	0
2019/01/04 08:56:00	BASE	5.27	23	7.10	23	-0.0	82	-2.7	239	476	978.2	NA	0.0000		9999	18140	0	0	0
2019/01/04 08:57:00	BASE	4.95	22	6.89	23	0.0	82	-2.7	274	532	978.2	NA	0.0000		9999	0	0	0	0
2019/01/04 08:58:00	BASE	4.53	23	6.89	23	0.1	81	-2.7	287	552	978.2	NA	0.0000		9999	0	0	0	0
2019/01/04 08:59:01	BASE	3.91	22	6.89	23	0.1	81	-2.7	286	552	978.2	NA	0.0000		9999	0	0	0	0
2019/01/04 09:00:01	BASE	3.95	25	6.89	23	0.1	81	-2.8	301	575	978.2	NA	0.0000		9999	0	0	0	0
2019/01/04 09:01:00	BASE	5.29	29	6.89	23	0.1	81	-2.7	292	561	978.2	NA	0.0000		9999	0	0	0	0
2019/01/04 09:02:00	BASE	6.08	35	6.84	28	0.1	81	-2.7	271	529	978.2	NA	0.0000		9999	0	0	0	0
2019/01/04 09:03:01	BASE	5.16	60	6.84	28	0.2	81	-2.6	253	500	978.3	NA	0.0000		9999	0	0	0	0
2019/01/04 09:04:00	BASE	4.11	86	6.84	28	0.1	81	-2.7	257	507	978.2	NA	0.0000		9999	14240	0	0	0
2019/01/04 09:05:00	BASE	3.63	95	6.84	28	0.1	81	-2.9	242	482	978.2	NA	0.0000		9999	14240	0	0	0
2019/01/04 09:06:00	BASE	3.17	99	6.84	28	-0.0	80	-3.0	216	441	978.2	NA	0.0000		9999	14240	0	0	0
2019/01/04 09:07:00	BASE	2.84	105	6.84	28	-0.1	80	-3.1	197	409	978.1	NA	0.0000		9999	14170	0	0	0
2019/01/04 09:08:00	BASE	3.17	107	6.84	28	-0.3	80	-3.3	179	378	978.1	NA	0.0000		9999	0	0	0	0
2019/01/04 09:09:00	BASE	3.47	102	6.84	28	-0.3	79	-3.4	172	367	978.1	NA	0.0000		9999	0	0	0	0
2019/01/04 09:10:00	BASE	3.81	100	6.84	28	-0.3	79	-3.5	172	367	978.1	NA	0.0000		9999	0	0	0	0
2019/01/04 09:11:00	BASE	4.50	98	6.58	31	-0.3	79	-3.6	186	392	978.0	NA	0.0000		9999	0	0	0	0
2019/01/04 09:12:00	BASE	4.61	96	5.25	98	-0.3	78	-3.6	191	401	977.9	NA	0.0000		9999	0	0	0	0
2019/01/04 09:13:00	BASE	4.36	95	5.25	98	-0.3	78	-3.6	197	411	977.9	NA	0.0000		9999	0	0	0	0
2019/01/04 09:14:00	BASE	3.96	93	5.25	98	-0.3	79	-3.5	207	430	977.9	NA	0.0000		9999	14240	0	0	0
2019/01/04 09:15:00	BASE	3.88	94	5.25	98	-0.4	80	-3.4	211	437	977.9	NA	0.0000		9999	14240	0	0	0
2019/01/04 09:16:00	BASE	4.65	99	5.50	109	-0.4	81	-3.3	230	469	977.9	NA	0.0000		9999	14240	0	0	0
2019/01/04 09:17:00	BASE	5.04	104	5.50	109	-0.4	81	-3.2	237	481	977.9	NA	0.0000		9999	14240	0	0	0
2019/01/04 09:18:00	BASE	4.82	101	5.50	109	-0.4	81	-3.2	229	467	977.9	NA	0.0000		9999	14240	0	0	0
2019/01/04 09:19:00	BASE	4.54	86	5.50	109	-0.3	81	-3.3	215	444	977.9	NA	0.0000		9999	14210	0	0	0
2019/01/04 09:20:00	BASE	4.04	77	5.50	109	-0.2	80	-3.3	220	452	977.9	NA	0.0000		9999	14270	0	0	0
2019/01/04 09:21:00	BASE	3.49	83	5.50	109	-0.2	78	-3.5	230	470	977.9	NA	0.0000		9999	14210	0	0	0
2019/01/04 09:22:00	BASE	3.36	94	5.50	109	-0.1	78	-3.6	240	487	977.9	NA	0.0000		9999	0	0	0	0
2019/01/04 09:23:00	BASE	3.46	95	5.50	109	-0.1	77	-3.6	219	452	977.9	NA	0.0000		9999	0	0	0	0
2019/01/04 09:24:00	BASE	3.60	91	5.50	109	-0.1	77	-3.6	199	417	977.9	NA	0.0000		9999	0	0	0	0
2019/01/04 09:25:00	BASE	3.57	92	5.50	109	-0.1	78	-3.5	194	411	977.9	NA	0.0000		9999	0	0	0	0
2019/01/04 09:26:00	BASE	3.29	90	5.40	107	-0.1	78	-3.4	185	396	977.9	NA	0.0000		9999	0	0	0	0
2019/01/04 09:27:00	BASE	2.98	96	5.04	104	-0.0	78	-3.4	174	376	977.9	NA	0.0000		9999	0	0	0	0
2019/01/04 09:28:00	BASE	2.90	105	4.78	83	-0.1	78	-3.5	166	363	977.8	NA	0.0000		9999	14140	0	0	0
2019/01/04 09:29:00	BASE	3.01	106	4.01	85	-0.1	78	-3.5	162	355	977.8	NA	0.0000		9999	14140	0	0	0
2019/01/04 09:30:00	BASE	3.11	103	4.01	85	-0.1	78	-3.4	159	351	977.8	NA	0.0000		9999	14080	0	0	0
2019/01/04 09:31:00	BASE	3.47	96	4.22	90	-0.1	78	-3.5	158	350	977.8	NA	0.0000		9999	14080	0	0	0
2019/01/04 09:32:00	BASE	3.63	94	4.22	90	-0.2	78	-3.5	158	350	977.8	NA	0.0000		9999	14080	0	0	0
2019/01/04 09:33:00	BASE	3.24	96	4.22	90	-0.2	78	-3.5	159	353	977.8	NA	0.0000		9999	14010	0	0	0
2019/01/04 09:34:00	BASE	2.85	92	4.22	90	-0.1	78	-3.5	162	359	977.7	NA	0.0000		9999	14080	0	0	0
2019/01/04 09:35:00	BASE	2.42	90	4.22	90	-0.1	77	-3.6	163	361	977.7	NA	0.0000		9999	13980	0	0	0
2019/01/04 09:36:00	BASE	2.22	95	4.22	90	-0.1	77	-3.7	164	363	977.7	NA	0.0000		9999	14040	0	0	0
2019/01/04 09:37:00	BASE	2.29	99	4.22	90	-0.1	77	-3.7	165	366	977.7	NA	0.0000		9999	14040	0	0	0
2019/01/04 09:38:00	BASE	2.41	99	4.22	90	-0.1	77	-3.7	166	368	977.7	NA	0.0000		9999	14040	0	0	0
2019/01/04 09:39:00	BASE	2.47	102	4.22	90	-0.1	77	-3.7	167	371	977.7	NA	0.0000		9999	14040	0	0	0
2019/01/04 09:40:00	BASE	2.57	108	4.22	90	-0.2	78	-3.6	168	373	977.6	NA	0.0000		9999	14010	0	0	0
2019/01/04 09:41:00	BASE	2.53	109	3.81	92	-0.2	78	-3.5	168	374	977.6	NA	0.0000		9999	13940	0	0	0
2019/01/04 09:42:00	BASE	2.44	112	3.34	101	-0.2	78	-3.5	167	372	977.6	NA	0.0000		9999	14010	0	0	0
2019/01/04 09:43:00	BASE	2.36	112	3.19	87	-0.3	79	-3.5	168	375	977.6	NA	0.0000		9999	13980	0	0	0
2019/01/04 09:44:00	BASE	2.21	111	2.93	116	-0.3	79	-3.5	169	378	977.6	NA	0.0000		9999	13980	0	0	0
2019/01/04 09:45:00	BASE	2.06	111	2.93	116	-0.3	79	-3.4	170	381	977.5	NA	0.0000		9999	14040	0	0	0
2019/01/04 09:46:00	BASE	1.74	107	2.93	116	-0.3	80	-3.4	171	382	977.5	NA	0.0000		9999	13980	0	0	0
2019/01/04 09:47:00	BASE	1.50	90	2.93	116	-0.3	80	-3.4	170	382	977.4	NA	0.0000		9999	13940	0	0	0
2019/01/04 09:48:00	BASE	1.54	69	2.93	116	-0.3	80	-3.3	170	382	977.4	NA	0.0000		9999	14010	0	0	0
2019/01/04 09:49:00	BASE	0.87	43	2.93	116	-0.2	80	-3.3	171	384	977.4	NA	0.0000		9999	13940	0	0	0
2019/01/04 09:50:00	BASE	0.23	26	2.68	115	-0.1	79	-3.3	173	389	977.4	NA	0.0000		9999	14010	0	0	0
2019/01/04 09:51:00	BASE	0.18	23	2.68	115	-0.0	79	-3.3	173	389	977.4	NA	0.0000		9999	14080	0	0	0
2019/01/04 09:52:00	BASE	0.00	37	2.42	111	0.0	78	-3.3	168	379	977.4	NA	0.0000		9999	14010	0	0	0
2019/01/04 09:53:00	BASE	0.00	27	2.31	110	0.1	77	-3.4	166	377	977.4	NA	0.0000		9999	13980	0	0	0
2019/01/04 09:54:00	BASE	0.42	358	2.01	62	0.1	77	-3.5	167	379	977.4	NA	0.0000		9999	13980	0	0	0
2019/01/04 09:55:00	BASE	0.46	14	2.01	62	0.1	77	-3.5	166	379	977.4	NA	0.0000		9999	13980	0	0	0
2019/01/04 09:56:00	BASE	0.95	17	2.21	1	0.1	77	-3.5	167	380	977.3	NA	0.0000		9999	13940	0	0	0
2019/01/04 09:57:00	BASE	0.99	349	2.21	1	0.1	77	-3.4	168	383	977.3	NA	0.0000		9999	0	0	0	0
2019/01/04 09:58:00	BASE	0.23	338	2.21	1	0.1	77	-3.4	166	380	977.3	NA	0.0000		9999	13910	0	0	0
2019/01/04 09:59:00	BASE	0.40	339	2.21	1	0.2	78	-3.2	167	381	977.3	NA	0.0000		9999	0	0	0	0
2019/01/04 10:00:00	BASE	0.44	1	2.21	1	0.2	78	-3.2	170	387	977.3	NA	0.0000		9999	13940	0	0	0
2019/01/04 10:01:00	BASE	0.19	22	2.21	1	0.2	78	-3.2	176	399	977.3	NA	0.0000		9999	0	0	0	0
2019/01/04 10:02:00	BASE	0.00	313	2.21	1	0.2	78	-3.1	178	405	977.3	NA	0.0000		9999	0	0	0	0
2019/01/04 10:03:00	BASE	0.00	282	2.21	1	0.3	78	-3.1	181	410	977.3	NA	0.0000		9999	0	0	0	0
2019/01/04 10:04:00	BASE	0.00	252	2.21	1	0.2	78	-3.1	188	424	977.3	NA	0.0000		9999	0	0	0	0
2019/01/04 10:05:00	BASE	0.00	203	2.21	1	0.2	78	-3.2	190	428	977.3	NA	0.0000		9999	0	0	0	0
2019/01/04 10:06:00	BASE	0.00	174	1.39	338	0.2	78	-3.2	191	430	977.3	NA	0.0000		9999	0	0	0	0
2019/01/04 10:07:00	BASE	0.00	170	1.39	338	0.2	78	-3.3	194	438	977.3	NA	0.0000		9999	0	0	0	0
2019/01/04 10:08:00	BASE	0.13	181	1.39	338	0.1	77	-3.4	197	443	977.3	NA	0.0000		9999	0	0	0	0
2019/01/04 10:09:00	BASE	0.18	187	1.29	51	0.1	77	-3.5	196	442	977.3	NA	0.0000		9999	0	0	0	0
2019/01/04 10:10:00	BASE	0.17	184	1.08	168	0.1	76	-3.6	195	442	977.3	NA	0.0000		9999	0	0	0	0
2019/01/04 10:11:00	BASE	0.55	170	1.18	175	0.1	76	-3.6	199	450	977.3	NA	0.0000		9999	0	0	0	0
2019/01/04 10:12:00	BASE	0.91	168	1.29	169	0.1	76	-3.6	207	465	977.3	NA	0.0000		9999	0	0	0	0
2019/01/04 10:13:00	BASE	1.14	174	1.49	188	0.0	76	-3.6	204	461	977.3	NA	0.0000		9999	0	0	0	0
2019/01/04 10:14:00	BASE	1.40	180	1.65	185	-0.0	77	-3.6	218	486	977.3	NA	0.0000		9999	0	0	0	0
2019/01/04 10:15:00	BASE	1.43	172	1.65	185	-0.0	77	-3.6	233	514	977.3	NA	0.0000		9999	0	0	0	0
2019/01/04 10:16:00	BASE	1.35	162	1.65	185	-0.0	77	-3.6	244	536	977.3	NA	0.0000		9999	0	0	0	0
2019/01/04 10:17:00	BASE	1.44	156	1.80	157	-0.0	78	-3.5	257	561	977.3	NA	0.0000		9999	0	0	0	0
2019/01/04 10:18:00	BASE	1.80	153	2.26	153	0.0	78	-3.3	246	542	977.3	NA	0.0000		9999	0	0	0	0
2019/01/04 10:19:00	BASE	2.08	153	2.26	153	0.0	79	-3.2	230	515	977.3	NA	0.0000		9999	0	0	0	0
2019/01/04 10:20:00	BASE	2.19	152	2.52	149	0.0	79	-3.1	218	493	977.3	NA	0.0000		9999	0	0	0	0
2019/01/04 10:21:00	BASE	2.25	150	2.52	149	0.0	80	-3.0	224	505	977.2	NA	0.0000		9999	0	0	0	0
2019/01/04 10:22:00	BASE	2.08	145	2.52	149	-0.0	81	-3.0	216	490	977.2	NA	0.0000		9999	0	0	0	0
2019/01/04 10:23:00	BASE	1.89	140	2.52	149	-0.0	81	-2.9	233	522	977.2	NA	0.0000		9999	0	0	0	0
2019/01/04 10:24:00	BASE	1.83	138	2.52	149	0.0	81	-2.9	285	617	977.2	NA	0.0000		9999	0	0	0	0
2019/01/04 10:25:00	BASE	1.87	135	2.52	149	0.0	81	-2.9	309	661	977.2	NA	0.0000		9999	0	0	0	0
2019/01/04 10:26:00	BASE	2.05	136	2.52	149	0.1	80	-2.9	287	621	977.2	NA	0.0000		9999	0	0	0	0
2019/01/04 10:27:00	BASE	2.37	138	2.78	141	0.2	80	-2.9	272	593	977.2	NA	0.0000		9999	0	0	0	0
2019/01/04 10:28:00	BASE	2.63	138	3.04	133	0.2	79	-3.0	261	571	977.2	NA	0.0000		9999	24350	0	0	0
2019/01/04 10:29:00	BASE	2.86	133	3.24	135	0.3	79	-3.0	273	594	977.2	NA	0.0000		9999	0	0	0	0
2019/01/04 10:30:00	BASE	2.88	126	3.24	135	0.3	78	-3.1	269	587	977.1	NA	0.0000		9999	0	0	0	0
2019/01/04 10:31:00	BASE	2.65	125	3.24	135	0.3	78	-3.1	275	600	977.1	NA	0.0000		9999	0	0	0	0
2019/01/04 10:32:00	BASE	2.44	124	3.24	135	0.2	78	-3.2	271	591	977.1	NA	0.0000		9999	0	0	0	0
2019/01/04 10:33:00	BASE	2.08	111	3.24	135	0.1	78	-3.2	258	568	977.1	NA	0.0000		9999	0	0	0	0
2019/01/04 10:34:00	BASE	2.54	96	3.45	89	0.1	79	-3.2	254	561	977.1	NA	0.0000		9999	0	0	0	0
2019/01/04 10:35:00	BASE	3.45	90	3.81	91	0.0	79	-3.1	261	575	977.1	NA	0.0000		9999	0	0	0	0
2019/01/04 10:36:00	BASE	3.66	90	3.91	85	-0.0	80	-3.0	265	585	977.1	NA	0.0000		9999	14830	0	0	0
2019/01/04 10:37:00	BASE	3.36	96	3.91	85	0.0	81	-2.9	259	574	977.0	NA	0.0000		9999	0	0	0	0
2019/01/04 10:38:00	BASE	2.87	104	3.91	85	0.0	81	-2.8	256	567	977.0	NA	0.0000		9999	0	0	0	0
2019/01/04 10:39:00	BASE	2.51	111	3.91	85	0.0	81	-2.8	253	562	977.0	NA	0.0000		9999	0	0	0	0
2019/01/04 10:40:00	BASE	2.33	107	3.91	85	-0.0	81	-2.8	246	549	977.0	NA	0.0000		9999	0	0	0	0
2019/01/04 10:41:00	BASE	2.40	95	3.91	85	0.0	81	-2.8	241	540	977.0	NA	0.0000		9999	20110	0	0	0
2019/01/04 10:42:00	BASE	2.42	95	3.91	85	0.0	81	-2.9	238	535	976.9	NA	0.0000		9999	0	0	0	0
2019/01/04 10:43:00	BASE	2.59	96	3.91	85	0.1	80	-2.9	238	534	976.8	NA	0.0000		9999	0	0	0	0
2019/01/04 10:44:00	BASE	2.81	89	3.91	85	0.1	80	-2.9	237	532	976.8	NA	0.0000		9999	0	0	0	0
2019/01/04 10:45:00	BASE	2.71	82	3.91	85	0.2	80	-2.9	238	533	976.8	NA	0.0000		9999	0	0	0	0
2019/01/04 10:46:00	BASE	2.52	70	3.50	90	0.2	79	-3.0	242	543	976.8	NA	0.0000		9999	0	0	0	0
2019/01/04 10:47:00	BASE	2.27	55	3.50	90	0.2	79	-2.9	245	547	976.8	NA	0.0000		9999	3150	0	0	0
2019/01/04 10:48:00	BASE	1.96	40	3.50	90	0.3	79	-3.0	256	570	976.8	NA	0.0000		9999	2920	0	0	0
2019/01/04 10:49:00	BASE	1.80	47	3.50	90	0.4	78	-3.1	254	567	976.8	NA	0.0000		9999	2620	3740	0	0
2019/01/04 10:50:00	BASE	1.90	66	3.50	90	0.5	77	-3.2	243	546	976.7	NA	0.0000		9999	2620	0	0	0
2019/01/04 10:51:00	BASE	1.93	65	3.50	90	0.6	75	-3.3	219	503	976.7	NA	0.0000		9999	2690	3180	0	0
2019/01/04 10:52:00	BASE	2.45	55	3.76	64	0.6	74	-3.4	239	540	976.7	NA	0.0000		9999	2720	0	0	0
2019/01/04 10:53:00	BASE	3.47	64	5.45	72	0.6	74	-3.5	234	531	976.7	NA	0.0000		9999	2620	0	0	0
2019/01/04 10:54:00	BASE	4.47	76	5.56	74	0.6	75	-3.4	236	535	976.6	NA	0.0000		9999	0	0	0	0
2019/01/04 10:55:00	BASE	4.67	77	5.56	74	0.6	75	-3.3	219	504	976.6	NA	0.0000		9999	0	0	0	0
2019/01/04 10:56:00	BASE	4.83	80	5.76	83	0.5	76	-3.2	214	497	976.6	NA	0.0000		9999	0	0	0	0
2019/01/04 10:57:00	BASE	5.56	85	6.17	84	0.5	77	-3.1	206	481	976.6	NA	0.0000		9999	0	0	0	0
2019/01/04 10:58:00	BASE	5.84	86	6.17	84	0.4	78	-3.0	204	479	976.6	NA	0.0000		9999	0	0	0	0
2019/01/04 10:59:00	BASE	5.67	87	6.17	84	0.3	79	-3.0	207	484	976.6	NA	0.0000		9999	2560	0	0	0
2019/01/04 11:00:00	BASE	5.10	89	6.17	84	0.2	80	-2.9	211	493	976.6	NA	0.0000		9999	2590	0	0	0
2019/01/04 11:01:00	BASE	4.95	88	6.17	84	0.2	80	-2.8	217	506	976.6	NA	0.0000		9999	2530	0	0	0
2019/01/04 11:02:00	BASE	5.22	86	6.17	84	0.2	81	-2.7	217	506	976.6	NA	0.0000		9999	2490	0	0	0
2019/01/04 11:03:00	BASE	5.18	90	6.17	84	0.2	81	-2.6	207	486	976.5	NA	0.0000		9999	2530	0	0	0
2019/01/04 11:04:00	BASE	5.14	94	6.17	84	0.2	82	-2.5	199	471	976.5	NA	0.0000		9999	2560	0	0	0
2019/01/04 11:05:00	BASE	5.40	93	6.17	84	0.2	83	-2.4	196	464	976.5	NA	0.0000		9999	2560	0	0	0
2019/01/04 11:06:00	BASE	5.54	94	6.17	84	0.2	83	-2.3	200	472	976.4	NA	0.0000		9999	2590	0	0	0
2019/01/04 11:07:00	BASE	5.51	94	6.12	86	0.2	83	-2.3	198	467	976.4	NA	0.0000		9999	2620	0	0	0
2019/01/04 11:08:00	BASE	5.02	97	5.81	94	0.2	83	-2.4	196	462	976.5	NA	0.0000		9999	2590	22800	0	0
2019/01/04 11:09:00	BASE	4.54	97	5.81	94	0.2	82	-2.4	197	465	976.4	NA	0.0000		9999	2590	0	0	0
2019/01/04 11:10:00	BASE	4.40	96	5.81	94	0.3	82	-2.5	205	481	976.4	NA	0.0000		9999	2560	0	0	0
2019/01/04 11:11:00	BASE	4.22	100	5.81	94	0.3	81	-2.5	243	554	976.4	NA	0.0000		9999	2560	0	0	0
2019/01/04 11:12:00	BASE	4.04	108	5.81	94	0.3	81	-2.5	254	573	976.4	NA	0.0000		9999	2620	0	0	0
2019/01/04 11:13:00	BASE	3.84	112	5.81	94	0.3	82	-2.5	234	537	976.4	NA	0.0000		9999	2620	0	0	0
2019/01/04 11:14:00	BASE	3.73	111	5.81	94	0.3	82	-2.4	258	584	976.4	NA	0.0000		9999	2560	0	0	0
2019/01/04 11:15:00	BASE	3.91	110	5.81	94	0.2	83	-2.4	247	564	976.4	NA	0.0000		9999	2590	0	0	0
2019/01/04 11:16:00	BASE	4.09	105	5.71	93	0.2	83	-2.3	248	566	976.4	NA	0.0000		9999	2590	0	0	0
2019/01/04 11:17:00	BASE	4.09	104	5.04	98	0.2	83	-2.3	251	573	976.4	NA	0.0000		9999	2590	0	0	0
2019/01/04 11:18:00	BASE	4.37	108	5.09	111	0.2	84	-2.2	245	565	976.3	NA	0.0000		9999	2590	0	0	0
2019/01/04 11:19:00	BASE	4.77	112	5.14	112	0.2	84	-2.2	243	561	976.2	NA	0.0000		9999	2590	0	0	0
2019/01/04 11:20:00	BASE	4.93	111	5.30	110	0.1	84	-2.2	239	553	976.2	NA	0.0000		9999	2620	0	0	0
2019/01/04 11:21:00	BASE	4.86	108	5.30	110	0.1	84	-2.2	220	517	976.2	NA	0.0000		9999	2590	10660	0	0
2019/01/04 11:22:00	BASE	4.68	105	5.30	110	0.0	85	-2.2	226	529	976.2	NA	0.0000		9999	10630	0	0	0
2019/01/04 11:23:00	BASE	4.56	100	5.30	110	0.0	85	-2.2	235	548	976.3	NA	0.0000		9999	11750	0	0	0
2019/01/04 11:24:00	BASE	4.44	96	5.30	110	0.0	84	-2.3	226	531	976.3	NA	0.0000		9999	10600	11750	0	0
2019/01/04 11:25:00	BASE	4.18	96	5.30	110	0.1	84	-2.3	259	596	976.3	NA	0.0000		9999	9650	0	0	0
2019/01/04 11:26:00	BASE	3.93	99	5.30	110	0.1	84	-2.3	233	547	976.2	NA	0.0000		9999	11680	0	0	0
2019/01/04 11:27:00	BASE	3.99	104	5.30	110	0.1	84	-2.4	252	587	976.2	NA	0.0000		9999	11610	0	0	0
2019/01/04 11:28:00	BASE	4.12	106	5.30	110	0.1	83	-2.4	249	582	976.2	NA	0.0000		9999	11550	0	0	0
2019/01/04 11:29:00	BASE	4.04	105	5.30	110	0.1	83	-2.5	263	612	976.2	NA	0.0000		9999	11520	0	0	0
2019/01/04 11:30:00	BASE	3.83	105	5.20	107	0.1	82	-2.6	284	654	976.2	NA	0.0000		9999	2690	11550	0	0
2019/01/04 11:31:00	BASE	3.73	106	4.89	94	0.0	82	-2.7	322	731	976.2	NA	0.0000		9999	2760	0	0	0
2019/01/04 11:32:00	BASE	3.86	104	4.89	94	0.1	82	-2.7	327	741	976.2	NA	0.0000		9999	2790	0	0	0
2019/01/04 11:33:00	BASE	3.93	99	4.48	97	0.1	82	-2.6	332	755	976.0	NA	0.0000		9999	2850	0	0	0
2019/01/04 11:34:00	BASE	4.22	98	4.68	101	0.2	81	-2.6	388	857	976.0	NA	0.0000		9999	2690	0	0	0
2019/01/04 11:35:00	BASE	4.50	103	4.68	107	0.2	81	-2.6	391	861	976.0	NA	0.0000		9999	2920	0	0	0
2019/01/04 11:36:00	BASE	4.81	110	5.86	113	0.3	81	-2.6	389	859	976.0	NA	0.0000		9999	10630	0	0	0
2019/01/04 11:37:00	BASE	5.12	115	5.86	113	0.3	81	-2.7	378	841	975.9	NA	0.0000		9999	11350	0	0	0
2019/01/04 11:38:00	BASE	5.25	115	5.92	117	0.3	80	-2.7	370	825	975.9	NA	0.0000		9999	11320	0	0	0
2019/01/04 11:39:00	BASE	5.35	116	5.92	117	0.3	80	-2.7	387	857	975.9	NA	0.0000		9999	11250	0	0	0
2019/01/04 11:40:00	BASE	5.34	119	5.92	117	0.3	80	-2.6	378	843	975.9	NA	0.0000		9999	12430	0	0	0
2019/01/04 11:41:00	BASE	5.21	114	5.92	117	0.4	80	-2.6	368	824	975.9	NA	0.0000		9999	12110	0	0	0
2019/01/04 11:42:00	BASE	4.87	109	5.92	117	0.4	80	-2.6	360	808	975.9	NA	0.0000		9999	12430	0	0	0
2019/01/04 11:43:00	BASE	4.69	116	5.92	117	0.4	80	-2.6	382	851	975.9	NA	0.0000		9999	11350	0	0	0
2019/01/04 11:44:00	BASE	4.58	109	5.92	117	0.5	80	-2.6	347	782	975.9	NA	0.0000		9999	11060	0	0	0
2019/01/04 11:45:00	BASE	4.34	97	5.92	117	0.5	80	-2.6	332	753	975.9	NA	0.0000		9999	11420	0	0	0
2019/01/04 11:46:00	BASE	4.22	97	5.92	117	0.5	80	-2.5	328	745	975.8	NA	0.0000		9999	11550	0	0	0
2019/01/04 11:47:00	BASE	4.92	101	5.97	107	0.5	80	-2.5	334	758	975.7	NA	0.0000		9999	12800	0	0	0
2019/01/04 11:48:00	BASE	5.78	105	6.22	108	0.5	80	-2.5	340	769	975.6	NA	0.0000		9999	12430	0	0	0
2019/01/04 11:49:00	BASE	5.65	105	6.22	108	0.5	81	-2.5	362	813	975.6	NA	0.0000		9999	11780	0	0	0
2019/01/04 11:50:00	BASE	5.22	106	6.22	108	0.4	81	-2.5	370	829	975.6	NA	0.0000		9999	11480	0	0	0
2019/01/04 11:51:00	BASE	4.91	108	6.22	108	0.4	81	-2.5	390	868	975.6	NA	0.0000		9999	11190	0	0	0
2019/01/04 11:52:00	BASE	4.57	112	6.22	108	0.4	81	-2.5	417	919	975.6	NA	0.0000		9999	11060	0	0	0
2019/01/04 11:53:00	BASE	4.49	113	6.22	108	0.4	81	-2.4	425	936	975.6	NA	0.0000		9999	11610	0	0	0
2019/01/04 11:54:00	BASE	4.56	107	6.22	108	0.4	82	-2.4	431	947	975.6	NA	0.0000		9999	12570	0	0	0
2019/01/04 11:55:00	BASE	4.55	102	6.22	108	0.4	82	-2.3	413	915	975.6	NA	0.0000		9999	12570	0	0	0
2019/01/04 11:56:00	BASE	4.21	108	6.22	108	0.5	82	-2.3	408	906	975.6	NA	0.0000		9999	10340	0	0	0
2019/01/04 11:57:00	BASE	3.83	113	6.22	108	0.5	82	-2.2	408	906	975.6	NA	0.0000		9999	12570	0	0	0
2019/01/04 11:58:00	BASE	3.91	111	5.81	108	0.5	82	-2.1	408	905	975.6	NA	0.0000		9999	12630	0	0	0
2019/01/04 11:59:00	BASE	4.01	106	5.81	108	0.5	83	-2.1	421	931	975.6	NA	0.0000		9999	12890	0	0	0
2019/01/04 12:00:00	BASE	3.99	110	5.35	97	0.5	83	-2.0	430	951	975.6	NA	0.0000		9999	12660	0	0	0
2019/01/04 12:01:00	BASE	3.55	120	5.35	97	0.5	83	-2.1	456	1001	975.6	NA	0.0000		9999	10340	0	0	0
2019/01/04 12:02:00	BASE	2.89	119	5.35	97	0.5	83	-2.1	455	1000	975.6	NA	0.0000		9999	10340	0	0	0
2019/01/04 12:03:00	BASE	2.80	112	5.35	97	0.5	83	-2.1	461	1013	975.6	NA	0.0000		9999	11680	0	0	0
2019/01/04 12:04:00	BASE	2.88	117	5.35	97	0.5	83	-2.1	456	1003	975.6	NA	0.0000		9999	11420	0	0	0
2019/01/04 12:05:00	BASE	2.93	125	4.89	107	0.6	83	-2.0	463	1018	975.6	NA	0.0000		9999	11750	0	0	0
2019/01/04 12:06:00	BASE	3.11	131	4.89	107	0.6	84	-1.9	481	1054	975.5	NA	0.0000		9999	13220	0	0	0
2019/01/04 12:07:00	BASE	3.17	139	4.89	107	0.7	84	-1.8	473	1040	975.4	NA	0.0000		9999	12830	0	0	0
2019/01/04 12:08:00	BASE	3.10	139	4.37	113	0.8	84	-1.6	474	1044	975.5	NA	0.0000		9999	11880	0	0	0
2019/01/04 12:09:00	BASE	3.09	132	4.37	113	0.9	85	-1.4	465	1026	975.6	NA	0.0000		9999	11780	0	0	0
2019/01/04 12:10:00	BASE	2.97	127	3.60	127	0.9	84	-1.4	443	986	975.6	NA	0.0000		9999	13220	0	0	0
2019/01/04 12:11:00	BASE	2.82	115	3.55	134	1.0	85	-1.3	438	976	975.6	NA	0.0000		9999	11780	0	0	0
2019/01/04 12:12:00	BASE	2.55	100	3.55	134	1.0	85	-1.3	430	962	975.6	NA	0.0000		9999	11810	0	0	0
2019/01/04 12:13:00	BASE	2.36	95	3.55	134	0.9	85	-1.3	426	955	975.6	NA	0.0000		9999	11250	0	0	0
2019/01/04 12:14:00	BASE	2.38	96	3.55	134	0.9	85	-1.4	418	943	975.4	NA	0.0000		9999	11320	0	0	0
2019/01/04 12:15:00	BASE	2.45	96	3.55	134	0.8	85	-1.4	387	884	975.4	NA	0.0000		9999	11120	0	0	0
2019/01/04 12:16:00	BASE	2.56	98	3.55	134	0.8	85	-1.4	373	857	975.4	NA	0.0000		9999	10530	0	0	0
2019/01/04 12:17:00	BASE	2.51	100	3.55	134	0.8	85	-1.4	377	865	975.4	NA	0.0000		9999	10340	0	0	0
2019/01/04 12:18:00	BASE	2.37	99	3.34	137	0.8	84	-1.5	363	836	975.4	NA	0.0000		9999	10240	0	0	0
2019/01/04 12:19:00	BASE	2.19	92	3.09	108	0.8	84	-1.6	375	862	975.4	NA	0.0000		9999	10890	0	0	0
2019/01/04 12:20:00	BASE	2.05	85	3.09	108	0.8	84	-1.6	374	856	975.4	NA	0.0000		9999	10830	0	0	0
2019/01/04 12:21:00	BASE	2.05	81	2.78	99	0.8	84	-1.7	375	859	975.4	NA	0.0000		9999	11120	0	0	0
2019/01/04 12:22:00	BASE	2.40	78	3.09	77	0.8	84	-1.7	372	854	975.4	NA	0.0000		9999	11020	0	0	0
2019/01/04 12:23:00	BASE	2.86	74	3.76	80	0.8	84	-1.7	359	828	975.4	NA	0.0000		9999	11190	0	0	0
2019/01/04 12:24:00	BASE	3.22	74	3.76	76	0.8	84	-1.7	348	808	975.4	NA	0.0000		9999	11420	0	0	0
2019/01/04 12:25:00	BASE	3.28	76	3.76	76	0.8	83	-1.8	333	779	975.3	NA	0.0000		9999	11420	0	0	0
2019/01/04 12:26:00	BASE	3.09	78	3.76	76	0.8	83	-1.8	326	765	975.3	NA	0.0000		9999	12470	0	0	0
2019/01/04 12:27:00	BASE	3.23	82	3.76	81	0.8	82	-1.9	323	759	975.3	NA	0.0000		9999	11020	0	0	0
2019/01/04 12:28:00	BASE	3.52	86	3.86	91	0.8	82	-1.9	321	754	975.3	NA	0.0000		9999	10990	0	0	0
2019/01/04 12:29:00	BASE	3.40	91	3.86	91	0.8	82	-1.9	320	753	975.3	NA	0.0000		9999	12400	0	0	0
2019/01/04 12:30:00	BASE	3.27	98	3.86	91	0.7	83	-1.9	321	754	975.2	NA	0.0000		9999	11020	0	0	0
2019/01/04 12:31:00	BASE	3.31	105	3.86	91	0.7	83	-2.0	324	761	975.2	NA	0.0000		9999	11910	0	0	0
2019/01/04 12:32:00	BASE	3.28	106	3.86	91	0.6	82	-2.1	332	775	975.2	NA	0.0000		9999	12930	0	0	0
2019/01/04 12:33:00	BASE	3.22	104	3.86	91	0.6	81	-2.2	341	794	975.2	NA	0.0000		9999	12630	0	0	0
2019/01/04 12:34:00	BASE	3.06	103	3.86	91	0.6	80	-2.4	344	801	975.2	NA	0.0000		9999	10830	0	0	0
2019/01/04 12:35:00	BASE	3.15	101	3.86	91	0.7	79	-2.6	347	807	975.2	NA	0.0000		9999	12010	0	0	0
2019/01/04 12:36:00	BASE	3.31	101	3.86	91	0.7	78	-2.6	352	818	975.1	NA	0.0000		9999	12730	0	0	0
2019/01/04 12:37:00	BASE	3.17	100	3.86	91	0.8	78	-2.6	360	833	975.1	NA	0.0000		9999	12400	0	0	0
2019/01/04 12:38:00	BASE	3.07	99	3.55	101	0.8	78	-2.6	362	838	975.1	NA	0.0000		9999	12270	0	0	0
2019/01/04 12:39:00	BASE	3.09	102	3.55	101	0.8	78	-2.6	372	860	975.1	NA	0.0000		9999	11750	0	0	0
2019/01/04 12:40:00	BASE	3.22	101	3.55	101	0.9	78	-2.6	364	845	975.1	NA	0.0000		9999	11780	0	0	0
2019/01/04 12:41:00	BASE	3.34	98	3.65	96	0.9	77	-2.6	361	841	975.0	NA	0.0000		9999	12070	0	0	0
2019/01/04 12:42:00	BASE	3.24	97	3.65	96	0.9	77	-2.7	353	826	974.9	NA	0.0000		9999	11390	0	0	0
2019/01/04 12:43:00	BASE	3.14	99	3.65	96	1.0	77	-2.7	343	808	974.9	NA	0.0000		9999	11120	0	0	0
2019/01/04 12:44:00	BASE	3.24	102	3.65	96	1.0	77	-2.7	334	791	974.9	NA	0.0000		9999	11940	0	0	0
2019/01/04 12:45:00	BASE	3.22	104	3.65	96	0.9	76	-2.8	325	776	974.8	NA	0.0000		9999	11090	20010	0	0
2019/01/04 12:46:00	BASE	2.98	101	3.65	96	0.9	76	-2.8	319	763	974.8	NA	0.0000		9999	10930	0	0	0
2019/01/04 12:47:00	BASE	2.92	102	3.65	96	0.8	77	-2.8	313	754	974.8	NA	0.0000		9999	14140	0	0	0
2019/01/04 12:48:00	BASE	2.91	100	3.65	96	0.8	77	-2.8	309	746	974.8	NA	0.0000		9999	13030	0	0	0
2019/01/04 12:49:00	BASE	3.14	98	3.81	95	0.8	77	-2.7	305	740	974.8	NA	0.0000		9999	13480	0	0	0
2019/01/04 12:50:00	BASE	3.37	98	3.81	95	0.8	78	-2.6	303	735	974.8	NA	0.0000		9999	12990	0	0	0
2019/01/04 12:51:00	BASE	3.15	97	3.81	95	0.8	78	-2.6	301	732	974.7	NA	0.0000		9999	13390	0	0	0
2019/01/04 12:52:00	BASE	3.00	100	3.81	95	0.8	78	-2.5	299	729	974.7	NA	0.0000		9999	11190	13420	0	0
2019/01/04 12:53:00	BASE	2.88	103	3.81	95	0.8	78	-2.5	297	725	974.6	NA	0.0000		9999	14110	0	0	0
2019/01/04 12:54:00	BASE	2.57	108	3.81	95	0.8	79	-2.5	294	721	974.6	NA	0.0000		9999	13350	0	0	0
2019/01/04 12:55:00	BASE	2.62	108	3.81	95	0.8	79	-2.4	293	718	974.6	NA	0.0000		9999	11390	13060	0	0
2019/01/04 12:56:00	BASE	2.81	93	3.81	95	0.9	79	-2.3	292	717	974.6	NA	0.0000		9999	13120	0	0	0
2019/01/04 12:57:00	BASE	2.94	69	3.81	95	0.9	79	-2.3	293	719	974.6	NA	0.0000		9999	11610	12960	0	0
2019/01/04 12:58:00	BASE	2.70	64	3.81	95	1.0	78	-2.4	293	721	974.6	NA	0.0000		9999	13580	0	0	0
2019/01/04 12:59:00	BASE	2.03	94	3.65	97	1.0	78	-2.3	294	722	974.5	NA	0.0000		9999	11550	13160	0	0
2019/01/04 13:00:00	BASE	2.62	111	4.32	95	1.1	78	-2.3	293	722	974.5	NA	0.0000		9999	11580	13290	0	0
2019/01/04 13:01:00	BASE	3.83	102	4.48	96	1.1	78	-2.3	293	721	974.5	NA	0.0000		9999	11580	13260	0	0
2019/01/04 13:02:00	BASE	4.18	102	4.58	103	1.0	79	-2.3	292	720	974.5	NA	0.0000		9999	11650	13290	0	0
2019/01/04 13:03:00	BASE	3.96	105	4.58	103	1.0	79	-2.3	292	721	974.5	NA	0.0000		9999	11650	0	0	0
2019/01/04 13:04:00	BASE	3.91	108	4.58	103	0.9	79	-2.4	293	724	974.5	NA	0.0000		9999	11840	0	0	0
2019/01/04 13:05:00	BASE	4.42	106	5.14	103	0.8	79	-2.5	296	729	974.3	NA	0.0000		9999	11940	0	0	0
2019/01/04 13:06:00	BASE	4.75	102	5.71	89	0.8	79	-2.5	298	733	974.3	NA	0.0000		9999	11980	0	0	0
2019/01/04 13:07:00	BASE	4.24	103	5.71	89	0.8	78	-2.6	299	737	974.3	NA	0.0000		9999	11290	0	0	0
2019/01/04 13:08:00	BASE	3.69	114	5.71	89	0.8	78	-2.6	300	739	974.3	NA	0.0000		9999	11390	0	0	0
2019/01/04 13:09:00	BASE	3.35	135	5.71	89	0.8	78	-2.6	301	741	974.2	NA	0.0000		9999	11520	0	0	0
2019/01/04 13:10:00	BASE	2.79	152	5.71	89	0.8	78	-2.6	302	743	974.2	NA	0.0000		9999	11390	0	0	0
2019/01/04 13:11:00	BASE	2.40	164	5.71	89	0.9	77	-2.6	304	747	974.2	NA	0.0000		9999	11090	0	0	0
2019/01/04 13:12:00	BASE	2.26	171	5.71	89	0.9	77	-2.6	306	752	974.2	NA	0.0000		9999	10990	0	0	0
2019/01/04 13:13:00	BASE	2.21	168	5.71	89	0.9	77	-2.6	309	758	974.2	NA	0.0000		9999	10960	0	0	0
2019/01/04 13:14:00	BASE	2.01	145	5.71	89	1.0	77	-2.6	312	765	974.2	NA	0.0000		9999	10990	0	0	0
2019/01/04 13:15:00	BASE	2.13	129	5.71	89	1.0	77	-2.6	315	770	974.2	NA	0.0000		9999	10990	0	0	0
2019/01/04 13:16:00	BASE	2.56	128	4.27	103	1.1	77	-2.6	317	775	974.2	NA	0.0000		9999	10990	0	0	0
2019/01/04 13:17:00	BASE	2.41	127	3.76	127	1.1	77	-2.5	319	780	974.2	NA	0.0000		9999	11120	0	0	0
2019/01/04 13:18:00	BASE	1.94	123	3.40	144	1.2	77	-2.4	321	784	974.2	NA	0.0000		9999	11190	0	0	0
2019/01/04 13:19:00	BASE	1.05	111	3.24	145	1.1	77	-2.4	323	788	974.2	NA	0.0000		9999	11250	0	0	0
2019/01/04 13:20:00	BASE	0.20	105	3.24	145	1.1	78	-2.4	325	792	974.2	NA	0.0000		9999	11020	0	0	0
2019/01/04 13:21:00	BASE	0.24	126	3.24	145	1.1	78	-2.4	327	797	974.2	NA	0.0000		9999	10960	0	0	0
2019/01/04 13:22:00	BASE	0.42	141	3.24	145	1.0	77	-2.5	330	803	974.2	NA	0.0000		9999	10990	0	0	0
2019/01/04 13:23:00	BASE	0.67	137	3.19	120	1.0	77	-2.6	333	810	974.2	NA	0.0000		9999	10990	0	0	0
2019/01/04 13:24:00	BASE	0.52	141	3.19	120	1.0	76	-2.7	338	820	974.1	NA	0.0000		9999	10990	0	0	0
2019/01/04 13:25:00	BASE	0.68	139	3.09	123	1.0	76	-2.6	345	834	974.1	NA	0.0000		9999	10890	0	0	0
2019/01/04 13:26:00	BASE	1.60	134	2.47	133	1.1	76	-2.6	352	849	974.1	NA	0.0000		9999	10860	0	0	0
2019/01/04 13:27:00	BASE	2.12	129	2.62	113	1.1	77	-2.5	359	865	974.1	NA	0.0000		9999	10630	0	0	0
2019/01/04 13:28:00	BASE	2.74	119	3.55	112	1.1	77	-2.5	366	878	974.1	NA	0.0000		9999	10790	0	0	0
2019/01/04 13:29:00	BASE	3.24	112	3.55	112	1.1	77	-2.5	374	895	974.1	NA	0.0000		9999	10630	0	0	0
2019/01/04 13:30:00	BASE	3.31	114	3.55	112	1.0	78	-2.4	387	923	974.1	NA	0.0000		9999	10600	0	0	0
2019/01/04 13:31:00	BASE	3.24	119	3.55	112	0.9	78	-2.4	396	945	974.0	NA	0.0000		9999	10600	0	0	0
2019/01/04 13:32:00	BASE	3.32	121	3.76	121	0.8	79	-2.5	395	943	974.0	NA	0.0000		9999	10660	0	0	0
2019/01/04 13:33:00	BASE	3.40	121	3.76	121	0.8	79	-2.4	394	941	974.0	NA	0.0000		9999	10600	0	0	0
2019/01/04 13:34:00	BASE	3.18	119	3.76	121	0.8	80	-2.2	392	938	974.0	NA	0.0000		9999	10660	0	0	0
2019/01/04 13:35:00	BASE	2.93	118	3.76	121	0.8	81	-2.1	395	945	974.0	NA	0.0000		9999	10660	0	0	0
2019/01/04 13:36:01	BASE	2.88	122	3.76	121	0.8	82	-1.9	399	956	973.9	NA	0.0000		9999	10630	0	0	0
2019/01/04 13:37:00	BASE	2.88	125	3.76	121	0.8	83	-1.8	401	960	973.9	NA	0.0000		9999	10630	0	0	0
2019/01/04 13:38:00	BASE	2.69	124	3.76	121	0.8	83	-1.7	405	967	973.9	NA	0.0000		9999	10600	0	0	0
2019/01/04 13:39:00	BASE	2.60	123	3.76	121	0.8	83	-1.7	409	975	973.9	NA	0.0000		9999	10660	0	0	0
2019/01/04 13:40:00	BASE	2.73	124	3.76	121	0.9	83	-1.8	411	979	973.9	NA	0.0000		9999	10700	0	0	0
2019/01/04 13:41:00	BASE	2.72	124	3.76	121	0.9	82	-1.9	416	988	973.9	NA	0.0000		9999	11610	0	0	0
2019/01/04 13:42:00	BASE	2.70	126	3.60	122	0.9	82	-1.9	423	1006	973.9	NA	0.0000		9999	0	0	0	0
2019/01/04 13:43:00	BASE	2.76	125	3.34	118	0.9	82	-1.9	432	1029	973.9	NA	0.0000		9999	11880	0	0	0
2019/01/04 13:44:00	BASE	2.72	122	3.19	123	0.9	82	-1.9	431	1027	973.9	NA	0.0000		9999	11290	11910	0	0
2019/01/04 13:45:00	BASE	2.50	120	3.19	123	0.9	82	-1.9	475	1115	973.9	NA	0.0000		9999	11450	0	0	0
2019/01/04 13:46:00	BASE	2.39	117	3.19	123	0.9	82	-1.8	573	1305	973.9	NA	0.0000		9999	11780	0	0	0
2019/01/04 13:47:00	BASE	2.42	115	3.19	123	0.9	82	-1.8	547	1249	973.9	NA	0.0000		9999	13320	0	0	0
2019/01/04 13:48:00	BASE	2.50	113	3.19	123	0.9	82	-1.9	538	1231	973.9	NA	0.0000		9999	13420	0	0	0
2019/01/04 13:49:00	BASE	2.42	108	3.19	123	1.0	81	-1.9	484	1123	973.9	NA	0.0000		9999	13220	0	0	0
2019/01/04 13:50:00	BASE	2.24	104	2.93	128	1.0	81	-1.8	452	1058	973.9	NA	0.0000		9999	19360	0	0	0
2019/01/04 13:51:00	BASE	2.27	103	2.93	128	1.0	81	-1.9	442	1039	973.8	NA	0.0000		9999	12760	0	0	0
2019/01/04 13:52:00	BASE	2.15	100	2.88	121	1.1	80	-1.9	431	1016	973.7	NA	0.0000		9999	12660	0	0	0
2019/01/04 13:53:00	BASE	2.00	97	2.88	121	1.1	79	-2.1	445	1044	973.7	NA	0.0000		9999	12700	0	0	0
2019/01/04 13:54:00	BASE	1.90	97	2.78	110	1.1	79	-2.2	442	1036	973.7	NA	0.0000		9999	12960	0	0	0
2019/01/04 13:55:00	BASE	1.69	99	2.78	110	1.1	78	-2.3	458	1068	973.7	NA	0.0000		9999	14400	0	0	0
2019/01/04 13:56:00	BASE	1.47	98	2.78	110	1.1	77	-2.4	475	1101	973.7	NA	0.0000		9999	15190	0	0	0
2019/01/04 13:57:00	BASE	1.43	94	2.78	110	1.2	77	-2.4	473	1097	973.7	NA	0.0000		9999	0	0	0	0
2019/01/04 13:58:00	BASE	1.40	90	2.52	99	1.2	77	-2.3	466	1084	973.7	NA	0.0000		9999	13680	0	0	0
2019/01/04 13:59:00	BASE	1.25	87	2.42	104	1.2	78	-2.2	445	1044	973.7	NA	0.0000		9999	17750	0	0	0
2019/01/04 14:00:00	BASE	1.32	82	2.42	104	1.2	78	-2.1	442	1038	973.7	NA	0.0000		9999	18010	0	0	0
2019/01/04 14:01:00	BASE	1.43	82	2.16	101	1.2	78	-2.1	442	1040	973.7	NA	0.0000		9999	13680	0	0	0
2019/01/04 14:02:00	BASE	1.26	84	2.16	101	1.2	78	-2.2	441	1037	973.7	NA	0.0000		9999	12960	0	0	0
2019/01/04 14:03:00	BASE	1.28	82	1.95	99	1.2	78	-2.2	442	1038	973.7	NA	0.0000		9999	12960	0	0	0
2019/01/04 14:04:00	BASE	1.30	83	1.80	93	1.2	77	-2.3	442	1038	973.6	NA	0.0000		9999	13060	0	0	0
2019/01/04 14:05:00	BASE	1.13	96	1.70	86	1.2	77	-2.4	452	1060	973.6	NA	0.0000		9999	13160	0	0	0
2019/01/04 14:06:00	BASE	0.65	109	1.70	86	1.3	76	-2.4	475	1103	973.6	NA	0.0000		9999	12370	0	0	0
2019/01/04 14:07:00	BASE	0.33	117	1.65	79	1.3	76	-2.4	464	1078	973.6	NA	0.0000		9999	12600	0	0	0
2019/01/04 14:08:00	BASE	0.32	126	1.65	79	1.4	76	-2.5	445	1038	973.6	NA	0.0000		9999	0	0	0	0
2019/01/04 14:09:00	BASE	0.27	132	1.65	79	1.4	75	-2.4	435	1019	973.6	NA	0.0000		9999	9060	0	0	0
2019/01/04 14:10:00	BASE	0.96	149	1.65	163	1.5	75	-2.4	428	1005	973.6	NA	0.0000		9999	12660	0	0	0
2019/01/04 14:11:01	BASE	1.55	166	1.75	165	1.5	75	-2.5	423	996	973.5	NA	0.0000		9999	9020	0	0	0
2019/01/04 14:12:00	BASE	1.47	171	1.75	165	1.4	75	-2.5	418	985	973.5	NA	0.0000		9999	12730	0	0	0
2019/01/04 14:13:00	BASE	1.20	172	1.75	165	1.3	76	-2.5	413	976	973.5	NA	0.0000		9999	12760	0	0	0
2019/01/04 14:14:00	BASE	0.59	168	1.75	165	1.2	76	-2.5	402	953	973.5	NA	0.0000		9999	8960	0	0	0
2019/01/04 14:15:00	BASE	0.09	163	1.75	165	1.1	76	-2.6	393	936	973.5	NA	0.0000		9999	9220	0	0	0
2019/01/04 14:16:00	BASE	0.00	154	1.75	165	1.1	77	-2.6	386	921	973.5	NA	0.0000		9999	8830	0	0	0
2019/01/04 14:17:00	BASE	0.00	159	1.75	165	1.1	77	-2.6	380	911	973.5	NA	0.0000		9999	8660	0	0	0
2019/01/04 14:18:00	BASE	0.00	172	1.75	165	1.1	77	-2.5	376	902	973.4	NA	0.0000		9999	8660	0	0	0
2019/01/04 14:19:00	BASE	0.00	162	1.75	165	1.2	76	-2.5	371	891	973.4	NA	0.0000		9999	8430	0	0	0
2019/01/04 14:20:00	BASE	0.09	158	1.75	165	1.3	76	-2.5	364	878	973.4	NA	0.0000		9999	8630	0	0	0
2019/01/04 14:21:00	BASE	0.59	187	1.59	170	1.4	75	-2.5	356	862	973.3	NA	0.0000		9999	14110	0	0	0
2019/01/04 14:22:00	BASE	0.75	212	1.34	219	1.4	75	-2.6	347	845	973.3	NA	0.0000		9999	9550	0	0	0
2019/01/04 14:23:00	BASE	0.24	215	1.34	219	1.4	74	-2.7	338	826	973.3	NA	0.0000		9999	8760	0	0	0
2019/01/04 14:24:00	BASE	0.00	207	1.34	219	1.3	73	-2.9	328	806	973.3	NA	0.0000		9999	8890	0	0	0
2019/01/04 14:25:00	BASE	0.00	181	1.34	219	1.3	73	-3.1	316	782	973.2	NA	0.0000		9999	6890	0	0	0
2019/01/04 14:26:01	BASE	0.00	154	1.34	219	1.3	72	-3.1	305	761	973.2	NA	0.0000		9999	7020	0	0	0
2019/01/04 14:27:00	BASE	0.00	142	1.34	219	1.4	72	-3.1	296	745	973.2	NA	0.0000		9999	7050	0	0	0
2019/01/04 14:28:00	BASE	0.00	122	1.34	219	1.6	72	-3.0	290	734	973.2	NA	0.0000		9999	6660	0	0	0
2019/01/04 14:29:00	BASE	0.00	92	1.34	219	1.6	71	-3.1	288	730	973.1	NA	0.0000		9999	5350	8600	0	0
2019/01/04 14:30:00	BASE	0.00	81	1.34	219	1.6	71	-3.0	288	732	973.1	NA	0.0000		9999	8500	0	0	0
2019/01/04 14:31:00	BASE	0.00	81	1.34	219	1.6	71	-3.1	290	737	973.0	NA	0.0000		9999	5410	8430	0	0
2019/01/04 14:32:00	BASE	0.00	68	M	M	1.6	70	-3.2	293	742	973.0	NA	0.0000		9999	5450	8600	0	0
2019/01/04 14:33:00	BASE	0.50	40	2.31	74	1.5	70	-3.3	295	747	973.0	NA	0.0000		9999	6370	0	0	0
2019/01/04 14:34:00	BASE	0.67	41	2.31	74	1.6	70	-3.2	297	752	972.9	NA	0.0000		9999	8040	0	0	0
2019/01/04 14:35:00	BASE	0.21	35	2.31	74	1.6	70	-3.2	298	754	972.9	NA	0.0000		9999	8860	0	0	0
2019/01/04 14:36:00	BASE	0.04	356	2.31	74	1.7	71	-3.0	298	754	972.9	NA	0.0000		9999	9090	0	0	0
2019/01/04 14:37:00	BASE	0.00	330	2.31	74	1.7	71	-3.0	297	752	972.9	NA	0.0000		9999	6300	0	0	0
2019/01/04 14:38:00	BASE	0.09	325	2.31	74	1.7	71	-3.0	296	749	972.9	NA	0.0000		9999	8040	0	0	0
2019/01/04 14:39:00	BASE	0.43	320	2.31	74	1.6	72	-3.0	293	745	972.9	NA	0.0000		9999	9290	0	0	0
2019/01/04 14:40:00	BASE	0.53	310	2.31	74	1.5	72	-3.0	291	740	972.9	NA	0.0000		9999	7480	0	0	0
2019/01/04 14:41:00	BASE	0.20	294	2.31	74	1.5	72	-3.0	288	735	972.9	NA	0.0000		9999	9220	0	0	0
2019/01/04 14:42:00	BASE	0.27	267	2.31	74	1.4	72	-3.0	285	731	972.9	NA	0.0000		9999	7190	0	0	0
2019/01/04 14:43:00	BASE	0.31	254	1.54	85	1.3	73	-3.0	283	728	972.9	NA	0.0000		9999	7610	0	0	0
2019/01/04 14:44:00	BASE	0.05	254	1.23	310	1.3	73	-3.0	282	727	972.9	NA	0.0000		9999	7910	0	0	0
2019/01/04 14:45:00	BASE	0.00	254	1.23	310	1.2	74	-2.9	284	731	972.8	NA	0.0000		9999	7910	0	0	0
2019/01/04 14:46:00	BASE	0.00	234	1.23	310	1.3	74	-2.9	288	740	972.9	NA	0.0000		9999	7870	0	0	0
2019/01/04 14:47:00	BASE	0.00	165	1.23	310	1.3	74	-2.8	294	754	972.8	NA	0.0000		9999	7780	0	0	0
2019/01/04 14:48:00	BASE	0.00	111	1.23	310	1.5	74	-2.7	304	773	972.8	NA	0.0000		9999	8040	0	0	0
2019/01/04 14:49:00	BASE	0.00	104	1.23	310	1.6	74	-2.6	314	794	972.8	NA	0.0000		9999	8460	0	0	0
2019/01/04 14:50:00	BASE	0.13	128	1.08	142	1.8	73	-2.5	322	812	972.8	NA	0.0000		9999	8460	0	0	0
2019/01/04 14:51:00	BASE	0.23	144	1.13	156	1.8	73	-2.5	333	833	972.8	NA	0.0000		9999	7780	0	0	0
2019/01/04 14:52:00	BASE	0.14	135	1.13	156	1.9	73	-2.4	341	849	972.8	NA	0.0000		9999	8400	0	0	0
2019/01/04 14:53:00	BASE	0.05	128	1.13	156	1.9	74	-2.3	340	847	972.8	NA	0.0000		9999	8530	0	0	0
2019/01/04 14:54:00	BASE	0.00	131	1.13	156	1.9	74	-2.3	340	845	972.8	NA	0.0000		9999	8660	0	0	0
2019/01/04 14:55:00	BASE	0.00	132	1.13	156	1.9	74	-2.2	341	846	972.8	NA	0.0000		9999	9150	0	0	0
2019/01/04 14:56:00	BASE	0.00	117	1.13	156	2.0	74	-2.2	341	846	972.8	NA	0.0000		9999	7910	0	0	0
2019/01/04 14:57:00	BASE	0.00	122	1.13	156	2.0	74	-2.2	340	844	972.8	NA	0.0000		9999	8010	0	0	0
2019/01/04 14:58:00	BASE	0.23	137	1.29	136	2.0	74	-2.3	339	842	972.8	NA	0.0000		9999	8690	0	0	0
2019/01/04 14:59:00	BASE	0.91	136	1.54	128	1.9	74	-2.3	338	840	972.8	NA	0.0000		9999	7840	0	0	0
2019/01/04 15:00:00	BASE	1.44	132	1.59	132	1.9	74	-2.2	338	840	972.8	NA	0.0000		9999	7940	0	0	0
2019/01/04 15:01:00	BASE	1.46	134	1.65	145	1.8	74	-2.3	337	839	972.8	NA	0.0000		9999	7710	0	0	0
2019/01/04 15:02:00	BASE	1.49	134	2.06	128	1.8	75	-2.1	336	836	972.8	NA	0.0000		9999	6270	0	0	0
2019/01/04 15:03:00	BASE	1.72	133	2.11	132	1.9	76	-1.9	334	833	972.8	NA	0.0000		9999	6140	0	0	0
2019/01/04 15:04:00	BASE	1.94	135	2.11	136	1.9	76	-1.9	332	829	972.7	NA	0.0000		9999	8100	0	0	0
2019/01/04 15:05:00	BASE	2.07	134	2.31	128	2.0	76	-1.9	330	825	972.7	NA	0.0000		9999	7580	0	0	0
2019/01/04 15:06:00	BASE	1.99	132	2.31	128	2.1	75	-1.8	327	819	972.7	NA	0.0000		9999	5970	0	0	0
2019/01/04 15:07:00	BASE	1.78	129	2.31	128	2.1	75	-1.9	323	811	972.7	NA	0.0000		9999	5870	0	0	0
2019/01/04 15:08:00	BASE	1.79	127	2.31	128	2.0	75	-2.0	319	802	972.7	NA	0.0000		9999	5840	0	0	0
2019/01/04 15:09:00	BASE	1.87	122	2.31	128	1.9	75	-2.0	313	792	972.7	NA	0.0000		9999	7350	0	0	0
2019/01/04 15:10:00	BASE	1.88	117	2.31	128	1.8	76	-2.0	308	780	972.6	NA	0.0000		9999	5480	0	0	0
2019/01/04 15:11:00	BASE	1.76	120	2.31	128	1.7	77	-2.0	302	769	972.6	NA	0.0000		9999	7320	0	0	0
2019/01/04 15:12:00	BASE	1.50	118	2.31	128	1.6	78	-1.9	297	760	972.6	NA	0.0000		9999	7020	0	0	0
2019/01/04 15:13:00	BASE	1.41	114	2.31	128	1.5	79	-1.8	294	753	972.6	NA	0.0000		9999	6920	0	0	0
2019/01/04 15:14:00	BASE	1.44	116	2.31	128	1.5	79	-1.8	292	749	972.5	NA	0.0000		9999	6960	0	0	0
2019/01/04 15:15:00	BASE	1.82	110	2.52	100	1.5	79	-1.8	290	747	972.4	NA	0.0000		9999	6790	0	0	0
2019/01/04 15:16:00	BASE	2.38	103	3.24	107	1.5	79	-1.8	290	748	972.4	NA	0.0000		9999	23200	0	0	0
2019/01/04 15:17:00	BASE	2.59	104	3.24	107	1.6	77	-2.0	291	751	972.4	NA	0.0000		9999	24210	0	0	0
2019/01/04 15:18:00	BASE	2.47	110	3.24	107	1.7	75	-2.3	295	759	972.4	NA	0.0000		9999	6790	0	0	0
2019/01/04 15:19:00	BASE	2.30	116	3.24	107	1.7	73	-2.5	299	769	972.4	NA	0.0000		9999	6560	0	0	0
2019/01/04 15:20:00	BASE	2.30	109	3.24	107	1.8	71	-2.8	304	780	972.4	NA	0.0000		9999	5350	0	0	0
2019/01/04 15:21:00	BASE	2.44	103	3.24	107	1.9	70	-3.0	309	792	972.4	NA	0.0000		9999	5180	0	0	0
2019/01/04 15:22:00	BASE	2.40	105	3.24	107	1.9	70	-3.1	316	806	972.4	NA	0.0000		9999	5150	0	0	0
2019/01/04 15:23:00	BASE	2.42	101	3.24	107	1.9	70	-3.1	321	818	972.4	NA	0.0000		9999	7250	0	0	0
2019/01/04 15:24:00	BASE	2.40	97	3.24	107	1.9	70	-3.1	325	826	972.4	NA	0.0000		9999	8240	0	0	0
2019/01/04 15:25:00	BASE	2.24	99	3.24	107	2.0	70	-3.0	328	832	972.4	NA	0.0000		9999	8630	0	0	0
2019/01/04 15:26:00	BASE	2.60	100	3.14	94	1.9	70	-3.0	330	837	972.3	NA	0.0000		9999	8730	0	0	0
2019/01/04 15:27:00	BASE	2.97	97	3.19	93	2.0	70	-2.9	331	839	972.3	NA	0.0000		9999	8890	0	0	0
2019/01/04 15:28:00	BASE	3.10	99	3.45	103	1.9	71	-2.8	332	842	972.3	NA	0.0000		9999	8690	0	0	0
2019/01/04 15:29:00	BASE	3.17	99	3.45	103	1.9	71	-2.8	334	845	972.3	NA	0.0000		9999	8790	0	0	0
2019/01/04 15:30:00	BASE	3.02	97	3.45	103	1.9	71	-2.8	336	849	972.3	NA	0.0000		9999	8730	0	0	0
2019/01/04 15:31:00	BASE	2.86	95	3.45	103	1.9	72	-2.7	337	852	972.3	NA	0.0000		9999	9380	0	0	0
2019/01/04 15:32:00	BASE	2.82	92	3.45	103	1.9	72	-2.7	337	851	972.3	NA	0.0000		9999	9190	0	0	0
2019/01/04 15:33:00	BASE	2.81	84	3.45	103	1.9	71	-2.8	334	845	972.3	NA	0.0000		9999	9220	0	0	0
2019/01/04 15:34:00	BASE	2.59	78	3.45	103	1.9	72	-2.6	331	837	972.3	NA	0.0000		9999	8690	0	0	0
2019/01/04 15:35:00	BASE	2.33	79	3.45	103	2.0	72	-2.6	327	829	972.3	NA	0.0000		9999	8040	0	0	0
2019/01/04 15:36:00	BASE	2.15	83	3.45	103	2.0	72	-2.6	324	822	972.3	NA	0.0000		9999	8010	0	0	0
2019/01/04 15:37:00	BASE	1.84	86	3.45	103	2.0	71	-2.6	323	819	972.3	NA	0.0000		9999	7940	18830	0	0
2019/01/04 15:38:00	BASE	1.73	88	3.19	93	2.1	71	-2.6	323	817	972.3	NA	0.0000		9999	7970	0	0	0
2019/01/04 15:39:00	BASE	1.74	84	3.19	93	2.1	70	-2.8	321	813	972.2	NA	0.0000		9999	7910	0	0	0
2019/01/04 15:40:00	BASE	1.69	79	3.14	84	2.1	69	-3.0	319	809	972.3	NA	0.0000		9999	7910	19820	0	0
2019/01/04 15:41:00	BASE	1.80	86	3.14	84	2.1	68	-3.1	318	806	972.3	NA	0.0000		9999	7970	0	0	0
2019/01/04 15:42:00	BASE	1.92	96	3.14	84	2.1	68	-3.2	317	803	972.3	NA	0.0000		9999	8010	0	0	0
2019/01/04 15:43:00	BASE	2.18	107	2.78	107	2.1	68	-3.2	316	800	972.2	NA	0.0000		9999	8070	0	0	0
2019/01/04 15:44:00	BASE	2.40	112	2.78	107	2.0	69	-3.0	314	795	972.2	NA	0.0000		9999	8070	0	0	0
2019/01/04 15:45:00	BASE	2.17	106	2.78	107	1.9	71	-2.9	308	783	972.2	NA	0.0000		9999	8040	0	0	0
2019/01/04 15:46:00	BASE	1.70	96	2.78	107	1.8	72	-2.7	300	768	972.3	NA	0.0000		9999	8010	0	0	0
2019/01/04 15:47:00	BASE	1.66	90	2.78	107	1.8	73	-2.5	294	757	972.3	NA	0.0000		9999	7910	0	0	0
2019/01/04 15:48:00	BASE	2.01	91	2.78	107	1.8	74	-2.3	291	751	972.3	NA	0.0000		9999	7870	0	0	0
2019/01/04 15:49:00	BASE	2.14	89	2.78	107	1.8	75	-2.2	288	744	972.3	NA	0.0000		9999	7870	0	0	0
2019/01/04 15:50:00	BASE	2.09	94	2.78	107	1.9	75	-2.0	281	732	972.2	NA	0.0000		9999	8010	0	0	0
2019/01/04 15:51:00	BASE	2.12	108	2.78	107	2.0	75	-2.1	276	720	972.2	NA	0.0000		9999	7910	0	0	0
2019/01/04 15:52:00	BASE	2.39	116	2.88	112	1.9	75	-2.1	271	711	972.2	NA	0.0000		9999	7840	0	0	0
2019/01/04 15:53:00	BASE	2.52	114	2.88	112	1.9	75	-2.1	269	706	972.2	NA	0.0000		9999	7840	0	0	0
2019/01/04 15:54:00	BASE	2.43	104	2.88	112	1.8	75	-2.2	268	705	972.2	NA	0.0000		9999	7810	0	0	0
2019/01/04 15:55:00	BASE	2.50	91	2.88	112	1.7	75	-2.2	269	706	972.1	NA	0.0000		9999	7780	0	0	0
2019/01/04 15:56:00	BASE	2.52	80	2.88	112	1.6	76	-2.2	270	709	972.1	NA	0.0000		9999	7840	0	0	0
2019/01/04 15:57:00	BASE	2.51	74	2.88	112	1.6	76	-2.2	271	713	972.1	NA	0.0000		9999	7780	0	0	0
2019/01/04 15:58:00	BASE	2.42	73	2.88	112	1.7	76	-2.2	274	718	972.1	NA	0.0000		9999	7610	0	0	0
2019/01/04 15:59:00	BASE	2.25	71	2.88	112	1.7	75	-2.2	274	719	972.0	NA	0.0000		9999	7740	0	0	0
2019/01/04 16:00:00	BASE	2.03	65	2.88	112	1.8	75	-2.3	268	707	972.0	NA	0.0000		9999	7780	0	0	0
2019/01/04 16:01:00	BASE	1.84	61	2.88	112	1.9	74	-2.3	262	697	972.0	NA	0.0000		9999	7710	0	0	0
2019/01/04 16:02:00	BASE	1.55	60	2.73	84	2.0	73	-2.4	259	690	972.0	NA	0.0000		9999	7640	0	0	0
2019/01/04 16:03:00	BASE	1.54	67	2.73	84	2.1	72	-2.5	256	685	972.0	NA	0.0000		9999	5940	7580	0	0
2019/01/04 16:04:00	BASE	1.95	74	2.73	84	2.2	71	-2.6	254	681	972.0	NA	0.0000		9999	7550	0	0	0
2019/01/04 16:05:00	BASE	2.10	69	2.62	70	2.3	70	-2.6	253	679	971.9	NA	0.0000		9999	7550	0	0	0
2019/01/04 16:06:00	BASE	2.01	70	2.62	70	2.4	69	-2.7	252	679	971.8	NA	0.0000		9999	7480	0	0	0
2019/01/04 16:07:00	BASE	2.01	73	2.47	79	2.4	69	-2.8	253	679	971.8	NA	0.0000		9999	7380	0	0	0
2019/01/04 16:08:00	BASE	1.91	69	2.37	87	2.3	69	-2.8	252	679	971.8	NA	0.0000		9999	7380	0	0	0
2019/01/04 16:09:00	BASE	1.80	70	2.42	73	2.3	69	-2.8	252	677	971.8	NA	0.0000		9999	7320	0	0	0
2019/01/04 16:10:00	BASE	1.29	82	2.42	73	2.3	68	-2.9	252	677	971.8	NA	0.0000		9999	7280	0	0	0
2019/01/04 16:11:00	BASE	1.16	78	2.42	73	2.3	68	-3.0	252	679	971.8	NA	0.0000		9999	7350	0	0	0
2019/01/04 16:12:00	BASE	1.61	69	2.42	73	2.4	67	-3.1	253	681	971.7	NA	0.0000		9999	7190	0	0	0
2019/01/04 16:13:00	BASE	1.61	69	2.42	73	2.4	67	-3.1	254	683	971.7	NA	0.0000		9999	6920	0	0	0
2019/01/04 16:14:00	BASE	1.66	71	2.42	73	2.3	67	-3.2	256	686	971.7	NA	0.0000		9999	7150	0	0	0
2019/01/04 16:15:00	BASE	1.73	80	2.42	73	2.3	67	-3.1	259	692	971.7	NA	0.0000		9999	7220	0	0	0
2019/01/04 16:16:00	BASE	1.58	88	2.42	73	2.2	68	-3.1	264	702	971.7	NA	0.0000		9999	6820	0	0	0
2019/01/04 16:17:00	BASE	1.54	119	2.42	73	2.2	68	-3.0	268	712	971.7	NA	0.0000		9999	7020	0	0	0
2019/01/04 16:18:00	BASE	1.79	149	2.68	142	2.2	69	-2.8	269	714	971.7	NA	0.0000		9999	7050	0	0	0
2019/01/04 16:19:00	BASE	2.86	139	4.12	118	2.2	71	-2.5	266	709	971.7	NA	0.0000		9999	7120	0	0	0
2019/01/04 16:20:00	BASE	3.69	128	4.12	118	2.2	72	-2.3	263	701	971.7	NA	0.0000		9999	6990	0	0	0
2019/01/04 16:21:00	BASE	3.37	126	4.12	118	2.1	74	-2.1	259	693	971.7	NA	0.0000		9999	6820	0	0	0
2019/01/04 16:22:00	BASE	2.87	121	4.12	118	1.9	76	-1.9	254	683	971.7	NA	0.0000		9999	6760	0	0	0
2019/01/04 16:23:00	BASE	2.34	117	4.12	118	1.8	77	-1.9	250	674	971.7	NA	0.0000		9999	6820	21520	0	0
2019/01/04 16:24:00	BASE	1.99	119	4.12	118	1.6	78	-1.8	247	667	971.7	NA	0.0000		9999	6760	0	0	0
2019/01/04 16:25:00	BASE	2.26	122	4.12	118	1.5	79	-1.7	244	661	971.7	NA	0.0000		9999	6860	0	0	0
2019/01/04 16:26:00	BASE	2.82	121	4.12	118	1.5	80	-1.6	241	656	971.6	NA	0.0000		9999	6760	22440	0	0
2019/01/04 16:27:00	BASE	3.25	121	4.12	118	1.4	81	-1.5	240	653	971.6	NA	0.0000		9999	6760	0	0	0
2019/01/04 16:28:00	BASE	3.36	120	4.12	118	1.4	81	-1.4	239	652	971.6	NA	0.0000		9999	6730	0	0	0
2019/01/04 16:29:00	BASE	3.17	116	4.01	134	1.4	82	-1.4	239	652	971.6	NA	0.0000		9999	6730	0	0	0
2019/01/04 16:30:00	BASE	3.14	111	3.65	122	1.3	83	-1.3	238	650	971.6	NA	0.0000		9999	6730	0	0	0
2019/01/04 16:31:00	BASE	2.95	112	3.65	122	1.3	84	-1.2	237	648	971.6	NA	0.0000		9999	6660	0	0	0
2019/01/04 16:32:00	BASE	2.76	115	3.65	122	1.2	84	-1.1	238	650	971.6	NA	0.0000		9999	6660	0	0	0
2019/01/04 16:33:00	BASE	2.60	112	3.65	122	1.2	85	-1.0	240	654	971.6	NA	0.0000		9999	6660	0	0	0
2019/01/04 16:34:00	BASE	2.47	108	3.65	122	1.3	85	-1.0	241	656	971.6	NA	0.0000		9999	6760	0	0	0
2019/01/04 16:35:00	BASE	2.51	105	3.65	122	1.3	85	-0.9	240	652	971.6	NA	0.0000		9999	4890	0	0	0
2019/01/04 16:36:00	BASE	2.58	102	3.65	122	1.4	85	-0.9	238	648	971.6	NA	0.0000		9999	6820	0	0	0
2019/01/04 16:37:00	BASE	2.53	103	3.50	111	1.4	84	-1.0	238	647	971.6	NA	0.0000		9999	6860	0	0	0
2019/01/04 16:38:00	BASE	2.65	107	3.50	111	1.4	83	-1.2	238	646	971.6	NA	0.0000		9999	4660	0	0	0
2019/01/04 16:39:00	BASE	2.84	112	3.50	111	1.4	82	-1.2	238	646	971.6	NA	0.0000		9999	7020	0	0	0
2019/01/04 16:40:00	BASE	2.59	114	3.09	113	1.5	82	-1.3	237	644	971.6	NA	0.0000		9999	4230	0	0	0
2019/01/04 16:41:00	BASE	2.38	114	3.09	113	1.5	81	-1.3	235	641	971.5	NA	0.0000		9999	4330	6730	16670	0
2019/01/04 16:42:00	BASE	2.27	116	3.09	113	1.5	81	-1.3	234	640	971.5	NA	0.0000		9999	4070	0	0	0
2019/01/04 16:43:00	BASE	2.12	121	3.09	113	1.6	81	-1.3	234	638	971.5	NA	0.0000		9999	4300	0	0	0
2019/01/04 16:44:00	BASE	1.95	123	3.09	113	1.6	81	-1.2	233	636	971.5	NA	0.0000		9999	4300	0	0	0
2019/01/04 16:45:00	BASE	1.79	125	3.09	113	1.6	81	-1.3	232	633	971.5	NA	0.0000		9999	4430	0	0	0
2019/01/04 16:46:00	BASE	1.71	126	3.09	113	1.6	81	-1.2	230	629	971.5	NA	0.0000		9999	6590	0	0	0
2019/01/04 16:47:00	BASE	1.67	123	3.09	113	1.7	81	-1.2	227	623	971.5	NA	0.0000		9999	4990	0	0	0
2019/01/04 16:48:00	BASE	1.67	117	2.98	116	1.7	81	-1.2	223	612	971.4	NA	0.0000		9999	5090	0	0	0
2019/01/04 16:49:00	BASE	1.85	118	2.78	118	1.7	81	-1.2	215	593	971.4	NA	0.0000		9999	7050	0	0	0
2019/01/04 16:50:00	BASE	2.21	128	2.73	116	1.7	81	-1.2	204	568	971.4	NA	0.0000		9999	3870	0	0	0
2019/01/04 16:51:00	BASE	2.63	143	3.24	160	1.8	81	-1.2	193	544	971.3	NA	0.0000		9999	4170	0	0	0
2019/01/04 16:52:00	BASE	2.82	153	3.34	158	1.7	80	-1.4	185	524	971.2	NA	0.0000		9999	3940	0	0	0
2019/01/04 16:53:00	BASE	2.79	149	3.34	158	1.7	79	-1.5	177	507	971.2	NA	0.0000		9999	4200	0	0	0
2019/01/04 16:54:00	BASE	2.78	141	3.34	158	1.8	79	-1.5	170	491	971.2	NA	0.0000		9999	4360	0	0	0
2019/01/04 16:55:00	BASE	2.69	141	3.34	158	1.8	78	-1.5	165	477	971.2	NA	0.0000		9999	4430	0	0	0
2019/01/04 16:56:00	BASE	2.30	137	3.34	158	1.9	78	-1.6	160	466	971.2	NA	0.0000		9999	4430	0	0	0
2019/01/04 16:57:00	BASE	2.08	135	3.34	158	2.0	78	-1.5	156	457	971.2	NA	0.0000		9999	4100	0	0	0
2019/01/04 16:58:00	BASE	2.20	138	3.34	158	2.0	78	-1.4	153	449	971.2	NA	0.0000		9999	4200	0	0	0
2019/01/04 16:59:00	BASE	2.24	130	3.34	158	2.0	78	-1.5	150	441	971.2	NA	0.0000		9999	4530	0	0	0
2019/01/04 17:00:00	BASE	2.28	117	3.34	158	2.0	77	-1.5	147	436	971.2	NA	0.0000		9999	4690	0	0	0
2019/01/04 17:01:00	BASE	2.51	108	3.34	158	2.0	77	-1.6	145	431	971.2	NA	0.0000		9999	4590	0	0	0
2019/01/04 17:02:00	BASE	2.83	110	3.19	122	1.8	77	-1.7	145	428	971.2	NA	0.0000		9999	6300	0	0	0
2019/01/04 17:03:00	BASE	3.22	119	3.76	123	1.8	78	-1.7	145	428	971.2	NA	0.0000		9999	6430	0	0	0
2019/01/04 17:04:00	BASE	3.74	120	4.12	119	1.7	78	-1.8	146	431	971.2	NA	0.0000		9999	6530	0	0	0
2019/01/04 17:05:00	BASE	4.08	118	4.58	120	1.6	78	-1.8	149	436	971.2	NA	0.0000		9999	6500	0	0	0
2019/01/04 17:06:00	BASE	4.09	115	4.58	120	1.6	78	-1.8	150	440	971.2	NA	0.0000		9999	4460	0	0	0
2019/01/04 17:07:00	BASE	3.94	111	4.58	120	1.6	78	-1.8	152	444	971.2	NA	0.0000		9999	4660	6500	0	0
2019/01/04 17:08:00	BASE	3.88	115	4.58	120	1.5	79	-1.8	154	449	971.2	NA	0.0000		9999	5350	6460	0	0
2019/01/04 17:09:00	BASE	3.82	122	4.58	120	1.5	79	-1.8	156	455	971.2	NA	0.0000		9999	3380	0	0	0
2019/01/04 17:10:00	BASE	3.68	122	4.58	120	1.5	79	-1.8	158	461	971.2	NA	0.0000		9999	3580	4560	6370	0
2019/01/04 17:11:00	BASE	3.64	118	4.58	120	1.5	79	-1.8	162	469	971.2	NA	0.0000		9999	6100	0	0	0
2019/01/04 17:12:00	BASE	3.35	117	4.58	120	1.5	79	-1.7	165	478	971.2	NA	0.0000		9999	6270	0	0	0
2019/01/04 17:13:00	BASE	3.09	113	4.58	120	1.5	80	-1.6	168	486	971.2	NA	0.0000		9999	6000	0	0	0
2019/01/04 17:14:00	BASE	3.28	107	4.58	120	1.5	80	-1.5	171	494	971.2	NA	0.0000		9999	5740	0	0	0
2019/01/04 17:15:00	BASE	3.47	106	4.37	115	1.5	81	-1.5	174	501	971.2	NA	0.0000		9999	5640	0	0	0
2019/01/04 17:16:00	BASE	3.88	105	4.58	105	1.5	82	-1.3	175	503	971.1	NA	0.0000		9999	6070	0	0	0
2019/01/04 17:17:00	BASE	4.40	105	4.68	102	1.5	82	-1.3	175	503	971.1	NA	0.0000		9999	5810	0	0	0
2019/01/04 17:18:00	BASE	4.61	104	4.78	104	1.5	81	-1.3	175	502	971.1	NA	0.0000		9999	6460	0	0	0
2019/01/04 17:19:00	BASE	4.68	102	4.78	104	1.6	80	-1.4	175	502	971.0	NA	0.0000		9999	6330	0	0	0
2019/01/04 17:20:00	BASE	4.55	106	4.84	110	1.7	79	-1.5	176	503	971.0	NA	0.0000		9999	6330	0	0	0
2019/01/04 17:21:00	BASE	4.22	110	4.84	110	1.7	78	-1.7	177	505	971.0	NA	0.0000		9999	6300	0	0	0
2019/01/04 17:22:00	BASE	3.83	107	4.84	110	1.8	77	-1.9	177	504	971.0	NA	0.0000		9999	6270	0	0	0
2019/01/04 17:23:00	BASE	3.54	99	4.84	110	1.8	76	-1.9	176	501	971.0	NA	0.0000		9999	6460	0	0	0
2019/01/04 17:24:00	BASE	3.41	90	4.84	110	1.9	76	-2.0	175	497	971.0	NA	0.0000		9999	5970	0	0	0
2019/01/04 17:25:00	BASE	3.19	84	4.84	110	1.9	76	-2.0	174	495	971.0	NA	0.0000		9999	6300	0	0	0
2019/01/04 17:26:00	BASE	3.09	81	4.84	110	1.9	77	-1.8	174	493	971.0	NA	0.0000		9999	3670	0	0	0
2019/01/04 17:27:00	BASE	3.22	73	4.84	110	1.9	77	-1.7	173	491	971.1	NA	0.0000		9999	3640	0	0	0
2019/01/04 17:28:00	BASE	3.19	71	4.84	110	1.9	77	-1.6	173	490	971.0	NA	0.0000		9999	5910	0	0	0
2019/01/04 17:29:00	BASE	2.70	85	4.84	110	1.9	78	-1.6	173	490	970.9	NA	0.0000		9999	3710	0	0	0
2019/01/04 17:30:00	BASE	2.27	95	4.27	113	1.9	78	-1.5	172	488	970.9	NA	0.0000		9999	3870	0	0	0
2019/01/04 17:31:00	BASE	2.30	83	4.01	102	2.0	77	-1.6	170	482	971.0	NA	0.0000		9999	3970	6590	0	0
2019/01/04 17:32:00	BASE	2.15	72	3.70	99	2.0	77	-1.6	167	474	970.9	NA	0.0000		9999	3970	0	0	0
2019/01/04 17:33:00	BASE	1.52	87	3.55	68	2.0	77	-1.6	164	466	970.9	NA	0.0000		9999	5320	0	0	0
2019/01/04 17:34:00	BASE	1.26	101	3.55	68	1.9	77	-1.6	161	458	970.9	NA	0.0000		9999	4200	0	0	0
2019/01/04 17:35:00	BASE	1.41	106	3.55	68	2.0	78	-1.5	157	448	970.8	NA	0.0000		9999	4490	0	0	0
2019/01/04 17:36:00	BASE	1.35	120	3.55	68	2.0	77	-1.5	153	438	970.9	NA	0.0000		9999	4360	0	0	0
2019/01/04 17:37:00	BASE	1.33	126	3.55	68	2.0	77	-1.6	150	432	970.8	NA	0.0000		9999	5280	0	0	0
2019/01/04 17:38:00	BASE	1.34	125	2.62	64	2.0	76	-1.7	149	428	970.8	NA	0.0000		9999	5410	0	0	0
2019/01/04 17:39:00	BASE	1.52	129	2.62	64	2.1	76	-1.8	147	426	970.8	NA	0.0000		9999	5020	0	0	0
2019/01/04 17:40:00	BASE	1.91	130	2.62	64	2.2	75	-1.8	147	426	970.8	NA	0.0000		9999	4920	0	0	0
2019/01/04 17:41:00	BASE	2.12	125	2.47	112	2.1	75	-1.9	147	426	970.8	NA	0.0000		9999	5180	0	0	0
2019/01/04 17:42:00	BASE	2.19	119	2.62	118	2.1	75	-1.8	148	428	970.8	NA	0.0000		9999	5150	0	0	0
2019/01/04 17:43:00	BASE	2.01	113	2.62	118	2.1	75	-1.9	148	428	970.9	NA	0.0000		9999	5050	0	0	0
2019/01/04 17:44:00	BASE	1.77	110	2.62	118	2.0	75	-1.9	147	426	970.9	NA	0.0000		9999	5250	0	0	0
2019/01/04 17:45:00	BASE	1.57	113	2.62	118	2.0	75	-1.9	145	422	970.8	NA	0.0000		9999	5020	0	0	0
2019/01/04 17:46:00	BASE	1.40	116	2.62	118	2.0	76	-1.9	143	417	970.8	NA	0.0000		9999	4920	0	0	0
2019/01/04 17:47:00	BASE	1.54	113	2.62	118	1.9	76	-1.8	141	412	970.8	NA	0.0000		9999	4890	0	0	0
2019/01/04 17:48:00	BASE	1.72	113	2.62	118	1.9	76	-1.8	139	408	970.7	NA	0.0000		9999	4130	0	0	0
2019/01/04 17:49:00	BASE	1.63	118	2.62	118	1.9	77	-1.8	138	404	970.8	NA	0.0000		9999	5090	0	0	0
2019/01/04 17:50:00	BASE	1.58	119	2.62	118	1.9	77	-1.7	136	400	970.8	NA	0.0000		9999	4860	0	0	0
2019/01/04 17:51:00	BASE	1.58	115	2.62	118	1.9	78	-1.6	135	398	970.7	NA	0.0000		9999	5090	0	0	0
2019/01/04 17:52:00	BASE	1.43	121	2.01	109	1.9	78	-1.6	136	400	970.6	NA	0.0000		9999	4300	0	0	0
2019/01/04 17:53:00	BASE	1.44	132	1.95	112	1.9	79	-1.5	137	405	970.6	NA	0.0000		9999	4230	0	0	0
2019/01/04 17:54:00	BASE	1.59	145	1.95	112	1.9	79	-1.4	139	411	970.6	NA	0.0000		9999	4040	0	0	0
2019/01/04 17:55:00	BASE	1.81	154	2.11	159	1.9	79	-1.4	141	416	970.5	NA	0.0000		9999	3740	0	0	0
2019/01/04 17:56:00	BASE	1.97	161	2.11	165	1.9	78	-1.5	142	421	970.4	NA	0.0000		9999	3670	0	0	0
2019/01/04 17:57:00	BASE	1.80	172	2.11	165	1.9	78	-1.6	144	426	970.4	NA	0.0000		9999	3670	0	0	0
2019/01/04 17:58:00	BASE	1.51	177	2.11	165	1.9	77	-1.7	146	429	970.5	NA	0.0000		9999	4430	0	0	0
2019/01/04 17:59:00	BASE	1.39	169	2.11	165	1.9	76	-1.8	147	434	970.6	NA	0.0000		9999	5380	0	0	0
2019/01/04 18:00:00	BASE	1.10	156	2.11	165	2.0	76	-1.8	150	439	970.5	NA	0.0000		9999	5480	0	0	0
2019/01/04 18:01:00	BASE	1.11	152	2.11	165	2.0	76	-1.8	152	444	970.5	NA	0.0000		9999	5840	0	0	0
2019/01/04 18:02:00	BASE	1.26	161	2.11	165	2.0	76	-1.8	153	447	970.4	NA	0.0000		9999	5770	0	0	0
2019/01/04 18:03:00	BASE	1.12	180	2.11	165	2.0	76	-1.8	154	450	970.4	NA	0.0000		9999	5770	0	0	0
2019/01/04 18:04:00	BASE	1.31	197	2.11	165	2.0	76	-1.8	155	450	970.4	NA	0.0000		9999	5810	0	0	0
2019/01/04 18:05:00	BASE	1.47	200	2.11	165	2.0	75	-1.9	155	449	970.4	NA	0.0000		9999	5810	0	0	0
2019/01/04 18:06:00	BASE	1.24	191	1.85	180	2.0	75	-2.0	153	444	970.4	NA	0.0000		9999	5810	0	0	0
2019/01/04 18:07:00	BASE	0.57	176	1.70	172	1.9	75	-2.0	151	438	970.4	NA	0.0000		9999	5840	0	0	0
2019/01/04 18:08:00	BASE	0.28	170	1.70	172	1.9	75	-2.1	148	432	970.4	NA	0.0000		9999	5770	0	0	0
2019/01/04 18:09:00	BASE	0.90	171	1.75	170	1.9	75	-2.1	147	428	970.4	NA	0.0000		9999	5740	0	0	0
2019/01/04 18:10:00	BASE	1.58	168	2.21	160	1.9	75	-2.1	146	425	970.4	NA	0.0000		9999	5710	0	0	0
2019/01/04 18:11:00	BASE	2.08	160	2.52	152	1.9	75	-2.1	145	425	970.4	NA	0.0000		9999	5710	0	0	0
2019/01/04 18:12:00	BASE	2.30	154	2.52	152	2.0	75	-2.0	145	425	970.4	NA	0.0000		9999	5710	0	0	0
2019/01/04 18:13:00	BASE	2.18	152	2.52	152	1.9	75	-2.0	146	428	970.4	NA	0.0000		9999	5840	0	0	0
2019/01/04 18:14:00	BASE	2.02	146	2.52	152	1.9	75	-2.0	148	432	970.4	NA	0.0000		9999	5050	0	0	0
2019/01/04 18:15:00	BASE	1.95	144	2.52	152	1.9	76	-1.9	150	438	970.4	NA	0.0000		9999	4130	0	0	0
2019/01/04 18:16:00	BASE	1.87	140	2.52	152	2.0	76	-1.8	153	444	970.4	NA	0.0000		9999	5120	0	0	0
2019/01/04 18:17:00	BASE	2.11	124	2.68	111	2.0	77	-1.7	156	451	970.4	NA	0.0000		9999	5350	0	0	0
2019/01/04 18:18:00	BASE	2.45	114	2.73	113	2.0	77	-1.6	160	460	970.4	NA	0.0000		9999	5510	0	0	0
2019/01/04 18:19:00	BASE	2.42	111	2.78	116	2.1	77	-1.5	164	469	970.4	NA	0.0000		9999	5480	0	0	0
2019/01/04 18:20:00	BASE	2.09	114	2.78	116	2.0	77	-1.5	167	476	970.4	NA	0.0000		9999	5150	0	0	0
2019/01/04 18:21:00	BASE	1.81	125	2.78	116	2.0	78	-1.5	170	480	970.3	NA	0.0000		9999	5250	0	0	0
2019/01/04 18:22:00	BASE	2.03	137	2.78	116	2.0	78	-1.5	172	483	970.3	NA	0.0000		9999	3580	0	0	0
2019/01/04 18:23:00	BASE	2.53	143	3.04	145	2.0	78	-1.5	174	486	970.2	NA	0.0000		9999	3900	19750	0	0
2019/01/04 18:24:00	BASE	2.95	141	3.34	135	2.0	78	-1.4	175	489	970.2	NA	0.0000		9999	4000	0	0	0
2019/01/04 18:25:00	BASE	2.93	133	3.55	120	2.1	78	-1.4	176	488	970.2	NA	0.0000		9999	4990	0	0	0
2019/01/04 18:26:00	BASE	2.84	126	3.55	127	2.1	77	-1.5	175	485	970.2	NA	0.0000		9999	4890	0	0	0
2019/01/04 18:27:00	BASE	2.83	119	3.55	127	2.1	76	-1.7	172	478	970.3	NA	0.0000		9999	3280	0	0	0
2019/01/04 18:28:00	BASE	2.56	113	3.55	127	2.1	76	-1.7	168	468	970.3	NA	0.0000		9999	2590	0	0	0
2019/01/04 18:29:00	BASE	2.47	106	3.55	127	2.1	75	-1.8	165	459	970.3	NA	0.0000		9999	3870	0	0	0
2019/01/04 18:30:00	BASE	2.44	94	3.55	127	2.1	75	-1.8	162	453	970.4	NA	0.0000		9999	4230	0	0	0
2019/01/04 18:31:00	BASE	2.63	78	3.55	127	2.1	76	-1.7	160	449	970.3	NA	0.0000		9999	2260	0	0	0
2019/01/04 18:32:00	BASE	2.75	70	3.55	127	2.1	76	-1.7	161	451	970.3	NA	0.0000		9999	2200	21590	0	0
2019/01/04 18:33:00	BASE	2.34	84	3.55	127	2.1	77	-1.6	162	454	970.3	NA	0.0000		9999	3900	0	0	0
2019/01/04 18:34:00	BASE	2.25	108	3.55	127	2.2	77	-1.5	163	457	970.2	NA	0.0000		9999	4200	0	0	0
2019/01/04 18:35:00	BASE	2.44	123	3.55	127	2.2	77	-1.5	165	461	970.2	NA	0.0000		9999	2690	0	0	0
2019/01/04 18:36:00	BASE	2.57	130	3.34	102	2.2	76	-1.5	166	463	970.2	NA	0.0000		9999	3580	0	0	0
2019/01/04 18:37:00	BASE	2.68	127	3.34	102	2.2	76	-1.5	166	464	970.2	NA	0.0000		9999	3740	0	0	0
2019/01/04 18:38:00	BASE	2.44	121	3.34	102	2.3	77	-1.4	168	469	970.3	NA	0.0000		9999	3710	0	0	0
2019/01/04 18:39:00	BASE	1.92	112	3.34	102	2.3	77	-1.3	173	479	970.2	NA	0.0000		9999	3580	0	0	0
2019/01/04 18:40:00	BASE	1.58	94	3.34	102	2.3	78	-1.2	176	487	970.2	NA	0.0000		9999	3770	0	0	0
2019/01/04 18:41:00	BASE	0.98	78	3.19	126	2.3	78	-1.1	178	491	970.2	NA	0.0000		9999	3580	0	0	0
2019/01/04 18:42:00	BASE	0.23	88	3.19	126	2.2	78	-1.1	179	493	970.2	NA	0.0000		9999	1510	0	0	0
2019/01/04 18:43:00	BASE	0.51	122	3.19	126	2.2	79	-1.1	181	498	970.2	NA	0.0000		9999	1410	0	0	0
2019/01/04 18:44:00	BASE	1.35	142	3.19	126	2.3	79	-1.1	185	508	970.2	NA	0.0000		9999	3310	0	0	0
2019/01/04 18:45:00	BASE	1.72	135	3.19	126	2.3	79	-1.0	191	521	970.2	NA	0.0000		9999	1310	0	0	0
2019/01/04 18:46:00	BASE	1.51	121	3.19	126	2.3	79	-1.0	196	532	970.2	NA	0.0000		9999	3540	0	0	0
2019/01/04 18:47:00	BASE	1.42	113	2.83	116	2.4	79	-0.8	198	536	970.2	NA	0.0000		9999	3640	0	0	0
2019/01/04 18:48:00	BASE	1.42	115	2.11	122	2.4	80	-0.8	200	540	970.2	NA	0.0000		9999	3410	0	0	0
2019/01/04 18:49:00	BASE	1.40	125	2.11	122	2.4	80	-0.7	204	552	970.2	NA	0.0000		9999	3080	0	0	0
2019/01/04 18:50:00	BASE	1.69	127	2.11	122	2.3	81	-0.6	213	571	970.1	NA	0.0000		9999	2950	0	0	0
2019/01/04 18:51:00	BASE	1.98	120	2.26	110	2.3	82	-0.5	219	585	970.2	NA	0.0000		9999	3020	0	0	0
2019/01/04 18:52:00	BASE	2.11	115	2.57	117	2.3	82	-0.5	222	591	970.2	NA	0.0000		9999	3250	0	0	0
2019/01/04 18:53:00	BASE	1.52	110	2.57	117	2.3	83	-0.3	224	597	970.1	NA	0.0000		9999	3180	0	0	0
2019/01/04 18:54:00	BASE	0.65	116	2.57	117	2.3	83	-0.3	230	610	970.1	NA	0.0000		9999	2990	0	0	0
2019/01/04 18:55:00	BASE	0.19	127	2.57	117	2.3	84	-0.2	238	629	970.1	NA	0.0000		9999	1710	0	0	0
2019/01/04 18:56:00	BASE	0.43	129	2.57	117	2.3	84	-0.2	247	647	970.1	NA	0.0000		9999	0	0	0	3180
2019/01/04 18:57:00	BASE	1.35	121	2.57	117	2.4	84	-0.1	251	656	970.1	NA	0.0000		9999	2920	0	0	0
2019/01/04 18:58:00	BASE	2.16	107	2.98	98	2.4	83	-0.1	254	660	970.1	NA	0.0000		9999	3350	0	0	0
2019/01/04 18:59:00	BASE	2.75	102	3.65	103	2.4	83	-0.2	258	670	970.0	NA	0.0000		9999	3180	0	0	0
2019/01/04 19:00:00	BASE	3.29	102	3.86	104	2.5	82	-0.3	265	683	970.0	NA	0.0000		9999	3150	0	0	0
2019/01/04 19:01:00	BASE	3.76	103	4.22	107	2.5	80	-0.5	273	701	970.0	NA	0.0000		9999	3250	0	0	0
2019/01/04 19:02:00	BASE	3.98	104	4.42	104	2.6	79	-0.8	281	717	970.0	NA	0.0000		9999	3350	0	0	0
2019/01/04 19:03:00	BASE	4.04	104	4.42	103	2.7	77	-1.0	290	736	969.9	NA	0.0000		9999	3510	0	0	0
2019/01/04 19:04:00	BASE	4.04	105	4.42	103	2.8	75	-1.3	297	752	969.9	NA	0.0000		9999	3380	0	0	0
2019/01/04 19:05:00	BASE	4.09	107	4.53	109	2.8	74	-1.4	300	757	969.9	NA	0.0000		9999	3410	0	0	0
2019/01/04 19:06:00	BASE	4.07	109	4.53	109	2.9	73	-1.5	299	754	969.9	NA	0.0000	UP	9999	24020	0	0	0
2019/01/04 19:07:00	BASE	3.88	109	4.53	109	2.9	73	-1.5	297	751	969.9	NA	0.0000	UP	9999	0	0	0	4690
2019/01/04 19:08:00	BASE	3.63	110	4.53	109	2.9	73	-1.4	296	749	969.8	NA	0.0000	UP	9999	3740	0	0	0
2019/01/04 19:09:00	BASE	3.62	106	4.53	109	2.9	74	-1.3	297	751	969.8	NA	0.0000	UP	9999	0	0	0	4400
2019/01/04 19:10:00	BASE	3.96	101	4.68	101	2.9	74	-1.3	298	751	969.8	NA	0.0000	UP	9999	0	0	0	4820
2019/01/04 19:11:00	BASE	4.48	102	5.45	110	2.9	74	-1.2	297	749	969.8	NA	0.0000	UP	9999	4100	0	0	0
2019/01/04 19:12:00	BASE	4.66	110	5.45	110	2.9	74	-1.3	294	742	969.8	NA	0.0000	UP	9999	3840	0	0	0
2019/01/04 19:13:00	BASE	4.66	120	5.56	118	2.9	74	-1.3	290	733	969.8	NA	0.0000	UP	9999	4000	0	0	0
2019/01/04 19:14:00	BASE	4.61	125	5.56	118	2.9	74	-1.3	287	725	969.8	NA	0.0000	UP	9999	3710	0	0	0
2019/01/04 19:15:00	BASE	4.76	126	5.66	122	2.9	74	-1.3	282	716	969.7	NA	0.0000	UP	9999	3770	0	0	0
2019/01/04 19:16:00	BASE	5.03	124	5.66	122	2.9	74	-1.4	277	705	969.7	NA	0.0000	UP	9999	3710	0	0	0
2019/01/04 19:17:00	BASE	5.29	125	6.69	127	2.9	74	-1.3	273	697	969.7	NA	0.0000	UP	9999	3840	0	0	0
2019/01/04 19:18:00	BASE	6.22	123	8.08	118	3.0	74	-1.2	271	693	969.7	NA	0.0000	UP	9999	3540	0	0	0
2019/01/04 19:19:00	BASE	7.23	119	8.28	128	3.0	74	-1.2	269	688	969.6	NA	0.0000	UP	9999	3580	0	0	0
2019/01/04 19:20:00	BASE	7.29	121	8.28	128	3.0	74	-1.2	265	679	969.6	NA	0.0000		9999	3740	0	0	0
2019/01/04 19:21:00	BASE	6.93	119	8.28	128	3.0	74	-1.2	262	672	969.6	NA	0.0000		9999	3740	0	0	0
2019/01/04 19:22:00	BASE	6.85	118	8.28	128	3.0	74	-1.2	260	665	969.7	NA	0.0000		9999	3740	0	0	0
2019/01/04 19:23:00	BASE	6.67	123	8.28	128	3.0	74	-1.2	256	657	969.6	NA	0.0000		9999	3740	0	0	0
2019/01/04 19:24:00	BASE	7.06	126	8.59	126	3.0	75	-1.1	252	647	969.6	NA	0.0000		9999	3610	0	0	0
2019/01/04 19:25:00	BASE	7.16	123	8.59	126	2.9	75	-1.1	249	640	969.6	NA	0.0000		9999	3670	0	0	0
2019/01/04 19:26:00	BASE	6.43	120	8.59	126	2.9	75	-1.0	246	632	969.7	NA	0.0000		9999	3480	0	0	0
2019/01/04 19:27:00	BASE	6.06	118	8.59	126	2.9	76	-1.0	243	625	969.7	NA	0.0000		9999	3710	0	0	0
2019/01/04 19:28:00	BASE	6.30	112	8.59	126	2.8	77	-0.9	242	621	969.7	NA	0.0000		9999	3710	0	0	0
2019/01/04 19:29:00	BASE	6.78	107	8.59	126	2.8	78	-0.8	241	618	969.7	NA	0.0000		9999	3450	0	0	0
2019/01/04 19:30:00	BASE	6.89	108	8.59	126	2.7	78	-0.7	238	611	969.7	NA	0.0000		9999	19750	0	0	0
2019/01/04 19:31:00	BASE	6.70	114	8.59	126	2.7	79	-0.6	236	605	969.7	NA	0.0000		9999	3050	0	0	0
2019/01/04 19:32:00	BASE	6.37	119	8.59	126	2.6	80	-0.5	235	602	969.7	NA	0.0000		9999	3050	0	0	0
2019/01/04 19:33:00	BASE	5.93	120	8.59	126	2.6	80	-0.5	237	606	969.7	NA	0.0000		9999	3080	0	0	0
2019/01/04 19:34:00	BASE	5.35	120	7.72	105	2.5	80	-0.6	242	616	969.8	NA	0.0000		9999	20110	0	0	0
2019/01/04 19:35:00	BASE	4.94	119	7.72	105	2.5	80	-0.6	245	623	969.8	NA	0.0000		9999	0	0	0	3480
2019/01/04 19:36:00	BASE	4.79	119	7.72	105	2.5	80	-0.6	247	626	969.8	NA	0.0000		9999	0	0	0	3350
2019/01/04 19:37:00	BASE	4.71	116	7.72	105	2.5	79	-0.7	249	627	969.8	NA	0.0000		9999	0	0	0	2950
2019/01/04 19:38:00	BASE	4.63	116	7.72	105	2.6	79	-0.7	249	626	969.8	NA	0.0000		9999	0	0	0	2920
2019/01/04 19:39:00	BASE	4.50	118	7.51	114	2.6	79	-0.7	247	621	969.8	NA	0.0000		9999	0	0	0	2660
2019/01/04 19:40:00	BASE	4.21	117	6.89	118	2.6	79	-0.7	241	607	969.8	NA	0.0000	UP	9000	0	0	0	2760
2019/01/04 19:41:00	BASE	4.04	117	6.58	124	2.6	79	-0.8	231	586	969.8	NA	0.0000	UP	9999	0	0	0	2760
2019/01/04 19:42:00	BASE	4.13	116	5.97	123	2.6	78	-0.8	223	568	969.8	NA	0.0000	UP	6000	0	0	0	2890
2019/01/04 19:43:00	BASE	4.06	114	5.25	120	2.6	78	-0.9	218	556	969.8	NA	0.0000	-SN	4800	22800	0	0	0
2019/01/04 19:44:00	BASE	3.94	114	5.14	117	2.5	78	-0.9	214	545	969.8	NA	0.0000	-SN	3400	0	0	0	2850
2019/01/04 19:45:00	BASE	3.70	111	5.14	117	2.5	78	-0.9	210	538	969.8	NA	0.0000	-SN	5000	0	0	0	2890
2019/01/04 19:46:00	BASE	3.58	110	5.04	118	2.6	78	-0.9	206	529	969.8	NA	0.0000	-SN	4900	0	0	0	2850
2019/01/04 19:47:00	BASE	3.47	109	4.99	117	2.6	78	-0.8	204	525	969.8	NA	0.0000	-SN	3000	0	0	0	2760
2019/01/04 19:48:00	BASE	2.98	106	4.68	119	2.6	78	-0.8	202	515	969.8	NA	0.0000	-SN	3200	0	0	0	2660
2019/01/04 19:49:00	BASE	2.61	103	4.48	117	2.7	78	-0.7	200	510	969.8	NA	0.0000	-SN	2800	0	0	0	2690
2019/01/04 19:50:00	BASE	2.66	105	4.48	117	2.7	78	-0.7	197	504	969.8	NA	0.0000	-SN	3600	0	0	0	2590
2019/01/04 19:51:00	BASE	2.82	111	4.48	117	2.7	78	-0.7	195	499	969.8	NA	0.0000	-SN	2900	0	0	0	2560
2019/01/04 19:52:00	BASE	2.85	115	4.37	111	2.7	78	-0.8	193	496	969.8	NA	0.0000	-SN	3900	0	0	0	2790
2019/01/04 19:53:00	BASE	2.69	115	4.37	111	2.7	78	-0.8	189	487	969.8	NA	0.0000	-SN	7000	0	0	0	2720
2019/01/04 19:54:00	BASE	2.40	117	4.01	108	2.7	78	-0.9	186	480	969.7	NA	0.0000	-SN	5000	0	0	0	2620
2019/01/04 19:55:00	BASE	2.04	118	4.01	108	2.7	78	-0.9	186	480	969.7	NA	0.0000	-SN	4300	0	0	0	2760
2019/01/04 19:56:00	BASE	1.79	120	3.55	104	2.7	78	-0.8	186	480	969.7	NA	0.0000	-SN	3100	0	0	0	2690
2019/01/04 19:57:00	BASE	1.72	126	3.19	109	2.7	78	-0.7	185	473	969.7	NA	0.0000	-SN	3000	0	0	0	2720
2019/01/04 19:58:00	BASE	1.75	130	3.19	109	2.6	79	-0.6	182	466	969.7	NA	0.0000	-SN	3000	0	0	0	2620
2019/01/04 19:59:00	BASE	1.83	132	3.19	109	2.7	80	-0.4	175	451	969.7	NA	0.0000	-SN	2500	0	0	0	2720
2019/01/04 20:00:00	BASE	1.86	136	3.19	109	2.7	81	-0.2	165	429	969.6	NA	0.0000	-SN	3300	0	0	0	2720
2019/01/04 20:01:00	BASE	1.75	138	3.09	116	2.7	82	-0.1	158	413	969.6	NA	0.0000	-SN	2900	19690	22870	0	0
2019/01/04 20:02:00	BASE	1.64	134	2.83	119	2.7	83	0.2	156	408	969.6	NA	0.0000	-SN	3200	0	0	0	2720
2019/01/04 20:03:00	BASE	1.55	120	2.52	120	2.7	84	0.3	157	409	969.7	NA	0.0000	-SN	5000	0	0	0	2690
2019/01/04 20:04:00	BASE	1.72	107	2.26	146	2.7	86	0.5	157	412	969.7	NA	0.0000	-SN BR	8000	0	0	0	2850
2019/01/04 20:05:00	BASE	1.86	100	2.26	146	2.6	86	0.6	159	417	969.7	NA	0.0000	-SN BR	6000	0	0	0	2620
2019/01/04 20:06:00	BASE	1.81	99	2.26	146	2.5	87	0.6	163	425	969.7	NA	0.0000	-SN BR	3100	0	0	0	2530
2019/01/04 20:07:00	BASE	2.06	105	2.52	113	2.5	88	0.7	162	424	969.6	NA	0.0000	-SN BR	7000	0	0	0	2430
2019/01/04 20:08:00	BASE	2.33	107	2.62	109	2.4	89	0.8	158	415	969.6	NA	0.0000	-SN BR	9999	0	0	0	2330
2019/01/04 20:09:00	BASE	2.50	106	2.88	107	2.4	89	0.8	153	404	969.6	NA	0.0000	-SN BR	9999	0	0	0	2230
2019/01/04 20:10:00	BASE	2.87	104	3.34	109	2.4	90	0.9	148	395	969.6	NA	0.0000	-SN BR	9999	560	0	0	0
2019/01/04 20:11:00	BASE	3.09	106	3.45	106	2.4	90	0.9	148	395	969.6	NA	0.0000	-SN BR	9999	0	0	0	2300
2019/01/04 20:12:00	BASE	3.01	103	3.45	106	2.5	90	0.9	145	389	969.6	NA	0.0000	-SN BR	9999	0	0	0	2590
2019/01/04 20:13:00	BASE	2.63	102	3.45	106	2.5	90	0.9	145	385	969.6	NA	0.0000	-SN BR	9999	0	0	0	2690
2019/01/04 20:14:00	BASE	2.86	103	3.96	89	2.5	90	1.0	145	386	969.6	NA	0.0000	-SN BR	9999	0	0	0	2790
2019/01/04 20:15:00	BASE	3.19	99	3.96	89	2.6	90	1.1	145	386	969.6	NA	0.0000	-SN BR	9999	0	0	0	3050
2019/01/04 20:16:00	BASE	2.95	97	3.96	89	2.6	91	1.3	147	391	969.6	NA	0.0000	-SN	9999	0	0	0	2720
2019/01/04 20:17:00	BASE	2.93	97	3.96	89	2.6	91	1.4	153	402	969.6	NA	0.0000	-SN	9999	0	0	0	2660
2019/01/04 20:18:00	BASE	2.83	101	3.96	89	2.6	92	1.5	159	415	969.6	NA	0.0000	-SN	9999	0	0	0	2590
2019/01/04 20:19:00	BASE	2.98	100	3.96	89	2.6	92	1.5	165	426	969.6	NA	0.0000	-SN	9999	0	0	0	2590
2019/01/04 20:20:00	BASE	3.29	96	3.96	100	2.6	92	1.5	171	438	969.6	NA	0.0000	-SN	9999	0	0	0	3220
2019/01/04 20:21:00	BASE	3.36	98	3.96	100	2.6	93	1.5	172	441	969.6	NA	0.0000	-SN	9999	22800	0	0	0
2019/01/04 20:22:00	BASE	3.40	103	3.96	100	2.5	93	1.5	171	438	969.6	NA	0.0000	-SN	9999	0	0	0	2990
2019/01/04 20:23:00	BASE	3.28	111	3.96	100	2.5	93	1.5	171	439	969.5	NA	0.0000	-SN	9999	0	0	0	4360
2019/01/04 20:24:00	BASE	3.15	124	3.96	100	2.5	93	1.6	171	439	969.5	NA	0.0000	-SN	9000	0	0	0	3870
2019/01/04 20:25:00	BASE	3.11	131	3.96	100	2.5	93	1.6	170	437	969.5	NA	0.0000	-SN	9999	0	0	0	3970
2019/01/04 20:26:00	BASE	3.20	126	3.96	100	2.5	94	1.6	169	434	969.5	NA	0.0000	-SN	6000	0	0	0	4070
2019/01/04 20:27:00	BASE	3.28	122	3.96	100	2.5	94	1.6	169	432	969.5	NA	0.0000	-SN BR	6000	0	0	0	3510
2019/01/04 20:28:00	BASE	3.08	124	3.96	100	2.4	94	1.6	166	426	969.4	NA	0.0000	-SN BR	9000	0	0	0	3740
2019/01/04 20:29:00	BASE	2.84	127	3.96	100	2.4	94	1.6	163	418	969.4	NA	0.0000	-SN BR	9999	0	0	0	4130
2019/01/04 20:30:00	BASE	2.87	127	3.91	104	2.4	95	1.6	160	409	969.4	NA	0.0000	-SN BR	9999	0	0	0	4330
2019/01/04 20:31:00	BASE	3.01	126	3.81	109	2.3	95	1.6	154	397	969.5	NA	0.0000	-SN BR	9999	0	0	0	4040
2019/01/04 20:32:00	BASE	2.98	127	3.65	115	2.3	95	1.6	148	383	969.5	NA	0.0000	-SN BR	9999	0	0	0	4100
2019/01/04 20:33:00	BASE	2.96	126	3.60	129	2.3	95	1.5	145	376	969.5	NA	0.0000	-SN BR	9999	0	0	0	3710
2019/01/04 20:34:00	BASE	3.08	126	3.60	129	2.2	95	1.5	142	368	969.4	NA	0.0000	-SN BR	9999	0	0	0	3670
2019/01/04 20:35:00	BASE	3.27	127	3.65	135	2.2	94	1.4	139	363	969.3	NA	0.0000	-SN BR	9999	0	0	0	3670
2019/01/04 20:36:00	BASE	3.51	133	3.91	132	2.2	94	1.4	140	365	969.3	NA	0.0000	-SN BR	9999	0	0	0	3350
2019/01/04 20:37:00	BASE	3.42	136	3.91	132	2.2	94	1.4	143	372	969.3	NA	0.0000	-SN	9999	0	0	0	3480
2019/01/04 20:38:00	BASE	3.10	135	3.91	132	2.2	95	1.4	145	377	969.3	NA	0.0000	-SN	9999	0	0	0	3710
2019/01/04 20:39:00	BASE	2.87	134	3.91	132	2.2	95	1.5	147	381	969.3	NA	0.0000	-SN	9999	0	0	0	3710
2019/01/04 20:40:00	BASE	2.65	133	3.91	132	2.3	95	1.6	147	380	969.2	NA	0.0000	-SN	9999	0	0	0	3740
2019/01/04 20:41:00	BASE	2.59	130	3.91	132	2.3	95	1.6	147	380	969.2	NA	0.0000		9999	0	0	0	3450
2019/01/04 20:42:00	BASE	2.74	122	3.91	132	2.3	95	1.6	149	383	969.2	NA	0.0000		9999	0	0	0	3640
2019/01/04 20:43:00	BASE	2.85	117	3.91	132	2.3	95	1.6	151	388	969.2	NA	0.0000		9999	0	0	0	4040
2019/01/04 20:44:00	BASE	2.82	116	3.91	132	2.3	95	1.6	154	394	969.2	NA	0.0000		9999	0	0	0	4300
2019/01/04 20:45:00	BASE	2.77	119	3.91	132	2.3	95	1.6	157	401	969.2	NA	0.0000		9999	0	0	0	4040
2019/01/04 20:46:00	BASE	2.78	123	3.70	139	2.2	95	1.5	160	407	969.2	NA	0.0000		9999	0	0	0	4460
2019/01/04 20:47:00	BASE	2.59	125	3.24	108	2.2	95	1.5	163	412	969.2	NA	0.0000		9999	0	0	0	4590
2019/01/04 20:48:00	BASE	2.29	128	3.24	108	2.2	95	1.5	164	415	969.2	NA	0.0000	-SN	9999	0	0	0	4530
2019/01/04 20:49:00	BASE	2.11	131	3.24	108	2.2	95	1.6	164	415	969.2	NA	0.0000	-SN	9999	0	0	0	4760
2019/01/04 20:50:00	BASE	2.04	129	3.24	108	2.2	96	1.6	165	415	969.2	NA	0.0000	-SN	9999	20740	0	0	0
2019/01/04 20:51:00	BASE	1.91	119	3.24	108	2.3	96	1.7	165	414	969.2	NA	0.0000	-SN	9999	0	0	0	4430
2019/01/04 20:52:00	BASE	1.66	108	3.19	134	2.3	96	1.7	164	411	969.2	NA	0.0000		9999	0	0	0	4530
2019/01/04 20:53:00	BASE	0.89	95	3.19	134	2.3	96	1.7	162	408	969.2	NA	0.0000		9999	0	0	0	4170
2019/01/04 20:54:00	BASE	0.10	87	3.19	134	2.3	96	1.7	162	406	969.2	NA	0.0000		9999	0	0	0	4460
2019/01/04 20:55:00	BASE	0.00	82	3.04	130	2.4	96	1.7	161	402	969.2	NA	0.0000		9999	3640	0	0	0
2019/01/04 20:56:00	BASE	0.00	74	2.62	137	2.4	95	1.7	158	397	969.2	NA	0.0000		9999	3610	0	0	0
2019/01/04 20:57:00	BASE	0.00	74	2.62	137	2.4	95	1.7	155	388	969.2	NA	0.0000		9999	3510	0	0	0
2019/01/04 20:58:00	BASE	0.00	76	2.62	137	2.4	95	1.7	152	381	969.2	NA	0.0000		9999	3280	0	0	0
2019/01/04 20:59:00	BASE	0.53	79	2.62	137	2.4	94	1.6	149	375	969.2	NA	0.0000		9999	0	0	0	3480
2019/01/04 21:00:00	BASE	1.26	95	1.95	108	2.5	94	1.6	147	369	969.2	NA	0.0000		9999	0	0	0	3940
2019/01/04 21:01:00	BASE	0.73	117	1.85	82	2.5	93	1.5	145	363	969.2	NA	0.0000		9999	0	0	0	3640
2019/01/04 21:02:00	BASE	0.00	101	1.85	82	2.5	92	1.4	143	359	969.2	NA	0.0000		9999	1440	0	0	0
2019/01/04 21:03:00	BASE	0.00	354	1.85	82	2.6	92	1.4	141	355	969.2	NA	0.0000		9999	0	0	0	3450
2019/01/04 21:04:00	BASE	0.00	318	1.85	82	2.7	91	1.4	142	355	969.2	NA	0.0000		9999	0	0	0	3080
2019/01/04 21:05:00	BASE	0.00	330	1.85	82	2.7	91	1.3	142	356	969.2	NA	0.0000		9999	0	0	0	3150
2019/01/04 21:06:00	BASE	0.00	6	1.85	82	2.8	90	1.4	141	354	969.2	NA	0.0000		9999	0	0	0	3080
2019/01/04 21:07:00	BASE	0.00	87	1.85	82	2.8	90	1.3	139	348	969.2	NA	0.0000		9999	0	0	0	3310
2019/01/04 21:08:00	BASE	0.00	116	1.85	82	2.7	90	1.3	137	344	969.2	NA	0.0000	-SN	9000	0	0	0	3120
2019/01/04 21:09:00	BASE	0.00	122	1.65	108	2.7	90	1.3	136	343	969.2	NA	0.0000	-SN	9999	0	0	0	2920
2019/01/04 21:10:00	BASE	0.00	126	M	M	2.7	91	1.3	136	340	969.2	NA	0.0000	-SN	9999	0	0	0	2820
2019/01/04 21:11:00	BASE	0.00	125	M	M	2.7	91	1.4	133	335	969.2	NA	0.0000	-SN	9999	23890	0	0	0
2019/01/04 21:12:00	BASE	0.00	122	M	M	2.7	92	1.5	130	327	969.2	NA	0.0000	-SN	9999	0	0	0	2530
2019/01/04 21:13:00	BASE	0.00	120	M	M	2.8	93	1.7	127	320	969.2	NA	0.0000	-SN	8000	0	0	0	2720
2019/01/04 21:14:00	BASE	0.00	125	M	M	2.9	93	1.9	125	316	969.2	NA	0.0000	-SN	9000	0	0	0	2560
2019/01/04 21:15:00	BASE	0.09	136	1.08	138	2.9	94	2.0	123	310	969.2	NA	0.0000	-SN	9999	0	0	0	2400
2019/01/04 21:16:00	BASE	0.09	142	1.08	138	2.9	94	2.0	120	305	969.2	NA	0.0000	-SN	9999	0	0	0	2400
2019/01/04 21:17:00	BASE	0.00	129	1.08	138	2.9	94	2.1	120	304	969.2	NA	0.0000	-RA	9999	590	0	0	0
2019/01/04 21:18:00	BASE	0.04	119	1.08	138	2.8	95	2.0	121	307	969.2	NA	0.0000	-RA	9999	660	0	0	0
2019/01/04 21:19:00	BASE	0.56	115	1.23	119	2.8	95	2.0	122	308	969.2	NA	0.0000	-RA	9999	0	0	0	2360
2019/01/04 21:20:00	BASE	0.92	94	1.23	119	2.7	95	2.0	122	309	969.2	NA	0.0000	-RA	9999	0	0	0	2460
2019/01/04 21:21:00	BASE	0.45	81	1.23	119	2.6	96	1.9	123	311	969.2	NA	0.0000	-RA	9999	0	0	0	2430
2019/01/04 21:22:00	BASE	0.04	88	1.23	119	2.5	96	2.0	125	315	969.2	NA	0.0000	-RA	9999	0	0	0	2330
2019/01/04 21:23:00	BASE	0.00	119	1.23	119	2.5	96	2.0	127	320	969.2	NA	0.0000	-RA	9999	0	0	0	2430
2019/01/04 21:24:00	BASE	0.15	126	1.29	97	2.5	97	2.0	127	319	969.2	NA	0.0000	-RA	9999	560	0	0	0
2019/01/04 21:25:00	BASE	0.94	105	1.70	92	2.5	97	2.1	124	313	969.2	NA	0.0000	-RA	9999	520	0	0	0
2019/01/04 21:26:00	BASE	1.68	97	1.95	102	2.6	98	2.2	122	308	969.2	NA	0.0000	-RA	9999	430	0	0	0
2019/01/04 21:27:00	BASE	1.85	98	2.01	105	2.6	98	2.3	121	305	969.2	NA	0.0000	-RA	8000	0	0	0	2660
2019/01/04 21:28:00	BASE	1.95	110	2.11	115	2.6	98	2.4	120	302	969.2	NA	0.0000	-RA BR	6000	0	0	0	2690
2019/01/04 21:29:00	BASE	1.91	126	2.11	132	2.6	99	2.4	119	301	969.2	NA	0.0000	-RA BR	4500	0	0	0	3120
2019/01/04 21:30:00	BASE	1.90	135	2.11	142	2.6	99	2.4	120	303	969.1	NA	0.0000	-RA BR	3400	0	0	0	2660
2019/01/04 21:31:00	BASE	1.81	136	2.11	142	2.6	99	2.5	121	304	969.1	NA	0.0000	-RA BR	2900	0	0	0	2620
2019/01/04 21:32:00	BASE	1.83	134	2.42	128	2.6	100	2.5	119	301	969.1	NA	0.0000	-RA BR	2700	0	0	0	2690
2019/01/04 21:33:00	BASE	1.74	130	2.42	128	2.6	100	2.5	117	297	969.1	NA	0.0000	-RA BR	2400	0	0	0	2530
2019/01/04 21:34:00	BASE	1.53	119	2.42	128	2.5	100	2.5	115	291	969.2	NA	0.0000	-RA BR	2200	0	0	0	3080
2019/01/04 21:35:00	BASE	1.67	109	2.42	128	2.4	100	2.4	116	294	969.2	NA	0.0000	-RA BR	2200	0	0	0	2820
2019/01/04 21:36:00	BASE	1.93	101	2.42	93	2.4	100	2.4	121	304	969.1	NA	0.0000	-RA BR	2500	0	0	0	2790
2019/01/04 21:37:00	BASE	2.01	100	2.42	93	2.2	100	2.2	127	317	969.1	NA	0.0000	-RA BR	2500	0	0	0	2620
2019/01/04 21:38:00	BASE	1.94	104	2.42	108	2.2	100	2.2	129	321	969.1	NA	0.0000	-SN BR	3100	460	0	0	0
2019/01/04 21:39:00	BASE	1.85	99	2.42	108	2.1	100	2.1	131	326	969.1	NA	0.0000	-SN BR	3900	0	0	0	2950
2019/01/04 21:40:00	BASE	2.06	96	3.04	90	2.1	100	2.1	131	325	969.1	NA	0.0000	-SN BR	4200	0	0	0	2990
2019/01/04 21:41:00	BASE	2.70	95	3.19	93	2.1	100	2.1	131	326	969.1	NA	0.0000	-SN BR	4200	0	0	0	2820
2019/01/04 21:42:00	BASE	3.27	93	4.06	92	2.2	100	2.2	133	330	969.1	NA	0.0000	-SN BR	4000	0	0	0	2920
2019/01/04 21:43:00	BASE	3.52	99	4.06	92	2.2	100	2.2	134	332	969.0	NA	0.0000	-SN BR	3600	0	0	0	3050
2019/01/04 21:44:00	BASE	3.26	105	4.06	92	2.2	100	2.2	135	335	969.1	NA	0.0000	-SN BR	3100	0	0	0	2990
2019/01/04 21:45:00	BASE	3.12	103	4.06	92	2.2	100	2.2	137	339	969.1	NA	0.0000	-SN BR	3100	0	0	0	3120
2019/01/04 21:46:00	BASE	3.47	103	4.22	104	2.2	100	2.2	138	341	969.1	NA	0.0000	-SN BR	3400	0	0	0	3220
2019/01/04 21:47:00	BASE	3.44	109	4.22	104	2.2	100	2.2	137	339	969.0	NA	0.0000	-SN BR	3400	0	0	0	3120
2019/01/04 21:48:00	BASE	3.10	117	4.22	104	2.2	100	2.2	136	335	969.1	NA	0.0000	-SN BR	3100	0	0	0	3250
2019/01/04 21:49:00	BASE	2.97	117	4.22	104	2.1	100	2.1	134	331	969.1	NA	0.0000	-SN BR	2800	0	0	0	3350
2019/01/04 21:50:00	BASE	2.98	112	4.22	104	2.1	100	2.1	133	329	969.1	NA	0.0000	-SN BR	2700	0	0	0	3380
2019/01/04 21:51:00	BASE	3.03	110	4.22	104	2.1	100	2.1	133	328	969.1	NA	0.0000	-SN BR	2700	0	0	0	3180
2019/01/04 21:52:00	BASE	3.10	110	4.22	104	2.0	100	2.0	133	329	969.0	NA	0.0000	-SN BR	2700	0	0	0	3640
2019/01/04 21:53:00	BASE	3.28	109	4.22	104	2.0	100	2.0	134	330	969.0	NA	0.0000	-SN BR	2700	0	0	0	3740
2019/01/04 21:54:00	BASE	3.26	107	4.22	104	2.0	100	2.0	133	326	969.0	NA	0.0000	-SN BR	2700	0	0	0	3410
2019/01/04 21:55:00	BASE	3.16	102	4.22	104	2.0	100	2.0	130	321	969.0	NA	0.0000	-SN BR	2600	0	0	0	3350
2019/01/04 21:56:00	BASE	2.91	97	3.60	106	2.1	100	2.1	130	319	969.0	NA	0.0000	-SN BR	2600	0	0	0	3350
2019/01/04 21:57:00	BASE	2.83	96	3.60	106	2.1	100	2.1	130	318	969.0	NA	0.0000	-SN BR	2500	0	0	0	3180
2019/01/04 21:58:00	BASE	3.09	100	3.60	106	2.2	100	2.2	128	312	968.9	NA	0.0000	-SN BR	2500	0	0	0	3640
2019/01/04 21:59:00	BASE	3.20	108	3.60	106	2.3	100	2.3	124	305	968.9	NA	0.0000	-SN BR	2500	0	0	0	3480
2019/01/04 22:00:00	BASE	3.07	107	3.60	106	2.3	100	2.3	121	299	968.9	NA	0.0000	BR	2400	23690	0	0	0
2019/01/04 22:01:00	BASE	3.24	92	3.96	84	2.4	100	2.4	120	296	968.9	NA	0.0000	BR	2400	720	0	0	0
2019/01/04 22:02:00	BASE	3.79	81	4.32	83	2.4	100	2.4	119	295	969.0	NA	0.0000	BR	2400	2790	0	0	0
2019/01/04 22:03:00	BASE	4.04	83	4.32	88	2.4	100	2.4	118	291	968.9	NA	0.0000	BR	2300	0	0	0	3640
2019/01/04 22:04:00	BASE	4.22	96	4.78	107	2.5	100	2.5	118	291	968.9	NA	0.0000	BR	2300	0	0	0	3580
2019/01/04 22:05:00	BASE	4.41	104	4.78	107	2.5	100	2.5	119	293	968.8	NA	0.0000	BR	2300	0	0	0	3380
2019/01/04 22:06:00	BASE	4.12	103	4.78	107	2.5	100	2.5	119	294	968.8	NA	0.0000	BR	2200	0	0	0	3350
2019/01/04 22:07:00	BASE	3.71	98	4.78	107	2.5	100	2.5	122	299	968.9	NA	0.0000	BR	2200	19160	0	0	0
2019/01/04 22:08:00	BASE	3.82	94	4.78	107	2.5	100	2.5	124	304	968.9	NA	0.0000	BR	2200	0	0	0	3380
2019/01/04 22:09:00	BASE	3.91	89	4.78	107	2.5	100	2.5	125	307	968.9	NA	0.0000	BR	2200	0	0	0	3480
2019/01/04 22:10:00	BASE	3.83	84	4.78	107	2.5	100	2.5	127	310	968.8	NA	0.0000	BR	2100	0	0	0	4070
2019/01/04 22:11:00	BASE	3.64	89	4.78	107	2.6	100	2.6	128	311	968.7	NA	0.0000	BR	2100	0	0	0	4630
2019/01/04 22:12:00	BASE	3.53	95	4.78	107	2.5	100	2.5	127	309	968.7	NA	0.0000	BR	2100	0	0	0	5120
2019/01/04 22:13:00	BASE	3.58	98	4.78	107	2.5	100	2.5	125	305	968.7	NA	0.0000	BR	2100	3540	0	0	0
2019/01/04 22:14:00	BASE	3.48	100	4.73	105	2.5	100	2.5	123	299	968.7	NA	0.0000	BR	6000	3280	0	0	0
2019/01/04 22:15:00	BASE	3.17	98	4.32	93	2.6	100	2.5	120	294	968.7	NA	0.0000	BR	9999	0	0	0	5220
2019/01/04 22:16:00	BASE	3.06	101	4.32	93	2.6	100	2.5	118	289	968.7	NA	0.0000	BR	9999	4360	0	0	0
2019/01/04 22:17:00	BASE	3.19	108	4.22	85	2.6	99	2.4	116	284	968.7	NA	0.0000	BR	9999	0	0	0	5020
2019/01/04 22:18:00	BASE	2.73	109	4.22	85	2.6	98	2.3	112	275	968.7	NA	0.0000	BR	9999	3610	0	0	0
2019/01/04 22:19:00	BASE	2.22	108	4.22	85	2.5	97	2.2	108	266	968.7	NA	0.0000	BR	9999	3180	0	0	0
2019/01/04 22:20:00	BASE	2.11	112	3.91	86	2.5	97	2.1	104	256	968.7	NA	0.0000	BR	9999	0	0	0	4460
2019/01/04 22:21:00	BASE	1.95	117	3.91	86	2.5	96	2.0	101	249	968.7	NA	0.0000	BR	9999	0	0	0	4590
2019/01/04 22:22:00	BASE	2.12	119	3.86	102	2.5	96	1.9	99	244	968.7	NA	0.0000	BR	9999	0	0	0	3870
2019/01/04 22:23:00	BASE	2.44	117	3.81	110	2.5	95	1.8	98	242	968.7	NA	0.0000		9999	0	0	0	3870
2019/01/04 22:24:00	BASE	2.34	117	3.81	110	2.5	95	1.8	98	241	968.7	NA	0.0000		9999	3280	0	0	0
2019/01/04 22:25:00	BASE	1.91	114	3.81	110	2.5	95	1.7	97	238	968.7	NA	0.0000		9999	0	0	0	4360
2019/01/04 22:26:00	BASE	1.59	108	3.65	119	2.4	95	1.6	95	234	968.7	NA	0.0000		9999	0	0	0	4430
2019/01/04 22:27:00	BASE	1.69	99	2.73	119	2.4	95	1.6	94	231	968.7	NA	0.0000		9999	0	0	0	3810
2019/01/04 22:28:00	BASE	2.04	93	2.73	119	2.4	95	1.6	92	227	968.7	NA	0.0000		9999	0	0	0	3510
2019/01/04 22:29:00	BASE	2.36	91	2.73	119	2.4	95	1.7	90	222	968.7	NA	0.0000		9999	0	0	0	3640
2019/01/04 22:30:00	BASE	2.37	92	2.73	119	2.4	96	1.8	87	216	968.7	NA	0.0000		9999	0	0	0	3280
2019/01/04 22:31:00	BASE	2.20	94	2.73	119	2.4	96	1.9	84	209	968.7	NA	0.0000		9999	0	0	0	3540
2019/01/04 22:32:00	BASE	2.20	93	2.68	87	2.4	97	2.0	82	205	968.7	NA	0.0000		9999	0	0	0	3380
2019/01/04 22:33:00	BASE	2.33	83	2.68	87	2.5	97	2.1	82	204	968.7	NA	0.0000		9999	1870	0	0	0
2019/01/04 22:34:00	BASE	2.20	68	2.68	87	2.5	98	2.2	81	203	968.7	NA	0.0000		9999	0	0	0	3250
2019/01/04 22:35:00	BASE	1.92	51	2.68	87	2.6	98	2.4	80	199	968.6	NA	0.0000		9999	0	0	0	3410
2019/01/04 22:36:00	BASE	1.93	38	2.68	87	2.8	99	2.6	78	194	968.7	NA	0.0000		9999	0	0	0	3250
2019/01/04 22:37:00	BASE	1.89	33	2.68	87	2.9	99	2.8	76	192	968.7	NA	0.0000		9999	0	0	0	3250
2019/01/04 22:38:00	BASE	1.72	29	2.68	87	3.1	100	3.0	76	191	968.7	NA	0.0000		9999	0	0	0	3310
2019/01/04 22:39:00	BASE	1.71	23	2.62	83	3.1	100	3.1	76	191	968.6	NA	0.0000		9999	0	0	0	3250
2019/01/04 22:40:00	BASE	1.34	19	2.62	83	3.0	100	3.0	77	193	968.6	NA	0.0000		9999	0	0	0	2920
2019/01/04 22:41:00	BASE	0.47	18	2.62	83	2.8	100	2.8	79	196	968.6	NA	0.0000		9999	0	0	0	2990
2019/01/04 22:42:00	BASE	0.00	16	2.52	75	2.7	100	2.7	79	197	968.6	NA	0.0000		9999	0	0	0	3150
2019/01/04 22:43:00	BASE	0.00	15	2.31	64	2.5	100	2.5	78	193	968.6	NA	0.0000		9999	0	0	0	3410
2019/01/04 22:44:00	BASE	0.00	15	2.26	34	2.5	100	2.5	76	190	968.6	NA	0.0000		9999	0	0	0	3080
2019/01/04 22:45:00	BASE	0.00	15	2.26	34	2.5	100	2.5	76	189	968.6	NA	0.0000		9999	0	0	0	2850
2019/01/04 22:46:00	BASE	0.00	15	2.06	23	2.6	100	2.6	78	194	968.6	NA	0.0000		9999	0	0	0	2720
2019/01/04 22:47:00	BASE	0.00	11	2.06	23	2.7	100	2.7	82	201	968.6	NA	0.0000		9999	0	0	0	2790
2019/01/04 22:48:00	BASE	0.00	336	2.06	23	2.7	100	2.7	85	208	968.6	NA	0.0000	BR	9999	2720	0	0	0
2019/01/04 22:49:00	BASE	0.00	297	1.44	14	2.8	100	2.8	87	213	968.6	NA	0.0000	BR	9999	1250	0	0	0
2019/01/04 22:50:00	BASE	0.00	280	M	M	2.7	100	2.7	87	212	968.7	NA	0.0000		9999	1180	0	0	0
2019/01/04 22:51:00	BASE	0.05	276	1.08	295	2.6	100	2.6	87	211	968.7	NA	0.0000		9999	1250	0	0	0
2019/01/04 22:52:00	BASE	0.84	294	2.06	310	2.4	100	2.4	88	214	968.7	NA	0.0000		9999	1020	0	0	0
2019/01/04 22:53:00	BASE	1.78	300	2.31	309	2.3	100	2.3	91	221	968.7	NA	0.0000		9999	920	0	0	0
2019/01/04 22:54:00	BASE	1.68	287	2.31	309	2.2	100	2.2	95	228	968.7	NA	0.0000		9999	1120	0	0	0
2019/01/04 22:55:00	BASE	1.68	287	2.73	298	2.1	100	2.1	97	231	968.6	NA	0.0000		9999	2790	0	0	0
2019/01/04 22:56:00	BASE	2.56	302	3.45	307	2.0	100	2.0	96	230	968.6	NA	0.0000		9999	19520	0	0	0
2019/01/04 22:57:00	BASE	3.05	306	3.45	307	2.0	100	2.0	96	228	968.5	NA	0.0000		9999	0	0	0	2990
2019/01/04 22:58:00	BASE	2.89	303	3.60	298	1.9	100	1.9	94	225	968.5	NA	0.0000		9999	0	0	0	2790
2019/01/04 22:59:00	BASE	3.15	300	3.70	303	1.9	100	1.9	92	220	968.5	NA	0.0000		9999	0	0	0	3180
2019/01/04 23:00:00	BASE	3.47	305	3.70	303	1.8	100	1.8	89	213	968.5	NA	0.0000		9999	0	0	0	3250
2019/01/04 23:01:00	BASE	3.55	313	3.76	313	1.8	100	1.8	86	206	968.5	NA	0.0000		9999	0	0	0	3120
2019/01/04 23:02:00	BASE	3.49	316	3.76	313	1.7	100	1.7	83	200	968.5	NA	0.0000		9999	0	0	0	3350
2019/01/04 23:03:00	BASE	3.28	319	3.76	313	1.6	100	1.6	81	194	968.5	NA	0.0000		9999	0	0	0	3410
2019/01/04 23:04:00	BASE	3.09	317	3.76	313	1.6	100	1.6	79	191	968.5	NA	0.0000		9999	0	0	0	3180
2019/01/04 23:05:00	BASE	2.74	314	3.76	313	1.5	100	1.5	78	189	968.5	NA	0.0000		9999	0	0	0	3480
2019/01/04 23:06:00	BASE	2.37	317	3.76	313	1.5	100	1.5	78	188	968.5	NA	0.0000		9999	0	0	0	3280
2019/01/04 23:07:00	BASE	2.18	319	3.76	313	1.5	100	1.5	77	186	968.5	NA	0.0000		9999	0	0	0	3080
2019/01/04 23:08:00	BASE	2.26	317	3.76	313	1.5	100	1.5	77	184	968.5	NA	0.0000		9999	2760	0	0	0
2019/01/04 23:09:00	BASE	2.42	313	3.76	313	1.5	100	1.5	77	184	968.5	NA	0.0000		9999	0	0	0	2820
2019/01/04 23:10:00	BASE	2.36	314	3.76	313	1.5	100	1.5	77	186	968.5	NA	0.0000		9999	0	0	0	2790
2019/01/04 23:11:00	BASE	2.21	324	3.45	316	1.5	100	1.5	79	189	968.5	NA	0.0000		9999	23030	0	0	0
2019/01/04 23:12:00	BASE	3.06	326	4.53	324	1.4	100	1.4	80	192	968.4	NA	0.0000		9999	0	0	0	2890
2019/01/04 23:13:00	BASE	4.04	322	4.53	324	1.5	100	1.5	82	196	968.4	NA	0.0000		9999	0	0	0	3080
2019/01/04 23:14:00	BASE	4.17	320	4.53	324	1.5	100	1.5	84	199	968.4	NA	0.0000		9999	0	0	0	3480
2019/01/04 23:15:00	BASE	4.15	320	4.53	324	1.5	100	1.5	84	200	968.4	NA	0.0000		9999	0	0	0	3350
2019/01/04 23:16:00	BASE	3.88	322	4.53	324	1.5	100	1.5	84	199	968.5	NA	0.0000		9999	0	0	0	3450
2019/01/04 23:17:00	BASE	3.76	323	4.53	324	1.5	100	1.5	83	197	968.5	NA	0.0000		9999	0	0	0	3380
2019/01/04 23:18:00	BASE	3.98	324	4.53	324	1.5	100	1.5	82	194	968.5	NA	0.0000		9999	0	0	0	3480
2019/01/04 23:19:00	BASE	4.18	324	4.53	324	1.5	100	1.5	81	191	968.4	NA	0.0000		9999	0	0	0	3450
2019/01/04 23:20:00	BASE	4.18	324	4.53	324	1.5	100	1.5	79	186	968.4	NA	0.0000		9999	0	0	0	3220
2019/01/04 23:21:00	BASE	4.21	323	4.53	324	1.6	100	1.6	76	181	968.4	NA	0.0000		9999	0	0	0	3180
2019/01/04 23:22:00	BASE	4.23	322	4.48	321	1.6	100	1.6	74	175	968.4	NA	0.0000		9999	0	0	0	3150
2019/01/04 23:23:00	BASE	4.00	323	4.48	321	1.6	100	1.6	72	171	968.4	NA	0.0000		9999	0	0	0	3050
2019/01/04 23:24:00	BASE	3.86	324	4.48	321	1.6	100	1.6	70	168	968.4	NA	0.0000		9999	0	0	0	3020
2019/01/04 23:25:00	BASE	3.98	324	4.48	321	1.6	100	1.6	69	164	968.4	NA	0.0000		9999	20340	0	0	0
2019/01/04 23:26:00	BASE	4.07	324	4.48	321	1.6	100	1.6	68	161	968.4	NA	0.0000		9999	0	0	0	2990
2019/01/04 23:27:00	BASE	4.17	323	4.48	321	1.6	100	1.6	66	157	968.4	NA	0.0000		9999	0	0	0	2950
2019/01/04 23:28:00	BASE	4.17	322	4.48	321	1.6	100	1.6	64	153	968.4	NA	0.0000		9999	0	0	0	2890
2019/01/04 23:29:00	BASE	4.04	321	4.48	321	1.6	100	1.6	63	150	968.4	NA	0.0000		9999	0	0	0	3020
2019/01/04 23:30:00	BASE	3.99	322	4.42	325	1.5	100	1.5	62	149	968.4	NA	0.0000		9999	0	0	0	3310
2019/01/04 23:31:00	BASE	3.86	323	4.42	325	1.5	100	1.5	61	148	968.4	NA	0.0000	UP	9999	0	0	0	3350
2019/01/04 23:32:00	BASE	3.58	324	4.42	325	1.5	100	1.5	61	146	968.5	NA	0.0000	UP	9999	0	0	0	3180
2019/01/04 23:33:00	BASE	3.26	326	4.42	325	1.5	100	1.5	61	146	968.5	NA	0.0000	UP	9999	0	0	0	3080
2019/01/04 23:34:00	BASE	3.04	327	4.42	325	1.5	100	1.5	61	146	968.5	NA	0.0000	UP	9999	0	0	0	3150
2019/01/04 23:35:00	BASE	2.94	327	4.42	325	1.5	100	1.5	61	146	968.5	NA	0.0000	UP	9999	0	0	0	3080
2019/01/04 23:36:00	BASE	2.86	327	4.42	325	1.5	100	1.5	61	146	968.4	NA	0.0000	UP	9999	0	0	0	2920
2019/01/04 23:37:00	BASE	2.79	326	4.27	321	1.5	100	1.5	62	148	968.4	NA	0.0000	UP	9999	0	0	0	2890
2019/01/04 23:38:00	BASE	2.58	324	4.12	322	1.5	100	1.5	63	150	968.4	NA	0.0000	UP	9999	0	0	0	2760
2019/01/04 23:39:00	BASE	2.19	322	4.12	322	1.5	100	1.5	64	151	968.4	NA	0.0000	UP	9999	0	0	0	2660
2019/01/04 23:40:00	BASE	1.85	321	3.91	322	1.5	100	1.5	65	154	968.4	NA	0.0000	UP	9999	0	0	0	2920
2019/01/04 23:41:00	BASE	1.76	319	3.60	325	1.5	100	1.5	66	156	968.4	NA	0.0000	UP	9999	0	0	0	2820
2019/01/04 23:42:00	BASE	1.79	318	3.34	331	1.5	100	1.5	67	157	968.4	NA	0.0000	UP	9999	22180	0	0	0
2019/01/04 23:43:00	BASE	1.84	320	3.09	326	1.4	100	1.4	68	159	968.4	NA	0.0000	UP	9000	0	0	0	2660
2019/01/04 23:44:00	BASE	1.89	322	2.98	327	1.5	100	1.5	70	163	968.4	NA	0.0000	UP	9999	0	0	0	2690
2019/01/04 23:45:00	BASE	1.91	325	2.98	327	1.5	100	1.5	71	165	968.4	NA	0.0000	UP	9999	0	0	0	2590
2019/01/04 23:46:00	BASE	1.82	331	2.88	322	1.5	100	1.5	71	166	968.4	NA	0.0000	UP	9999	0	0	0	2590
2019/01/04 23:47:00	BASE	1.59	340	2.57	325	1.5	100	1.5	71	166	968.4	NA	0.0000	UP	9999	0	0	0	2760
2019/01/04 23:48:00	BASE	1.38	350	2.42	322	1.5	100	1.5	71	164	968.5	NA	0.0000	UP BR	9999	0	0	0	2690
2019/01/04 23:49:00	BASE	1.49	348	2.16	315	1.5	100	1.5	69	161	968.4	NA	0.0000	UP	9999	0	0	0	2820
2019/01/04 23:50:00	BASE	1.69	338	2.06	326	1.4	100	1.4	68	158	968.5	NA	0.0000	UP	9999	0	0	0	2990
2019/01/04 23:51:00	BASE	1.68	337	2.06	326	1.4	100	1.4	66	153	968.4	NA	0.0000	UP BR	9999	0	0	0	2820
2019/01/04 23:52:00	BASE	1.64	339	2.06	326	1.4	100	1.4	64	148	968.5	NA	0.0000	UP BR	9000	0	0	0	2790
2019/01/04 23:53:00	BASE	1.64	346	2.06	326	1.4	100	1.4	62	144	968.5	NA	0.0000	UP BR	9999	0	0	0	2720
2019/01/04 23:54:00	BASE	1.68	354	2.06	326	1.5	100	1.5	59	139	968.5	NA	0.0000	UP BR	9999	0	0	0	2720
2019/01/04 23:55:00	BASE	1.57	357	1.95	331	1.5	100	1.5	58	136	968.5	NA	0.0000	UP BR	9999	0	0	0	2690
2019/01/04 23:56:00	BASE	1.21	351	1.85	354	1.5	100	1.5	57	133	968.5	NA	0.0000	UP BR	9999	0	0	0	2760
2019/01/04 23:57:00	BASE	0.54	0	1.85	354	1.5	100	1.5	55	130	968.5	NA	0.0000	UP BR	9999	0	0	0	2990
2019/01/04 23:58:00	BASE	0.09	2	1.85	354	1.5	100	1.5	54	126	968.5	NA	0.0000	UP BR	9999	0	0	0	3840
2019/01/04 23:59:00	BASE	0.04	348	1.85	354	1.4	100	1.4	53	124	968.4	NA	0.0000	UP BR	9999	0	0	0	3220